GFSGBSN_850_temp_000.txt.gz
Temp
10 10 10 10 11 11 11 11 11 11 12 12 12 13 14 14 14 15 16 16 17 17 17 17 18 18 18 19 19 19 20 20 20 21 22 22 21 20 18 19 19 19 19 19 20 20 19
10 10 10 11 11 11 12 12 12 12 12 12 13 13 14 14 15 15 16 16 17 17 17 17 18 18 19 18 19 19 20 20 20 20 20 20 20 20 20 19 18 19 19 19 19 19 20
10 10 10 10 11 12 12 12 12 13 13 13 14 14 14 15 15 16 16 17 17 17 17 18 18 18 19 18 19 19 19 20 20 20 20 20 20 21 20 19 19 19 18 16 17 17 19
10 10 10 11 11 12 12 13 13 13 14 14 14 14 15 15 16 16 16 17 17 17 18 18 18 19 19 19 19 19 20 20 20 20 21 21 21 21 20 19 17 15 14 15 17 17 18
10 10 10 11 11 12 13 13 13 13 14 14 14 15 15 15 16 16 16 16 17 18 18 18 19 19 19 19 19 19 19 20 21 21 21 21 21 19 18 14 13 11 15 16 15 15 14
10 10 11 11 12 12 13 13 14 14 14 14 15 15 15 16 16 16 17 18 18 18 19 19 19 19 19 19 19 19 20 20 21 21 21 21 20 13 11 12 14 15 15 14 14 15 13
10 11 11 11 12 12 13 14 14 14 15 15 15 15 16 16 16 17 17 18 19 19 19 18 18 18 19 19 19 19 20 20 20 20 15 16 13 14 15 15 16 16 15 14 14 15 14
10 11 11 11 12 12 13 14 14 15 15 15 15 16 16 16 16 17 18 18 17 17 18 19 19 19 19 19 19 19 19 20 19 15 16 14 15 16 15 14 15 16 15 14 13 13 14
10 11 11 11 11 12 13 14 15 15 15 15 15 16 16 16 17 17 18 17 17 17 17 18 19 19 19 19 18 18 19 18 17 15 14 14 16 15 15 14 14 14 15 15 14 12 13
10 11 11 11 11 12 13 14 14 15 15 15 16 16 16 16 17 17 17 17 17 17 10 15 18 19 19 19 18 17 18 18 16 16 16 16 16 15 14 15 14 14 15 14 13 13 13
11 11 11 11 11 12 13 14 14 15 15 15 16 16 16 17 17 17 17 17 17 17 10 16 18 19 19 18 18 17 17 18 14 14 15 15 15 14 14 15 14 14 13 13 13 12 12
11 11 11 11 12 12 13 13 14 14 15 15 16 16 16 16 16 16 17 17 17 9 12 16 18 17 17 17 16 17 16 17 16 13 13 13 15 15 15 15 14 13 12 11 10 10 10
11 11 11 12 12 12 13 13 14 14 15 15 16 16 16 16 16 16 17 17 10 9 15 16 16 16 15 14 14 13 12 11 11 14 10 12 13 13 15 14 13 11 9 8 9 8 9
11 11 11 12 12 12 13 13 14 15 14 15 15 16 16 16 16 16 17 11 13 13 15 16 16 14 14 14 13 12 12 10 11 11 9 10 11 13 14 14 14 13 10 7 10 7 8
11 11 11 12 12 12 13 13 14 15 15 15 15 15 15 15 16 16 17 7 9 11 15 16 15 14 14 14 13 12 11 11 11 11 11 8 12 12 14 13 13 13 10 10 7 1 5
11 11 12 12 12 13 13 14 14 15 15 15 15 15 15 16 16 16 9 10 14 13 15 15 14 14 14 13 13 12 12 13 12 11 12 11 11 12 12 13 13 12 11 9 6 6 8
10 11 12 12 12 13 13 14 14 15 15 15 15 16 15 16 16 17 7 8 14 14 15 14 14 13 13 13 13 12 12 13 13 12 12 11 10 11 11 11 11 10 9 9 9 7 6
10 11 11 12 12 13 13 14 14 15 15 15 16 12 15 16 14 8 9 14 14 13 15 14 13 13 13 12 12 12 13 12 13 13 12 10 7 7 11 11 11 11 11 9 5 8 5
10 10 11 11 12 12 13 13 14 15 16 16 16 15 16 17 7 3 12 12 13 14 12 13 13 12 12 11 11 12 12 12 13 12 12 11 7 6 9 10 10 11 10 9 5 4 7
10 10 11 11 11 12 12 13 14 15 16 16 16 8 16 16 12 10 11 12 13 14 13 12 12 13 11 10 9 11 11 12 12 12 12 11 7 8 7 9 8 8 9 9 8 7 8
10 10 10 11 11 12 12 13 14 15 15 16 15 11 12 6 9 11 11 13 13 13 13 13 12 11 11 9 10 10 10 10 11 11 10 8 8 8 7 8 7 8 8 7 6 7 7
9 9 10 11 11 12 12 13 13 14 15 15 15 13 12 10 11 11 7 12 12 12 13 12 11 11 11 10 11 11 10 10 10 10 9 6 5 7 6 6 6 5 6 6 6 6 6
9 9 9 10 11 11 12 13 13 14 14 14 14 14 15 6 7 6 7 12 12 12 12 13 12 10 9 11 12 12 12 12 10 10 7 7 3 3 4 4 4 6 8 7 8 7 7
8 9 9 10 10 10 11 12 13 13 14 14 15 15 15 4 3 6 11 12 11 12 11 12 12 9 12 12 12 11 10 8 8 7 8 2 1 2 3 6 6 9 9 9 8 7 7
7 8 8 9 10 10 11 11 12 13 13 14 14 15 15 2 5 10 11 11 11 12 11 12 12 12 12 12 4 3 3 4 4 4 4 4 2 4 6 6 6 8 9 10 8 7 8
7 7 8 8 9 9 10 10 11 12 12 13 13 14 14 12 6 12 11 11 5 6 8 10 10 11 11 5 2 2 4 4 7 7 3 2 -0 2 3 5 6 7 8 9 8 5 7
6 6 7 7 8 9 9 9 10 11 12 12 13 13 13 14 12 12 11 8 11 9 5 8 9 9 9 0 2 1 3 4 5 3 2 1 2 5 6 5 4 5 7 8 6 7 8
6 6 6 7 7 8 9 9 9 10 11 11 12 12 13 13 12 12 12 12 11 10 4 8 7 6 2 3 2 2 -2 2 3 5 4 5 2 1 2 3 4 7 8 7 8 9 7
5 5 6 6 7 7 8 8 9 9 10 11 11 11 12 12 12 11 11 11 11 12 12 10 9 9 8 2 2 -0 0 1 2 5 5 5 5 5 6 4 7 8 7 9 8 6 5

GFSGBSN_850_temp_003.txt.gz
Temp
10 10 10 10 11 11 11 11 11 11 11 12 12 13 13 13 14 15 15 16 17 17 17 17 18 18 19 18 18 19 19 20 20 21 22 22 21 20 18 18 19 19 18 18 19 19 19
9 10 10 11 11 11 11 11 11 11 12 12 12 13 13 14 15 15 16 16 17 17 17 17 18 18 19 18 19 19 19 20 20 21 21 21 20 20 19 18 18 18 18 17 18 18 18
9 10 10 11 11 12 12 12 12 12 12 13 13 13 14 15 15 16 16 17 17 17 17 18 18 19 19 18 19 19 19 20 20 21 21 21 21 21 19 18 18 18 19 17 16 16 18
10 10 11 11 11 12 12 12 12 13 13 13 14 14 14 15 15 16 17 17 17 18 18 18 18 19 19 19 19 19 20 20 20 21 21 21 21 21 19 18 17 17 16 18 17 17 17
10 10 11 11 12 12 13 13 13 13 14 14 14 14 15 15 15 16 17 17 17 18 18 19 19 19 18 19 19 19 19 20 20 21 21 21 21 19 17 17 17 15 18 17 17 14 16
10 10 11 11 12 12 13 13 14 14 14 14 15 15 15 15 16 16 17 17 18 18 19 19 19 19 19 19 18 19 20 20 21 21 21 21 19 16 15 18 18 16 17 16 16 17 16
10 10 11 11 12 12 13 13 14 14 14 15 15 15 16 16 16 17 17 18 19 19 18 18 18 18 18 19 18 19 20 20 21 20 17 16 17 16 15 15 15 15 15 15 15 14 15
10 11 11 11 12 12 13 14 14 14 14 15 15 15 16 16 16 17 18 18 18 18 17 18 18 18 18 18 18 19 20 20 18 16 15 16 15 15 14 14 15 15 15 15 15 14 15
10 11 11 11 12 12 13 14 14 14 15 15 15 16 16 16 17 17 18 18 17 17 17 18 18 18 18 18 16 17 18 18 15 15 14 15 16 14 15 14 15 14 15 15 15 14 14
10 11 11 12 12 12 13 13 14 15 15 15 15 16 16 16 17 17 17 17 17 17 12 15 17 18 18 18 17 16 17 17 15 15 15 15 15 14 14 14 14 15 14 14 14 14 17
10 11 11 12 12 12 12 13 14 15 15 15 15 15 16 16 17 17 17 17 18 17 12 16 17 18 17 17 16 16 16 17 14 13 15 15 15 14 15 14 14 15 12 13 13 14 14
11 11 11 11 12 12 12 13 14 14 15 15 15 15 16 16 17 17 17 17 17 10 13 16 17 16 16 15 15 16 15 16 14 13 14 13 14 14 14 14 13 13 13 13 12 13 15
11 11 11 12 12 12 12 13 14 14 15 15 15 15 15 16 16 16 17 17 12 11 15 15 15 15 13 13 13 13 12 11 12 14 11 13 14 13 14 15 14 13 13 14 15 14 15
11 11 11 12 12 12 12 13 14 14 14 15 15 15 15 15 16 16 17 12 13 13 14 14 14 13 14 13 13 12 12 12 11 11 11 12 14 13 13 14 13 13 12 12 13 13 12
11 11 11 12 12 12 13 13 14 14 14 14 15 15 15 16 16 16 16 9 11 12 14 14 14 14 13 13 13 12 11 11 11 11 12 11 13 12 12 12 13 13 12 11 9 3 10
11 11 12 12 12 12 13 13 14 14 14 14 15 15 15 15 16 16 10 10 13 12 14 14 14 13 13 12 13 12 12 12 12 11 11 11 12 12 12 13 13 13 12 13 11 11 11
11 11 12 12 12 13 13 13 14 14 14 15 15 15 15 16 16 16 9 9 13 13 14 14 13 12 12 13 12 12 12 11 11 12 11 11 11 12 11 12 12 13 12 10 11 10 10
10 11 11 12 12 12 13 13 14 15 15 15 16 12 15 15 14 7 10 12 14 13 14 13 12 12 12 11 11 12 11 11 11 12 12 10 9 10 12 11 11 11 11 11 10 10 9
10 11 11 12 12 12 13 13 14 15 15 15 16 15 15 16 8 5 11 12 12 13 11 12 12 12 11 10 11 11 11 11 12 12 11 11 9 10 12 11 11 12 11 9 8 7 10
10 11 11 12 12 12 13 13 14 14 15 16 16 9 15 15 12 10 11 12 12 13 12 12 11 12 11 10 9 11 11 11 11 11 11 11 8 10 11 11 10 9 9 9 10 9 10
9 10 11 11 12 13 13 13 14 14 15 16 15 10 11 7 9 10 11 12 12 12 12 12 11 11 11 9 10 10 10 10 10 10 10 9 9 8 9 9 9 9 9 9 9 9 9
9 9 10 11 12 12 12 13 13 14 15 15 15 13 11 9 11 10 7 12 11 11 12 12 11 11 11 10 11 10 10 10 10 10 9 7 8 7 7 7 7 6 8 8 8 8 8
9 9 10 10 11 12 12 13 13 14 14 15 15 14 15 5 7 8 8 11 11 12 11 12 11 10 9 11 12 12 11 10 10 9 8 7 6 5 7 5 6 8 9 8 9 9 10
8 9 9 10 11 11 12 12 13 13 14 14 15 15 15 5 4 7 10 11 10 12 11 11 12 9 12 12 11 10 9 8 7 6 7 3 4 4 6 6 8 11 9 10 9 9 9
7 8 9 9 10 11 11 12 12 13 13 14 14 15 15 2 5 9 10 10 11 11 10 11 11 11 11 11 6 5 6 5 4 3 4 4 4 5 6 7 7 10 10 9 9 10 8
7 7 8 8 9 10 11 11 11 12 12 13 14 14 15 12 7 11 10 10 6 6 8 9 10 10 11 5 4 6 8 6 9 7 3 3 2 5 5 6 7 9 9 8 8 8 8
6 7 7 8 9 9 10 10 11 11 12 12 13 13 14 14 11 12 11 9 11 9 6 7 9 9 10 3 4 6 7 5 7 5 4 3 3 5 6 6 7 7 7 8 7 7 7
6 6 7 7 8 8 9 10 10 11 11 11 12 13 13 14 12 12 12 12 11 11 6 8 7 7 3 4 4 4 4 5 5 6 6 7 6 4 3 4 5 7 7 7 7 6 5
5 6 6 7 7 7 8 9 9 10 10 11 11 12 12 13 12 11 11 12 12 12 12 9 9 8 8 3 2 2 3 1 4 7 5 6 7 7 6 7 7 7 8 6 5 4 4

GFSGBSN_850_temp_006.txt.gz
Temp
9 9 10 10 10 10 11 11 11 11 11 11 12 12 13 13 14 14 15 15 16 16 17 17 18 18 19 19 19 19 20 20 21 22 21 22 23 23 24 23 23 23 22 22 21 20 21
9 10 10 10 10 11 11 11 11 11 12 12 12 13 13 14 14 15 15 16 16 17 17 17 18 18 19 20 19 19 20 20 21 21 22 22 22 22 22 22 23 21 22 21 21 21 20
9 10 10 10 11 11 12 12 12 12 12 12 13 13 14 14 15 15 16 16 17 17 17 18 18 19 19 19 19 19 20 20 21 21 21 22 21 22 22 22 19 21 22 23 21 21 21
9 10 10 10 11 12 12 12 12 12 13 13 13 14 14 15 15 16 17 17 17 17 18 18 18 19 19 19 19 19 20 20 21 21 21 21 20 20 21 19 21 23 23 23 21 22 21
9 10 10 10 12 12 12 13 13 13 13 14 14 14 14 15 16 17 17 17 17 18 18 18 19 19 20 19 19 19 20 20 20 21 21 21 20 20 20 23 23 23 23 22 21 20 21
9 10 10 11 12 13 13 13 13 14 14 14 14 15 15 15 16 17 17 17 18 18 18 19 19 20 19 18 18 19 20 20 20 20 21 21 22 23 23 24 23 22 22 22 21 21 21
9 10 10 11 12 13 13 13 14 14 14 14 15 15 15 16 16 17 17 17 18 18 18 18 18 19 18 18 18 18 20 20 20 21 23 20 23 21 20 20 20 20 20 21 21 19 19
10 10 10 11 12 13 14 14 14 14 15 15 15 15 16 16 17 17 17 17 18 18 19 18 18 18 18 18 20 19 20 21 21 22 21 22 20 19 19 19 19 20 20 20 20 18 19
10 10 11 11 12 13 14 14 14 15 15 15 15 15 16 16 16 17 18 18 18 18 20 18 18 18 18 18 17 17 18 19 21 21 21 21 19 18 19 19 19 19 19 18 18 19 19
10 10 10 11 12 12 13 14 14 15 15 15 15 15 16 16 17 17 18 18 18 18 20 19 19 18 18 18 18 16 17 17 19 19 20 19 18 18 19 18 18 19 18 17 18 19 21
10 10 10 11 11 12 13 14 14 15 15 15 15 15 16 16 17 16 17 17 18 17 18 18 19 18 17 18 17 17 17 18 19 18 19 17 18 18 18 17 17 18 16 17 17 19 19
10 11 11 11 12 12 13 14 14 15 15 15 15 15 16 16 16 17 17 17 17 18 16 18 19 19 19 18 17 17 17 17 16 19 19 18 17 18 18 17 17 17 17 17 18 19 18
10 11 11 11 12 12 13 14 14 14 15 15 15 15 16 16 16 17 17 17 19 17 17 18 18 19 18 17 17 17 17 16 18 18 17 18 18 18 17 18 18 19 18 18 17 18 18
10 11 11 11 12 12 12 14 14 14 15 15 15 15 15 16 16 17 17 18 17 16 18 18 18 18 18 17 17 17 17 17 17 17 18 18 17 17 16 16 17 17 17 16 15 16 17
10 11 11 11 12 12 12 13 14 14 14 15 15 15 15 15 16 16 17 17 17 18 18 18 18 18 17 17 17 17 16 16 15 16 17 16 17 16 16 16 16 17 16 15 14 9 14
10 11 11 11 12 12 12 13 14 14 14 14 15 15 15 16 16 16 17 15 16 16 17 18 18 17 17 17 17 17 16 15 15 14 15 15 16 15 16 16 16 17 16 16 16 13 14
10 11 11 12 12 12 13 13 14 14 14 14 15 16 15 15 16 16 17 16 16 14 15 18 17 17 17 16 17 16 15 15 15 15 15 15 15 16 15 16 16 16 16 15 15 14 14
10 11 11 12 12 12 13 13 14 15 15 15 15 17 15 15 16 14 17 17 15 15 15 16 16 16 16 15 15 15 15 15 13 14 15 14 14 15 15 14 14 15 15 15 14 13 13
10 10 11 11 12 12 13 13 14 15 15 15 15 14 15 15 15 13 14 15 14 16 15 16 15 16 15 15 14 15 14 12 12 14 15 14 14 15 15 15 15 15 15 14 13 12 12
10 10 11 11 12 12 13 14 14 15 15 16 16 15 14 14 12 17 16 15 15 13 14 14 14 15 15 15 15 14 14 13 12 13 11 12 14 14 15 15 14 14 14 14 13 11 13
9 10 10 11 12 12 13 14 14 15 15 16 15 13 13 14 14 16 16 16 15 15 14 14 15 16 15 14 14 14 14 14 12 11 12 13 13 13 14 14 14 13 13 14 13 13 12
9 10 10 11 12 12 13 13 14 15 15 16 14 14 11 12 12 16 13 16 16 14 16 15 16 15 16 15 15 14 15 14 14 13 13 12 12 10 11 12 13 12 13 13 13 13 13
9 10 10 11 11 12 12 13 14 14 15 15 15 14 14 8 12 15 15 15 15 15 13 15 15 15 13 15 14 12 12 12 12 13 12 11 10 9 10 9 10 9 12 13 14 13 13
9 9 10 10 11 12 12 13 13 14 15 15 15 15 14 11 12 15 14 14 15 14 14 12 14 13 11 12 11 10 10 10 11 10 10 6 9 7 8 8 10 13 14 13 13 13 14
8 8 9 10 10 11 12 12 13 13 14 14 14 15 15 6 11 12 13 13 12 12 12 13 11 10 10 11 11 8 10 7 7 8 9 9 8 6 7 9 11 12 13 12 12 12 12
7 8 8 9 10 10 11 11 12 12 13 14 14 15 15 12 11 12 13 13 13 13 12 9 9 10 11 9 9 8 12 11 12 10 6 7 7 8 7 7 9 13 12 10 11 11 10
6 7 8 8 9 10 10 11 11 12 12 13 13 14 15 14 11 11 13 13 11 12 13 10 9 10 9 7 7 9 11 10 11 8 7 6 5 7 7 7 9 12 10 9 8 9 7
6 6 7 8 9 9 9 10 11 11 11 12 13 13 14 14 11 12 12 12 11 12 12 9 10 9 7 7 6 7 6 10 10 11 10 10 9 7 6 6 7 9 10 7 9 7 5
5 6 6 7 8 8 9 9 10 10 11 11 12 12 13 14 12 12 12 13 13 12 12 9 11 10 10 8 5 4 5 3 7 9 10 10 11 11 9 10 12 11 9 7 6 5 5

GFSGBSN_850_temp_009.txt.gz
Temp
10 10 10 10 10 11 11 11 11 11 11 11 12 12 12 13 13 14 14 15 15 16 16 17 18 18 19 20 21 20 20 21 21 21 23 24 25 25 26 26 26 25 25 24 24 23 24
10 10 10 10 10 11 11 11 11 11 11 12 12 12 13 13 14 14 15 15 16 17 17 17 18 19 19 22 20 20 20 21 22 23 24 24 25 25 25 26 26 25 25 24 24 24 23
10 10 10 10 11 11 11 12 12 12 12 12 13 13 13 14 14 15 16 16 17 17 17 18 18 19 18 21 20 20 21 21 21 22 23 23 23 24 25 24 24 24 24 25 24 24 24
10 10 10 10 10 11 12 12 12 12 12 13 13 13 14 15 15 16 16 17 17 17 17 18 18 19 21 19 20 20 21 21 21 21 22 22 23 23 24 23 24 25 25 25 25 24 24
10 10 10 10 11 11 12 12 12 13 13 13 13 14 15 15 16 16 17 17 17 17 18 18 19 19 21 19 20 20 20 22 21 21 21 22 23 24 23 25 25 25 25 24 24 24 24
10 10 10 10 11 12 12 13 13 13 14 14 14 15 15 16 16 16 17 17 17 18 18 19 19 20 20 21 19 19 20 20 22 22 22 23 24 25 26 26 24 25 25 25 25 24 24
10 10 10 10 11 12 13 13 13 14 14 14 15 15 15 16 16 17 17 17 18 18 19 20 21 21 20 20 20 20 20 21 22 23 24 24 25 24 23 23 23 24 24 24 24 23 22
10 10 10 10 11 12 13 13 14 14 14 14 15 15 16 16 17 17 17 19 17 19 20 19 20 19 19 20 21 21 21 22 23 24 24 24 23 22 22 22 22 23 23 23 23 22 22
10 10 10 10 11 12 13 14 14 14 15 15 15 15 16 16 17 17 17 17 19 19 21 20 19 20 19 20 20 20 21 22 24 24 24 23 22 21 22 22 22 22 22 21 21 22 23
10 10 10 10 11 12 13 14 14 15 15 15 15 16 16 16 17 17 17 18 18 18 22 21 21 20 20 20 20 19 19 21 23 23 23 22 21 21 22 21 21 22 21 20 21 21 23
10 10 10 11 11 12 13 14 14 15 15 15 16 16 16 16 16 18 17 18 18 18 19 21 21 19 20 21 20 20 19 21 22 22 21 20 21 21 21 20 20 20 20 20 21 22 22
10 10 10 10 11 12 13 14 15 15 15 15 15 16 16 16 16 17 18 18 19 20 18 20 21 21 21 20 20 20 20 20 20 22 22 21 20 21 20 20 20 20 20 21 21 22 20
10 10 10 10 11 12 13 14 14 15 15 15 15 15 16 16 17 17 18 18 20 19 20 20 20 21 21 20 20 21 21 20 21 20 20 21 20 20 19 21 21 22 21 20 19 20 20
10 10 10 11 11 11 12 14 14 15 15 15 15 15 16 16 16 17 17 20 18 20 21 22 21 21 20 21 20 20 21 20 20 21 21 21 19 20 20 19 19 20 20 18 17 18 20
10 10 10 11 11 11 12 14 14 14 15 15 15 15 15 16 16 17 18 18 19 20 21 21 21 21 20 20 20 20 19 19 18 19 20 20 19 19 19 19 19 20 19 19 17 14 16
10 10 10 11 11 12 12 13 14 14 15 15 15 15 15 16 16 17 19 17 19 20 21 21 20 20 20 20 20 20 19 18 18 18 18 18 19 19 19 19 19 19 19 18 18 14 16
10 10 11 11 12 12 12 13 14 14 14 15 15 17 15 16 16 18 18 19 19 18 19 20 20 20 20 19 20 19 18 17 18 18 18 18 18 18 18 19 19 19 18 18 18 17 15
10 10 11 11 12 12 13 13 14 14 14 15 15 19 15 16 18 19 19 19 18 18 18 19 20 20 20 19 19 18 18 18 16 17 18 16 17 16 19 18 18 18 18 18 15 15 15
10 10 11 11 12 12 13 13 14 14 15 15 18 16 15 16 17 16 17 18 18 19 19 19 18 19 19 19 17 18 17 15 15 17 16 17 17 17 18 17 18 17 18 17 15 14 13
9 10 11 11 12 12 13 13 14 15 15 15 17 16 16 16 17 19 18 18 17 17 17 18 18 18 18 18 18 17 17 15 14 15 13 14 17 16 16 17 18 16 17 17 16 14 14
10 10 11 11 12 12 13 13 14 15 15 15 17 17 16 17 17 19 19 19 18 17 18 18 18 19 18 17 17 17 17 16 15 13 14 16 15 15 16 17 17 16 16 16 16 16 14
9 10 10 11 12 12 13 13 14 15 15 15 17 17 16 16 18 19 15 19 19 18 18 18 18 19 19 16 18 17 17 17 16 15 15 15 14 12 13 16 16 15 16 16 17 16 16
9 10 10 11 11 12 13 13 14 15 15 15 15 15 17 13 17 18 18 19 19 17 16 18 18 18 16 17 16 15 15 15 15 15 14 14 13 12 11 13 11 10 14 16 16 16 15
9 9 10 10 11 12 13 13 14 14 15 15 15 15 15 14 16 18 18 18 18 18 17 17 17 16 14 13 13 13 13 14 14 13 13 11 11 9 9 8 10 15 17 16 15 15 16
9 9 10 10 11 11 12 13 13 14 15 15 15 15 15 10 16 16 17 18 16 16 16 15 13 13 13 14 13 10 10 6 9 12 13 13 11 8 8 11 13 15 14 14 13 13 15
8 9 9 10 10 11 12 12 13 13 14 14 15 15 14 12 13 16 17 16 16 15 14 12 10 11 13 12 10 9 13 14 14 12 11 11 10 10 8 8 10 14 15 13 13 12 12
7 8 8 9 10 10 11 12 12 13 13 14 14 15 14 13 13 15 16 16 16 16 15 13 12 11 12 8 9 9 13 14 13 9 7 7 7 8 9 8 11 14 12 12 10 11 10
6 7 8 8 9 10 10 11 11 12 12 13 13 14 14 13 11 12 13 13 14 15 13 13 13 12 11 7 8 10 8 12 12 14 11 10 9 7 8 7 8 12 12 9 11 10 8
6 6 7 8 8 9 10 10 11 11 12 12 12 13 14 14 11 13 13 13 13 14 15 12 14 13 13 12 9 8 6 7 9 11 15 12 13 12 11 12 14 12 11 10 9 8 6

GFSGBSN_850_temp_015.txt.gz
Temp
10 10 10 11 12 11 12 12 12 12 12 12 12 12 12 12 13 13 14 14 15 15 15 16 16 16 17 18 19 21 21 21 22 22 23 22 22 24 21 23 25 23 23 24 24 24 24
10 10 10 11 11 11 12 12 12 12 12 12 12 12 12 13 13 14 14 15 15 15 15 16 17 17 17 17 21 21 21 22 22 22 23 23 24 24 25 24 23 24 24 24 24 24 24
10 10 10 11 11 11 12 12 12 12 12 12 12 12 13 13 13 14 15 15 15 15 16 16 17 17 18 20 21 21 22 22 22 22 23 24 24 24 25 23 25 25 22 21 23 23 22
9 10 10 11 11 12 12 12 12 12 12 12 12 13 13 14 14 15 15 15 15 16 16 17 17 18 19 20 21 21 22 22 22 22 23 23 24 24 24 25 24 23 21 19 21 22 23
10 10 10 11 11 11 12 12 12 12 13 12 13 13 14 14 15 15 15 16 16 16 17 17 17 18 18 21 21 21 22 22 22 22 23 23 23 24 24 21 19 21 18 20 21 23 21
10 10 10 11 11 12 12 13 12 13 13 13 13 14 14 15 15 15 16 16 16 16 17 18 18 17 20 21 21 21 21 22 22 23 22 23 23 19 18 17 18 20 20 20 19 22 23
9 10 10 11 11 12 12 13 13 13 13 13 14 14 15 15 15 15 15 15 17 17 17 19 20 19 21 21 21 21 21 22 22 23 20 23 18 18 20 22 22 22 21 19 20 22 22
9 10 10 11 11 12 13 13 13 13 13 14 14 14 15 15 15 16 16 17 18 18 18 20 21 21 21 21 22 21 22 22 22 20 21 20 18 21 22 23 22 22 20 19 20 21 21
10 10 10 11 11 12 13 13 14 14 14 14 14 15 16 16 16 16 17 17 17 19 19 21 21 21 21 21 21 21 21 22 21 20 19 18 21 22 22 19 19 19 18 18 19 20 20
10 10 10 11 11 12 13 13 14 14 14 14 15 15 16 16 16 17 17 17 17 19 15 19 20 21 21 21 20 21 21 21 22 20 19 19 22 21 21 19 19 18 19 19 19 18 17
9 10 10 11 11 12 13 14 14 14 14 14 14 15 16 16 16 17 17 18 19 19 11 20 20 21 21 21 21 21 21 21 20 21 20 20 19 18 19 19 19 19 20 19 19 17 18
9 9 10 11 11 12 13 14 14 14 14 15 15 15 16 16 16 16 17 18 19 12 14 20 21 20 21 21 21 21 21 22 22 20 19 19 21 19 19 20 20 20 19 18 18 17 13
9 9 11 11 12 12 13 14 14 14 15 15 15 15 15 16 16 17 18 19 12 11 20 19 20 20 20 20 20 20 20 18 17 18 17 19 19 19 20 18 20 18 16 12 12 11 12
9 10 11 11 11 12 12 14 14 14 15 15 15 15 16 16 16 18 18 14 15 20 20 21 20 20 19 20 20 20 19 17 17 17 17 16 16 18 18 18 18 17 17 10 14 11 12
10 10 11 11 11 11 12 13 14 14 15 15 15 15 16 16 17 17 17 11 15 19 21 20 20 19 19 20 20 18 17 17 16 16 17 16 17 18 18 19 18 18 14 18 13 12 9
10 10 11 11 11 11 12 13 14 14 15 15 15 15 15 16 17 17 13 12 18 20 21 21 19 19 18 19 19 18 17 17 17 17 18 17 16 18 19 19 19 17 18 13 10 12 14
10 10 11 11 11 11 12 13 13 14 14 15 15 15 16 16 16 16 11 15 20 20 19 19 19 20 19 19 19 18 17 17 17 18 17 15 15 17 19 16 16 16 16 16 15 10 9
10 10 11 11 11 11 12 13 13 14 14 15 15 12 16 16 15 15 14 19 19 19 19 20 20 20 19 19 18 17 15 16 17 16 16 16 13 11 16 18 18 18 17 15 8 12 7
10 10 11 11 11 11 11 12 13 14 14 14 15 15 15 16 10 8 17 19 20 18 19 20 18 18 19 18 16 15 14 15 16 13 13 14 14 9 13 15 16 17 17 16 11 7 10
10 10 10 11 11 11 11 12 13 14 14 14 15 10 15 15 16 16 17 17 18 19 18 20 18 19 18 17 17 15 14 15 15 14 14 14 15 12 10 14 15 15 15 16 12 6 9
10 10 10 11 11 11 12 12 13 14 14 14 15 14 15 10 13 14 17 16 17 17 18 19 18 18 17 16 16 14 14 14 14 14 15 13 12 13 13 14 15 14 14 13 14 13 10
9 10 10 10 11 11 12 12 13 14 14 13 14 15 17 16 17 16 13 17 16 17 17 17 18 18 16 16 15 14 14 14 14 14 14 13 8 11 12 12 11 11 12 12 13 14 14
9 10 10 10 11 11 12 12 13 14 14 15 15 16 17 14 15 13 14 18 18 17 18 18 17 13 10 13 14 14 15 15 15 14 12 10 7 6 8 8 7 7 12 13 14 14 14
9 9 10 10 11 12 12 13 13 14 14 15 16 16 16 9 12 14 17 18 16 17 16 15 16 12 14 15 15 15 14 13 14 13 13 8 7 4 4 4 7 12 14 13 12 12 12
8 9 9 10 11 11 12 13 13 14 15 15 16 16 16 5 14 16 18 18 17 14 13 14 15 15 15 15 6 9 5 6 9 12 12 11 5 3 5 5 8 12 13 12 11 10 10
8 9 9 10 11 11 12 12 13 14 14 15 15 15 15 13 10 17 17 17 11 11 11 13 14 14 14 7 4 6 7 9 9 11 8 8 5 4 2 3 4 9 12 13 12 6 10
8 8 9 10 10 11 12 12 13 13 14 14 15 15 15 15 14 16 14 13 15 13 8 12 12 13 13 3 5 4 7 11 8 7 4 3 3 3 6 2 5 9 13 12 8 7 9
7 8 9 9 10 11 11 12 13 13 13 14 14 14 15 14 14 15 15 16 16 15 7 13 9 11 5 5 3 4 4 5 8 9 6 4 3 5 6 6 4 12 12 8 8 9 9
7 8 8 9 9 10 11 12 12 13 13 13 13 14 14 15 13 14 14 14 15 14 14 13 13 12 11 4 3 4 5 5 5 6 10 8 6 5 6 5 10 13 13 11 11 9 7

GFSGBSN_850_temp_021.txt.gz
Temp
11 11 12 12 12 12 12 13 13 12 12 12 12 12 12 12 12 12 12 13 13 14 14 14 14 15 15 16 18 20 20 20 20 20 20 20 19 19 19 19 20 20 20 21 22 22 22
10 11 12 11 11 12 12 12 12 12 12 12 12 12 12 12 12 12 12 13 13 13 14 14 15 15 15 15 20 20 20 20 20 20 20 20 21 21 21 20 20 21 21 20 22 22 22
9 11 11 11 11 11 12 12 12 12 12 12 12 12 12 12 12 12 13 13 13 13 14 14 15 15 16 20 20 20 21 21 21 21 22 21 21 20 21 19 21 21 19 20 21 21 21
9 11 11 11 11 11 11 12 12 12 12 12 12 12 12 12 12 13 13 13 13 14 14 14 15 15 17 20 20 20 21 21 22 21 22 22 22 22 22 22 21 19 17 18 20 20 20
8 10 10 10 10 11 11 12 12 12 12 12 12 12 13 13 13 13 13 14 14 14 14 15 15 15 18 20 20 21 21 21 22 22 22 23 23 22 21 17 16 15 17 19 20 19 20
9 10 10 10 10 11 11 12 12 12 12 12 12 12 13 13 13 13 14 14 14 14 14 14 15 16 20 20 21 21 21 21 22 22 23 23 22 16 15 15 16 18 19 17 18 19 18
9 10 10 10 10 10 11 12 12 12 12 12 12 13 13 14 14 14 14 14 14 14 15 18 18 19 19 20 20 21 21 21 22 22 18 19 16 17 17 18 19 19 17 17 18 19 16
9 9 10 10 11 10 12 12 12 12 12 12 12 13 14 14 15 15 15 15 16 15 16 18 18 18 19 20 20 21 21 21 21 18 19 16 17 19 17 17 18 17 17 18 18 17 15
9 9 10 10 10 11 12 12 12 12 12 12 13 14 14 14 15 15 15 16 16 16 16 19 20 19 20 20 20 20 21 21 19 19 18 16 19 19 17 16 17 16 17 17 18 16 15
9 9 9 10 10 11 11 12 12 13 13 13 14 14 15 15 15 15 16 16 16 17 12 17 19 20 20 20 20 20 21 21 19 17 16 17 17 17 17 17 16 17 18 18 18 15 14
9 9 9 10 10 11 11 12 12 13 13 13 14 15 15 15 15 16 16 16 17 17 11 18 19 20 20 20 20 20 20 21 19 17 17 17 17 17 17 18 18 17 17 17 17 14 14
9 9 9 9 10 11 11 13 13 13 13 14 15 15 15 15 15 16 17 17 17 11 13 18 19 19 19 19 19 20 20 20 19 16 16 17 18 18 18 18 18 18 16 14 12 12 11
9 9 9 9 10 10 11 13 13 13 13 14 14 15 15 16 16 17 17 17 10 10 18 17 17 18 18 18 18 17 15 14 15 15 15 16 16 16 18 18 17 15 13 10 11 10 11
9 9 9 10 10 11 11 13 13 13 14 14 14 15 15 16 16 17 17 12 14 15 17 18 18 17 17 17 16 16 16 14 14 15 13 13 14 16 16 17 17 15 14 9 15 11 11
9 9 9 9 10 11 11 13 13 14 14 14 14 15 15 16 16 17 17 10 12 13 18 17 17 17 17 18 16 15 14 14 15 15 15 14 15 17 17 17 16 16 13 13 9 8 8
9 8 9 9 10 10 12 13 13 14 14 14 15 15 15 16 16 17 11 11 14 17 18 17 17 16 16 17 16 15 15 15 15 14 15 15 15 16 17 17 16 15 14 12 8 11 12
9 9 9 9 10 10 12 12 13 14 14 14 15 15 15 16 16 16 10 11 15 18 18 18 17 16 16 16 15 15 14 14 13 15 14 15 13 14 15 15 15 14 13 11 10 7 8
9 9 9 9 10 11 12 12 13 14 14 14 15 10 15 15 13 8 10 14 17 18 19 17 17 17 16 15 14 14 14 14 13 14 14 13 10 9 15 14 15 15 14 11 7 11 5
9 9 9 9 10 11 11 12 13 14 14 14 14 13 13 15 8 5 12 16 17 17 17 18 17 16 16 13 13 13 13 13 14 13 13 13 11 9 12 12 13 15 14 9 8 6 9
9 9 9 10 10 11 11 12 13 14 14 14 14 8 12 14 13 11 14 16 16 17 17 17 17 16 15 14 12 12 13 13 13 13 13 12 10 10 10 12 12 14 14 11 10 6 8
9 9 9 10 10 11 12 12 13 14 14 14 14 11 13 8 10 11 13 15 16 16 17 17 17 16 15 14 13 12 12 13 13 13 12 10 11 11 10 10 12 13 13 11 11 10 9
9 9 10 10 10 11 11 12 13 13 13 14 14 12 13 11 15 12 11 14 14 16 16 16 15 14 15 13 13 11 11 12 13 12 11 8 8 10 11 9 9 11 11 9 9 10 9
9 9 9 10 10 11 11 12 13 13 13 14 14 14 16 8 9 10 10 13 14 15 14 15 13 11 11 12 12 12 13 13 12 11 9 8 5 6 7 6 7 7 8 10 11 11 11
9 9 10 10 11 11 11 12 13 13 14 14 14 14 15 6 9 10 13 15 13 14 13 13 14 11 12 13 13 13 12 10 10 8 10 6 3 1 4 3 6 10 10 11 11 10 9
9 9 10 11 11 11 11 12 13 13 13 15 14 15 16 4 10 13 12 11 12 12 11 11 12 13 14 13 6 9 5 7 7 6 6 7 2 2 3 4 7 11 10 9 10 9 7
9 9 10 11 11 11 11 12 13 13 14 14 14 15 16 12 10 13 11 12 9 8 9 11 11 12 13 4 3 5 7 9 8 9 6 5 2 3 2 3 5 9 10 12 11 7 8
9 9 10 10 11 11 11 12 13 14 14 15 15 16 16 14 12 13 11 11 12 9 7 11 12 12 12 -0 1 3 6 8 7 6 4 3 -0 2 -3 1 4 7 10 12 9 7 8
9 10 10 10 11 11 12 12 13 14 14 14 15 15 16 14 12 13 14 14 13 13 7 11 9 10 4 4 2 2 1 4 5 7 5 4 4 2 2 1 6 9 9 8 9 11 12
9 10 10 10 11 11 12 12 13 14 14 15 15 15 15 15 12 12 13 14 15 15 14 11 12 10 10 3 0 1 1 4 3 6 7 6 6 5 5 6 9 10 11 12 13 13 11

GFSGBSN_850_temp_024.txt.gz
Temp
9 10 12 12 12 12 12 13 12 12 12 13 12 12 13 12 12 11 11 11 12 13 13 13 14 14 14 15 18 19 20 20 19 19 19 18 18 18 17 17 19 19 20 20 20 20 20
9 9 10 12 12 11 12 12 12 12 12 12 12 12 13 12 12 11 11 11 12 12 13 13 14 14 14 13 19 19 19 20 20 20 19 18 19 20 20 19 20 20 20 19 20 20 20
9 9 9 11 11 11 12 12 12 12 12 12 12 12 12 12 12 11 11 11 12 13 13 14 14 14 14 18 19 20 20 20 20 20 20 20 20 20 19 18 20 20 20 18 19 20 19
10 9 9 10 11 11 11 11 11 11 12 12 12 12 12 12 12 12 12 12 12 13 13 13 13 14 16 19 20 20 20 21 21 21 20 20 20 19 20 20 19 18 16 17 19 20 18
9 9 9 9 10 11 11 11 11 12 11 12 12 12 12 12 12 12 12 13 13 13 13 14 14 14 17 19 20 20 21 21 21 21 20 19 20 20 19 16 15 14 16 18 20 19 19
9 9 9 10 10 11 11 11 11 11 11 12 12 12 12 12 12 12 12 13 13 13 13 13 14 14 19 19 20 20 21 21 21 21 21 21 20 15 14 15 16 17 17 17 18 18 14
9 9 9 10 10 11 11 11 11 11 11 12 12 12 13 13 12 12 13 13 13 13 14 16 17 17 19 19 20 20 21 21 21 21 18 18 15 16 17 17 17 17 17 17 16 17 12
9 9 9 9 10 10 10 11 11 11 12 12 12 12 13 13 13 13 13 14 15 15 15 17 17 18 19 19 19 20 21 21 20 18 18 16 16 18 16 17 16 16 15 17 16 14 12
8 9 9 10 10 10 10 11 11 11 12 12 12 13 13 13 13 14 14 15 15 15 15 18 19 19 20 19 19 20 20 20 19 18 17 15 18 17 17 16 16 15 16 17 16 15 13
8 8 9 10 10 10 10 11 11 12 12 12 12 13 13 13 13 14 15 15 15 16 12 16 18 20 20 20 19 20 20 20 18 16 16 16 16 16 16 16 16 17 17 17 16 14 14
8 8 9 10 10 10 10 11 11 12 12 12 13 13 13 13 15 15 15 15 16 16 11 17 19 20 20 19 19 19 20 20 17 17 16 17 17 16 16 17 17 17 15 15 15 13 13
7 8 9 9 10 10 10 11 11 12 12 12 13 13 14 14 15 15 16 16 17 10 12 17 18 19 18 18 18 19 19 19 18 15 14 15 17 16 17 16 17 16 15 12 11 11 11
7 7 8 9 9 10 10 10 11 12 12 13 13 14 14 15 15 16 17 17 10 10 17 16 17 18 17 16 16 16 14 13 15 15 14 14 15 15 17 17 16 13 12 10 11 10 10
7 7 8 9 9 10 10 10 11 12 12 13 13 14 14 15 16 16 17 12 14 14 15 16 16 16 16 17 15 15 15 13 14 13 12 13 14 15 15 16 15 14 13 9 14 10 10
4 7 8 8 9 9 10 10 11 12 12 13 12 13 14 15 16 17 17 9 12 12 16 16 16 16 16 17 15 14 14 14 14 14 14 13 15 16 16 16 16 14 12 12 9 8 8
4 7 8 9 9 9 10 10 11 12 12 13 13 13 15 15 16 16 11 11 13 14 17 17 16 16 16 16 15 14 15 14 15 13 14 14 14 15 16 16 14 15 12 12 7 11 12
4 7 8 9 9 9 10 10 11 12 13 12 12 14 14 15 16 17 9 11 13 17 17 17 16 16 15 15 14 14 14 14 13 14 14 13 13 13 15 14 14 13 12 9 9 7 8
5 7 8 9 9 10 10 11 11 12 12 12 13 10 14 15 12 7 10 12 16 17 17 17 16 16 15 14 14 14 14 14 12 13 14 12 10 10 14 14 13 14 13 10 7 11 5
6 7 8 9 10 10 10 11 11 12 13 12 14 12 13 14 7 5 11 14 16 17 16 17 16 16 14 13 13 12 12 13 13 13 13 12 10 9 11 12 13 15 12 8 7 5 8
7 7 8 9 10 10 10 11 12 12 13 13 14 8 12 13 13 10 13 15 16 16 16 16 15 15 13 13 11 11 12 12 13 12 12 12 9 10 10 12 11 13 12 10 10 6 7
6 7 8 9 10 10 11 11 12 13 13 13 14 10 11 8 9 10 13 14 15 16 16 16 15 15 13 13 12 11 12 12 12 12 11 10 10 10 9 9 11 12 12 10 10 10 9
7 7 8 9 10 10 11 11 12 12 12 13 13 11 11 9 12 11 10 12 14 15 15 16 15 13 14 12 13 11 11 11 12 11 10 8 8 10 10 8 8 10 10 9 9 9 8
7 7 8 9 10 10 11 12 12 12 13 13 13 14 15 7 7 9 8 12 13 13 13 14 13 11 12 12 12 11 12 11 11 10 8 7 5 6 7 5 6 7 8 8 9 8 9
7 8 9 9 10 10 11 12 12 12 13 14 14 14 14 5 7 9 11 13 13 13 13 12 13 11 11 12 12 12 11 9 9 7 8 5 4 1 3 3 6 10 9 9 10 10 8
7 8 8 9 10 10 11 12 12 13 13 14 14 14 15 2 8 11 11 10 11 11 10 10 11 12 13 12 6 9 5 7 6 5 5 5 2 1 3 4 7 12 10 9 9 9 7
7 8 9 10 10 10 11 12 13 13 13 14 14 14 15 9 8 13 10 11 8 8 8 10 10 11 12 3 3 5 7 10 9 9 6 4 2 3 0 4 5 9 9 10 11 7 9
7 8 9 9 10 10 11 12 13 13 13 14 14 14 15 13 11 13 11 11 12 9 6 10 11 11 11 -0 1 3 6 7 7 6 4 2 0 2 -3 1 4 7 10 11 9 8 8
8 8 9 9 10 11 12 12 12 13 13 14 14 14 15 13 11 13 13 14 12 12 6 10 9 10 4 4 2 2 1 4 5 7 5 5 3 1 1 -0 7 8 9 8 9 11 12
8 9 9 9 10 11 11 12 12 13 14 14 14 14 15 15 11 11 12 13 14 14 14 11 12 10 10 3 -1 -1 1 2 3 6 5 6 6 4 5 6 8 10 10 12 11 12 12

GFSGBSN_850_temp_027.txt.gz
Temp
10 10 10 10 10 12 12 12 12 12 12 12 12 12 13 12 12 12 12 12 12 12 12 12 13 13 13 14 17 19 19 19 19 18 18 18 18 18 18 17 18 18 19 19 20 19 19
10 10 10 10 9 11 12 12 12 12 12 12 12 12 12 12 11 12 12 12 12 12 12 13 13 13 13 13 19 19 19 19 19 19 18 18 19 19 18 18 19 19 19 18 18 18 20
10 10 10 10 10 11 11 12 12 12 11 11 12 12 12 12 11 12 12 12 12 12 13 13 13 13 13 18 19 19 19 19 19 19 19 19 19 18 19 17 20 19 20 19 18 19 19
9 10 10 10 10 10 11 12 12 11 11 11 12 12 12 11 11 11 11 12 12 12 13 12 13 13 16 19 19 20 20 20 20 19 18 18 18 18 19 19 18 19 18 20 19 19 18
9 9 10 10 10 10 11 11 12 11 11 11 12 11 11 11 11 11 12 12 13 12 12 13 13 13 17 19 20 20 20 20 20 20 19 18 18 18 18 18 18 17 19 18 19 17 19
9 9 9 10 10 10 11 11 11 11 11 11 12 11 11 11 11 11 12 12 12 12 12 12 13 13 18 19 20 20 20 20 20 20 18 18 18 17 17 19 19 18 18 18 19 17 16
8 9 9 9 10 10 11 11 11 11 11 11 11 11 11 11 11 12 13 12 12 12 12 15 16 16 18 19 20 20 20 20 21 20 18 17 19 19 18 18 18 18 18 18 17 15 14
7 8 8 9 9 10 11 11 10 11 11 11 11 11 11 11 12 13 13 14 14 14 14 17 16 17 18 18 19 20 20 20 20 18 18 18 18 17 16 17 17 17 17 17 15 14 15
7 7 8 9 9 9 10 11 10 11 11 11 11 11 11 12 12 13 14 14 14 14 14 17 18 18 19 19 19 20 20 20 18 18 17 17 17 16 17 16 17 16 17 17 17 15 14
6 7 8 9 8 9 10 10 10 11 11 11 11 11 11 12 11 13 14 15 14 14 13 16 17 18 19 19 19 19 20 20 17 16 16 16 16 17 16 17 16 16 16 16 16 17 18
4 7 7 8 8 8 10 10 10 10 11 11 11 11 12 12 14 14 15 15 15 14 13 16 18 19 19 19 19 18 19 20 17 16 17 16 16 16 16 16 16 16 15 16 15 16 16
3 5 5 8 8 8 9 10 10 10 11 11 11 11 12 12 14 15 15 15 14 12 13 17 18 18 17 17 17 18 19 19 17 15 15 15 16 16 16 15 15 14 15 15 14 15 16
3 4 6 7 8 8 9 10 10 10 11 11 11 11 12 13 14 14 15 15 12 12 16 16 16 17 16 16 16 15 14 14 16 16 15 16 15 15 16 17 15 16 16 15 15 15 15
3 3 5 6 7 8 9 9 9 10 11 11 11 11 13 13 14 14 15 13 14 14 14 16 16 16 16 16 15 14 15 15 14 14 14 15 16 16 15 16 16 14 16 15 15 14 15
3 3 5 5 7 7 9 9 9 10 10 11 11 11 12 14 13 14 15 11 12 12 15 15 16 15 15 16 15 14 13 14 13 14 16 15 15 15 15 15 16 15 15 13 11 8 12
2 3 4 5 7 7 8 9 9 9 10 11 11 11 12 13 14 14 12 11 13 13 15 16 15 15 15 15 15 14 14 13 14 13 14 14 15 14 15 15 14 16 13 14 13 13 14
2 2 4 5 7 7 8 9 9 9 10 10 10 11 13 13 14 15 11 11 13 15 16 16 15 15 15 15 14 14 14 13 13 14 14 13 14 14 14 15 15 15 14 11 12 11 13
2 2 3 4 6 7 8 9 9 9 10 9 10 9 13 13 12 7 10 12 15 16 16 16 15 15 15 14 14 13 14 14 12 13 15 12 12 13 14 14 13 14 14 13 13 12 9
1 1 2 3 6 7 8 9 9 9 10 10 11 11 12 13 9 7 10 14 15 16 15 16 15 15 13 13 13 12 12 12 13 13 13 12 12 12 14 14 14 14 12 10 9 9 10
1 2 1 2 6 6 8 9 9 10 10 11 12 8 11 12 12 11 12 14 15 16 15 15 13 13 13 13 11 11 12 12 12 12 12 12 11 13 14 14 12 13 12 11 12 11 11
1 1 2 3 6 7 8 9 10 11 10 11 12 9 11 9 9 10 13 13 14 15 15 15 14 14 13 12 12 11 11 12 12 11 10 11 12 11 10 10 11 12 12 11 12 12 13
0 1 2 5 6 7 8 9 10 11 10 11 12 10 10 8 12 10 10 12 13 14 15 15 14 13 13 12 13 11 11 11 12 10 10 8 10 10 10 9 9 11 11 11 10 10 11
1 2 4 6 7 7 8 9 10 11 11 11 12 14 15 5 7 9 9 11 13 13 12 13 13 12 13 12 11 10 11 10 10 10 8 9 8 9 10 7 8 10 10 11 10 10 12
2 4 5 7 7 8 9 10 11 11 11 13 14 15 13 6 7 9 10 12 12 13 13 11 13 12 10 11 12 12 10 8 8 7 7 7 6 5 8 5 11 13 10 10 11 11 10
4 5 6 7 7 8 9 10 11 12 12 13 14 15 15 3 7 10 10 9 10 11 10 10 10 11 12 12 8 10 7 8 7 6 6 6 5 4 8 9 10 13 10 10 10 13 11
5 6 7 7 8 9 10 10 11 12 12 13 14 14 15 8 7 12 10 10 9 8 8 8 9 10 11 4 6 8 10 11 10 8 6 5 5 8 4 9 10 11 10 10 10 11 10
6 7 7 7 8 9 10 11 12 12 12 12 14 14 14 12 11 12 10 10 11 9 7 8 9 10 10 4 6 8 10 8 10 8 5 5 4 7 2 8 8 9 9 10 11 12 9
7 7 7 8 9 10 11 11 12 12 12 13 14 13 14 12 10 12 13 13 11 12 8 9 9 10 5 6 7 6 6 7 8 8 7 8 6 6 2 6 9 8 10 11 11 11 12
7 7 8 8 9 10 11 12 12 12 12 13 13 13 13 13 10 11 12 13 14 14 13 10 12 9 10 6 3 2 4 3 5 9 6 8 8 9 8 9 9 10 11 12 11 11 12

GFSGBSN_850_temp_030.txt.gz
Temp
10 10 10 10 10 10 11 12 12 12 13 13 13 12 12 12 12 12 12 12 12 11 12 12 13 13 14 14 16 18 19 19 19 18 17 18 19 20 22 22 22 22 23 22 22 21 23
9 10 10 10 10 10 10 11 12 12 12 13 13 12 12 12 12 12 12 12 12 11 12 12 13 13 14 15 18 18 19 19 19 18 18 18 20 20 21 21 22 22 22 22 22 21 20
8 9 9 10 10 10 11 11 12 11 12 12 12 12 11 12 12 11 12 12 12 12 12 12 13 13 14 16 18 18 19 18 18 18 18 18 19 19 20 22 21 22 22 22 21 21 22
9 8 10 9 9 10 10 10 11 11 11 12 12 11 11 11 11 12 12 12 12 12 12 12 13 13 14 18 19 19 19 19 19 17 17 17 17 18 19 19 21 23 23 22 22 22 20
8 8 8 10 10 9 10 10 11 11 11 11 11 11 11 11 11 12 12 12 12 12 12 13 13 13 16 18 19 19 19 19 19 18 17 17 17 19 19 21 22 22 22 22 21 21 22
6 8 8 9 10 10 10 10 10 11 11 11 11 11 11 11 11 12 12 12 12 12 13 13 13 13 18 20 19 19 19 19 18 17 17 17 19 21 21 23 21 22 22 23 22 21 23
4 6 8 8 9 10 10 10 10 11 11 11 11 11 11 11 12 12 12 11 11 11 13 15 16 16 18 18 19 19 20 20 19 20 21 19 21 22 23 22 23 23 23 22 21 19 22
3 4 7 7 8 9 9 9 10 10 11 11 11 11 11 11 12 12 12 10 13 14 16 16 15 16 18 18 19 20 20 21 21 22 21 21 22 20 20 21 22 23 22 21 19 19 21
3 4 5 7 8 9 9 9 9 10 10 10 11 10 11 11 12 12 13 13 13 13 16 17 16 17 18 19 20 21 20 20 21 22 21 21 20 19 21 21 22 21 22 20 21 19 20
2 3 4 7 7 8 9 9 9 10 10 10 11 10 11 12 11 13 13 14 13 13 18 19 18 19 18 18 20 19 20 21 21 21 20 21 19 21 21 21 21 21 20 21 20 21 22
2 3 3 5 6 7 8 9 9 9 10 10 10 11 11 11 12 12 12 14 13 14 16 20 20 19 18 20 20 19 19 20 22 19 20 19 20 21 21 19 20 20 19 21 21 22 21
2 3 3 3 6 6 8 8 9 9 9 10 10 10 10 11 12 13 13 13 14 17 16 19 20 20 20 19 19 19 19 19 18 20 20 19 19 20 20 18 20 19 20 20 21 21 20
2 2 3 3 4 6 7 8 8 9 9 10 10 10 11 12 11 13 12 13 17 16 18 18 19 20 20 19 19 20 20 20 21 19 19 20 19 19 19 20 19 20 21 20 19 19 19
2 2 3 3 4 5 7 8 8 8 9 9 10 10 11 12 12 12 13 16 16 18 18 19 19 20 19 19 18 18 19 20 19 20 20 20 18 19 19 20 21 20 21 19 17 18 19
1 2 2 3 4 5 6 7 7 8 8 9 9 9 11 13 12 11 13 16 17 18 19 19 19 19 19 19 19 19 19 20 19 19 21 20 19 19 18 19 19 19 19 18 17 13 16
1 2 2 3 3 4 5 7 7 7 8 9 9 9 11 13 12 10 14 16 18 18 18 20 19 20 19 19 19 19 19 18 18 17 18 19 18 18 18 18 18 19 18 18 18 16 17
1 1 2 2 3 3 5 7 6 7 8 8 8 10 12 12 11 12 15 17 18 17 17 19 19 18 19 18 20 19 19 17 17 18 18 20 20 17 18 19 19 18 18 17 18 17 17
1 2 2 2 2 4 4 6 6 7 8 8 9 13 11 12 13 15 17 18 17 18 17 19 20 19 19 19 18 19 19 19 15 17 19 17 19 17 18 17 17 18 19 19 18 17 15
1 1 1 1 1 4 5 6 6 7 7 7 11 12 9 11 14 14 15 17 17 18 19 18 19 19 18 18 18 18 17 14 14 17 18 17 18 17 17 17 17 18 18 18 16 16 16
1 1 1 2 1 3 4 6 6 7 8 10 12 12 10 10 14 17 17 18 18 16 18 17 17 17 17 17 16 16 16 14 13 15 12 15 17 18 18 19 19 17 17 17 18 16 17
1 1 1 1 2 1 4 6 7 8 9 10 12 15 14 13 14 16 18 18 18 17 17 17 18 19 19 17 17 16 16 15 14 12 14 16 17 16 15 15 16 17 17 17 17 18 16
1 1 1 2 0 1 3 5 7 8 9 9 13 13 11 15 15 16 14 17 18 17 18 18 19 18 18 18 19 17 17 17 17 14 16 14 16 14 14 14 14 15 16 17 17 18 17
1 1 1 0 1 1 3 5 7 8 9 10 12 13 15 9 15 16 16 18 18 18 14 16 18 17 17 16 14 15 14 15 16 16 15 15 14 14 15 12 13 12 15 17 17 17 17
0 0 0 0 2 3 5 6 7 7 9 12 13 14 14 13 14 16 17 17 17 18 17 14 16 17 12 11 13 13 13 13 13 12 13 12 13 11 12 9 12 18 15 16 17 18 18
0 0 1 2 3 5 5 6 7 8 10 11 13 15 14 8 14 15 16 17 14 14 14 14 11 11 11 12 15 14 13 11 11 11 12 13 12 9 11 14 16 18 15 14 14 17 18
0 1 2 4 5 5 6 7 8 9 10 11 13 15 16 11 12 15 15 15 15 15 13 10 8 9 11 12 13 13 14 15 13 12 10 11 11 13 9 12 13 16 14 12 14 15 15
2 2 4 5 5 6 7 8 8 9 10 12 13 14 15 13 11 13 15 14 14 15 14 11 10 10 10 11 11 13 14 13 14 12 8 9 8 10 10 11 14 15 13 12 14 15 14
4 5 5 6 7 7 8 9 9 10 11 12 13 14 14 12 10 11 13 12 12 14 14 11 12 11 11 11 12 13 11 13 13 14 12 12 11 9 9 10 11 12 12 14 15 14 12
5 5 6 7 7 8 9 9 9 10 11 12 13 13 14 13 9 11 12 13 14 13 13 11 14 13 14 13 10 9 8 6 11 14 11 13 14 14 14 15 13 12 14 13 11 11 12

GFSGBSN_850_temp_033.txt.gz
Temp
10 9 9 10 10 10 10 11 11 12 12 12 12 12 12 12 12 13 13 13 12 12 12 13 13 13 13 13 17 18 19 19 19 18 18 20 21 22 23 24 24 24 25 25 24 22 22
9 9 9 9 10 10 10 11 11 12 12 12 12 12 12 12 12 12 12 13 12 12 12 13 13 13 12 16 19 18 19 19 18 18 19 20 21 22 23 24 24 24 25 24 24 23 23
10 9 9 9 10 10 10 10 10 11 12 12 12 11 11 11 12 12 13 13 12 12 13 13 13 12 11 17 19 18 18 18 19 19 20 20 21 21 22 23 23 24 24 24 23 24 24
10 10 9 8 9 9 10 10 10 10 11 11 11 11 11 11 12 12 12 12 12 12 13 13 13 11 14 18 18 19 19 19 19 19 19 20 20 20 21 22 22 24 24 23 24 24 24
9 10 9 9 8 9 10 10 10 10 10 11 11 11 12 11 12 12 12 12 12 12 13 13 12 11 18 19 19 20 20 20 19 19 19 18 19 21 21 22 23 24 22 23 23 24 25
8 8 8 8 9 9 10 9 9 10 10 10 10 11 11 11 12 12 12 12 12 13 13 13 10 12 17 20 20 20 20 20 19 19 19 19 21 22 22 23 22 22 22 23 24 24 25
7 6 5 5 8 9 9 9 9 9 10 10 10 10 11 11 12 12 12 12 12 12 13 15 18 19 20 20 20 20 20 20 20 20 22 21 22 22 23 23 23 23 23 24 25 24 24
8 5 4 5 6 7 7 8 9 9 9 10 10 10 10 11 11 11 11 12 15 14 17 16 16 17 18 19 21 21 21 21 22 22 22 22 21 23 23 24 23 23 24 23 23 23 23
4 6 4 4 5 6 7 8 9 9 9 9 10 10 10 11 11 11 12 12 13 13 16 19 18 18 20 19 21 22 21 22 23 21 20 20 19 22 22 23 23 24 23 23 23 23 23
2 2 3 3 5 6 7 8 8 9 9 9 9 10 10 11 11 11 12 14 13 12 17 20 20 20 20 20 21 21 21 22 21 20 22 20 22 22 22 23 24 22 23 23 23 22 22
2 2 2 3 3 5 6 7 8 8 8 9 9 9 10 10 9 11 13 13 12 13 17 22 22 21 21 21 22 21 21 22 22 22 22 21 22 22 22 22 23 22 22 23 23 23 22
2 2 2 2 3 4 6 7 7 8 8 8 9 9 9 10 11 12 12 12 12 16 17 20 21 21 21 21 22 22 21 21 22 22 22 21 22 23 23 22 22 22 22 22 23 23 21
1 2 2 2 2 3 5 6 7 8 8 8 9 9 9 11 11 11 12 12 17 16 21 20 21 22 22 21 21 22 22 22 22 20 20 22 22 22 22 22 22 23 22 20 19 20 20
0 1 1 2 2 3 4 5 6 8 7 8 8 8 9 10 9 11 11 16 16 20 21 22 22 22 21 22 22 21 22 22 23 22 22 21 20 22 22 22 23 22 23 20 19 20 21
-1 0 1 2 2 3 4 5 6 7 7 7 7 8 8 11 10 10 13 15 18 21 22 21 21 20 21 22 21 21 21 22 23 23 21 21 20 21 21 22 22 22 21 22 20 17 18
-1 -1 0 1 2 2 3 4 6 7 7 7 7 6 9 10 11 9 14 16 19 22 22 22 20 21 20 21 20 21 21 23 22 21 22 22 20 21 20 21 21 21 22 20 20 18 18
-1 -1 0 1 1 2 3 4 5 6 7 7 7 9 12 9 11 11 15 17 20 20 20 21 21 21 22 21 21 21 22 21 21 21 22 23 22 20 20 20 22 20 20 21 21 20 19
-1 -0 -0 0 1 2 3 3 4 6 7 6 8 12 9 10 12 13 16 19 20 21 20 21 21 22 21 22 21 22 22 22 21 21 21 22 22 20 20 21 21 21 22 21 19 19 19
-1 -1 -0 0 1 2 2 3 3 5 6 5 9 11 9 10 13 15 17 19 20 21 20 20 20 22 22 21 20 21 22 17 17 20 21 21 20 19 19 20 20 20 21 21 21 19 18
-1 -1 -0 0 1 1 1 2 3 4 6 7 11 13 9 10 15 17 17 18 19 20 21 21 21 21 21 21 21 20 20 17 16 19 15 17 20 20 19 21 22 20 21 21 20 18 19
-0 -0 -0 0 1 2 1 2 3 4 6 7 12 15 14 13 16 18 18 19 19 19 20 20 21 21 20 20 20 19 20 17 16 14 17 19 19 20 21 20 20 20 21 20 20 20 19
-1 -0 -0 1 1 1 1 2 3 4 6 6 13 16 15 16 16 17 16 19 19 20 20 20 21 21 22 21 20 20 20 19 19 17 18 18 18 18 17 19 18 18 20 20 21 21 21
-1 -1 0 1 1 1 2 1 4 5 5 7 11 15 16 15 17 17 18 19 20 21 18 21 21 21 20 20 19 18 19 20 20 19 18 18 17 16 16 16 16 13 17 19 20 21 20
-0 0 0 1 1 2 2 1 3 5 6 10 12 14 15 15 17 17 19 19 20 20 19 19 20 20 16 16 16 16 17 17 17 16 18 16 16 15 14 10 11 20 19 19 19 20 21
0 0 1 1 1 1 1 1 3 5 6 9 12 14 16 11 17 18 18 19 20 18 19 18 15 16 15 17 17 15 15 13 15 16 16 17 16 13 12 15 18 19 19 18 17 19 20
0 0 1 1 1 1 0 1 2 5 7 8 11 12 15 15 16 18 18 19 18 18 16 13 13 13 14 17 15 16 16 17 16 15 15 15 15 15 13 12 11 17 17 16 17 16 18
0 0 0 0 1 2 2 2 4 6 7 7 10 13 16 17 17 17 18 18 18 18 18 13 12 12 13 14 12 15 16 17 16 14 9 11 11 12 13 12 15 18 16 15 15 15 16
-0 0 1 1 2 2 3 5 6 7 8 6 10 14 16 15 14 14 16 17 17 18 16 14 14 14 15 13 14 15 14 16 16 17 14 13 13 10 13 10 11 16 16 15 15 16 15
-0 1 1 1 3 5 5 6 6 8 8 7 10 13 14 14 11 10 13 14 15 16 18 14 18 16 16 16 14 13 10 9 14 15 16 15 16 16 16 16 16 16 16 15 14 14 14

GFSGBSN_850_temp_036.txt.gz
Temp
10 10 10 10 10 10 10 10 10 10 10 11 12 12 12 13 13 12 13 13 13 13 13 13 14 14 14 13 17 19 19 19 19 18 18 20 21 22 23 24 24 24 25 25 23 23 23
11 11 10 9 10 10 10 10 10 10 10 10 12 12 12 12 13 12 12 13 13 13 13 13 13 13 13 15 20 19 19 19 18 18 19 21 22 22 23 24 25 25 25 24 23 23 24
12 11 11 10 9 9 9 10 10 10 10 10 11 11 11 12 12 12 12 13 13 13 13 13 13 13 11 16 19 19 18 18 19 19 21 21 22 22 23 23 24 24 24 24 24 24 23
11 11 11 11 9 9 9 10 10 10 9 9 10 11 11 11 12 12 12 13 13 13 13 13 13 12 13 19 19 19 20 20 20 20 20 21 21 21 21 22 23 23 24 22 23 25 23
12 11 11 11 11 9 8 8 10 10 9 9 10 10 11 11 11 12 12 12 13 13 13 13 13 12 16 19 19 20 20 21 20 20 20 20 20 21 22 22 22 23 21 22 23 24 23
11 11 11 11 11 10 8 9 9 10 9 9 9 10 11 11 11 12 12 13 13 13 13 13 12 13 17 20 21 21 21 21 21 20 20 20 21 22 22 22 18 20 22 22 23 24 24
10 10 11 9 9 10 9 8 9 9 9 9 9 10 10 11 11 11 11 13 12 11 11 16 18 17 21 21 21 21 21 21 21 21 21 21 21 21 22 22 22 22 22 23 24 25 24
9 9 9 10 8 8 10 8 9 9 8 9 9 9 10 10 11 11 11 11 16 14 16 17 17 18 19 19 21 22 22 22 22 21 18 21 21 20 21 22 22 23 22 21 24 24 24
5 7 8 8 8 8 8 8 8 8 8 9 9 9 10 10 11 11 12 13 14 13 16 20 19 19 20 20 21 22 22 22 21 19 19 18 20 20 22 22 22 23 23 22 23 24 24
3 2 4 7 7 6 7 9 7 8 8 9 8 9 9 10 11 12 11 14 14 12 16 21 20 20 20 21 22 22 23 23 18 18 19 17 20 21 22 22 23 22 22 23 23 23 21
2 1 2 2 4 5 5 7 7 7 8 8 8 8 9 9 10 12 14 14 13 13 15 23 21 21 21 21 23 22 22 22 22 21 21 17 17 20 21 21 22 21 21 22 24 23 20
1 1 1 2 2 2 3 6 7 7 7 8 8 8 8 9 10 13 12 13 13 15 15 21 22 22 22 22 23 23 22 22 22 22 22 19 18 16 21 22 23 23 22 23 23 22 16
0 1 1 1 1 2 2 4 6 7 7 8 7 8 9 8 10 12 12 12 15 15 22 21 21 22 22 22 22 23 22 22 21 20 20 22 21 22 21 21 23 23 22 19 14 14 18
-1 -0 1 1 1 2 2 3 5 6 7 8 7 7 9 8 10 9 11 12 15 19 20 23 22 22 21 22 22 22 22 21 22 22 21 20 18 22 23 23 18 17 22 19 15 11 18
-1 -1 -0 1 2 2 2 2 4 5 7 7 7 7 7 10 9 9 11 12 16 20 22 22 22 21 21 22 22 22 21 22 23 23 21 18 18 20 22 24 23 22 21 22 20 18 17
-2 -1 -0 0 1 2 2 2 4 4 6 7 7 5 8 10 9 8 11 13 17 21 22 23 21 22 21 22 21 21 21 23 23 24 21 16 12 17 21 22 22 21 23 20 20 18 17
-2 -1 -1 -0 0 1 2 2 3 4 5 6 6 7 10 8 8 9 12 15 17 20 22 22 21 21 22 22 22 21 22 23 23 23 22 20 17 19 20 21 21 21 20 21 21 21 18
-2 -1 -1 -1 -1 0 1 2 3 3 5 5 6 9 12 9 9 12 13 16 18 20 22 21 22 22 22 22 22 21 21 22 23 23 21 22 21 19 21 22 23 22 21 21 17 18 19
-2 -2 -1 -1 -1 -0 1 2 3 3 4 5 7 10 9 11 11 13 14 16 19 20 21 21 21 22 23 22 21 22 22 19 20 22 20 21 20 18 19 21 22 21 22 22 22 19 18
-2 -2 -1 -1 -1 -1 0 2 3 3 4 5 9 10 9 9 13 15 15 16 18 20 21 21 21 22 22 21 22 21 21 18 18 20 17 19 20 20 18 20 21 20 21 22 21 16 17
-2 -1 -2 -1 -1 -1 0 2 2 3 3 5 9 12 11 10 12 15 17 17 18 19 20 21 21 21 21 20 21 20 21 18 18 16 18 19 18 20 21 21 21 20 21 21 21 20 18
-2 -1 -1 -1 -1 0 0 1 1 3 3 4 9 14 13 14 13 15 15 17 19 20 20 20 21 22 21 21 21 20 21 19 19 17 19 19 18 18 18 20 20 19 20 21 21 21 21
-1 -1 -1 -1 -0 0 1 1 1 2 2 3 7 12 14 14 14 15 16 18 19 20 21 21 21 21 21 21 20 20 20 21 21 19 18 19 17 16 15 17 16 13 17 19 20 21 21
-1 -1 -0 -0 -0 0 1 1 1 2 2 4 6 11 13 13 15 16 17 18 20 20 20 21 21 21 18 18 18 18 19 19 19 19 20 18 17 14 14 11 13 19 21 20 19 20 21
-1 -1 -0 -0 -0 0 1 1 2 2 2 4 7 10 12 10 16 17 18 19 20 20 20 20 17 18 18 18 16 15 14 13 16 18 18 19 15 12 11 14 17 18 20 19 18 18 19
-1 -1 -0 0 0 1 1 1 1 1 2 5 6 7 10 13 15 17 18 19 18 16 16 15 16 17 18 17 15 15 15 17 17 16 17 16 17 13 12 13 12 17 18 18 18 16 17
-0 -0 0 1 0 1 1 1 1 2 2 4 5 7 9 12 16 17 18 18 18 15 15 15 13 14 15 13 11 15 16 19 16 14 9 11 11 10 12 11 14 18 17 16 15 14 16
0 0 0 1 1 1 1 1 2 2 4 4 7 7 8 11 17 17 18 19 19 16 14 15 15 15 15 13 14 15 13 16 17 18 13 12 12 9 12 9 10 17 17 15 15 15 15
0 0 0 1 1 1 1 1 2 3 4 4 5 10 10 9 13 14 15 16 17 17 16 14 17 16 16 16 14 14 10 9 13 15 19 15 16 15 14 14 16 17 16 16 15 14 14

GFSGBSN_850_temp_039.txt.gz
Temp
12 11 10 10 10 10 10 10 10 10 10 10 11 12 12 12 12 13 13 13 13 13 13 13 13 13 14 13 18 19 19 19 19 18 19 19 19 20 19 20 21 20 22 21 21 20 18
12 12 12 11 10 10 10 10 10 10 10 10 10 11 11 12 12 12 13 13 13 13 13 13 13 13 13 12 19 19 20 19 19 19 19 19 20 21 21 21 20 23 23 23 19 19 19
12 12 12 12 12 10 9 9 10 10 10 10 10 11 11 11 12 12 12 12 13 13 13 13 13 13 13 18 19 18 18 19 19 19 19 20 21 21 21 19 21 23 22 21 19 19 17
12 12 12 12 12 12 10 9 9 10 10 10 10 10 11 11 12 12 12 12 13 13 13 13 13 12 14 19 19 19 19 19 19 19 20 20 20 21 21 21 21 22 20 19 22 19 18
12 12 12 12 12 12 11 10 9 9 10 9 9 10 11 11 12 12 12 12 13 13 13 13 13 11 13 18 19 20 20 20 20 20 20 20 20 20 20 18 16 19 18 20 21 20 19
11 11 12 12 12 12 12 11 9 9 9 9 9 9 10 11 11 11 12 13 13 13 13 13 12 10 17 19 20 21 20 21 21 20 20 20 20 17 17 16 16 17 19 18 20 19 19
10 9 10 11 12 11 11 11 10 9 9 9 9 9 10 10 11 11 12 13 13 12 12 15 16 17 18 19 21 21 21 21 21 20 17 18 17 16 17 19 20 20 18 19 20 21 19
7 9 9 10 11 11 10 11 11 9 9 9 8 9 9 10 10 11 11 12 13 12 12 15 16 15 17 18 20 21 21 21 20 16 16 14 15 17 19 20 20 18 18 19 21 23 20
2 5 6 8 9 11 10 9 10 9 9 9 8 8 9 10 10 11 11 14 14 13 12 16 18 17 18 19 20 20 21 21 17 16 16 15 17 19 20 19 20 19 19 20 20 22 22
2 2 4 4 5 6 9 8 8 9 8 9 8 8 9 10 10 10 13 14 15 12 10 17 18 19 19 20 20 21 21 22 18 18 16 17 18 18 18 19 20 19 21 20 20 20 18
0 1 1 2 2 2 4 5 6 8 8 8 8 8 9 9 10 10 12 13 13 12 11 19 19 20 20 20 21 21 22 22 17 17 17 16 17 17 16 19 21 19 20 20 19 19 18
-0 0 1 1 1 2 2 2 4 6 7 7 8 8 8 9 10 12 12 13 13 11 12 20 20 20 19 20 21 21 22 22 22 19 18 17 18 16 19 20 20 20 21 19 17 16 15
-0 -0 0 1 1 1 2 2 2 5 6 7 7 8 8 9 10 10 11 12 11 11 19 20 19 20 19 19 20 20 20 19 17 17 16 18 19 18 18 18 19 19 18 14 13 12 13
0 0 0 0 1 1 1 2 2 3 5 6 7 8 8 9 10 10 10 10 11 16 17 21 20 19 18 19 19 20 19 17 18 18 17 16 15 18 20 18 17 19 17 14 13 12 13
-0 -1 -0 -0 1 1 1 1 2 2 4 5 7 7 7 10 10 8 9 11 12 16 19 20 20 18 18 19 19 19 18 17 18 19 17 16 16 17 18 17 20 20 17 18 14 12 10
-1 -0 -1 -1 1 0 1 1 1 2 3 5 6 6 7 10 9 8 9 11 13 17 19 19 18 19 17 19 19 18 18 19 19 20 17 15 15 15 17 18 20 20 19 16 14 14 14
-1 -1 -0 -1 -1 -0 1 2 2 2 3 4 5 6 7 8 8 7 9 11 13 16 18 19 19 19 19 18 18 18 19 20 20 18 16 14 15 14 15 16 17 18 18 18 17 14 13
-1 -1 -1 -0 -1 -1 0 2 2 2 2 3 5 6 9 8 7 8 9 11 14 16 17 17 20 20 19 19 18 18 18 19 22 20 18 16 14 12 15 17 19 20 18 16 11 16 13
-2 -2 -1 -1 -1 -0 0 1 2 2 3 3 6 8 8 9 8 7 10 11 13 15 16 18 19 20 20 18 18 18 17 18 19 19 18 18 16 12 15 17 18 19 19 19 17 12 14
-2 -2 -1 -1 -2 -1 -0 1 1 2 3 4 6 7 7 7 11 10 10 11 12 15 16 18 19 19 19 19 19 19 16 17 18 16 17 18 17 15 13 16 18 17 17 18 16 9 13
-2 -2 -0 -1 -1 -1 -0 -0 1 2 2 4 5 9 10 8 8 10 11 13 13 14 16 18 18 18 18 17 19 19 16 16 17 16 18 16 15 18 17 17 19 19 18 18 18 15 13
-2 -1 -1 -1 -1 -1 -1 -0 0 1 2 2 5 10 11 11 10 10 11 12 14 15 16 17 17 18 18 18 17 17 17 16 15 15 16 16 14 17 16 17 16 16 17 17 17 18 18
-2 -2 -1 -1 -2 -1 -0 -0 0 1 1 3 3 9 11 10 10 10 11 14 14 16 17 19 18 17 17 18 19 19 20 18 17 14 14 14 13 10 13 12 13 10 14 16 16 17 17
-2 -1 -1 -1 -1 -1 -0 -0 -0 1 1 3 3 6 10 9 10 11 13 14 15 15 15 19 20 16 18 19 19 18 17 16 15 14 16 13 13 8 8 8 9 13 18 18 17 16 15
-1 -1 -1 -1 -1 -1 -1 -0 -0 1 1 2 4 4 8 4 11 12 13 14 15 17 16 18 18 19 19 17 11 12 9 12 15 16 16 13 9 8 8 7 12 15 16 17 15 14 14
-1 -1 -1 -1 -1 -1 -1 -1 0 1 2 2 3 5 6 8 10 13 13 15 14 13 12 13 16 17 19 12 7 11 9 13 13 14 12 12 10 7 7 7 7 11 16 17 17 11 14
-1 -1 -0 -0 -1 -0 0 0 1 1 1 2 2 4 5 8 12 13 13 14 15 12 9 11 13 14 16 4 7 7 9 14 11 10 9 6 7 6 4 5 8 14 16 16 11 10 14
-1 -1 -0 -0 -0 -0 0 0 1 1 2 3 3 4 5 7 11 13 15 16 16 14 10 12 10 11 9 8 7 7 6 9 11 12 9 8 6 4 6 6 8 16 15 12 11 14 14
-1 -1 -0 -0 -0 -0 0 1 1 1 2 4 3 4 5 5 8 11 15 16 17 17 14 12 13 13 13 9 7 5 8 5 9 8 13 9 9 8 9 8 12 16 14 13 13 12 12

GFSGBSN_850_temp_042.txt.gz
Temp
12 12 12 12 11 10 9 10 10 10 9 10 10 11 12 12 13 13 13 13 13 13 13 13 13 14 14 15 18 19 19 19 19 19 19 18 18 18 18 19 19 18 19 20 18 18 17
12 12 12 12 12 11 10 10 10 10 9 9 10 10 11 12 12 13 13 13 13 13 13 13 13 14 13 13 18 18 18 19 19 19 19 19 19 19 19 19 19 20 20 18 19 19 18
12 12 12 12 12 12 12 11 10 9 9 9 9 10 11 11 12 12 13 13 13 13 13 13 13 13 13 18 18 18 18 18 19 19 19 19 19 18 20 18 21 20 19 17 17 17 17
11 12 12 12 12 12 12 12 11 9 9 10 10 9 10 11 12 12 12 13 13 13 13 13 13 12 15 18 18 19 18 19 19 19 20 20 19 20 20 20 19 19 18 16 16 17 20
11 11 12 12 12 12 12 12 11 10 9 9 9 9 9 10 11 12 12 12 13 13 13 12 12 11 16 18 19 19 19 19 19 19 20 19 19 19 20 17 15 16 17 18 18 19 19
9 10 11 12 12 12 12 12 11 11 9 9 9 9 9 10 11 12 12 12 13 13 13 12 12 11 17 19 19 20 20 20 20 20 19 19 19 15 15 14 15 17 18 18 18 18 18
3 5 9 10 11 12 11 11 11 11 10 9 9 9 8 9 10 11 12 13 13 12 12 14 15 16 17 19 19 20 20 21 20 19 17 17 14 15 16 16 17 18 18 17 17 18 18
2 2 3 7 9 10 11 11 11 11 11 9 9 8 8 9 10 11 11 12 12 11 11 14 15 14 17 17 16 20 20 20 19 16 15 15 15 16 17 18 18 18 18 16 17 18 18
1 2 2 3 4 5 9 10 10 11 10 9 8 8 8 8 10 11 11 12 11 12 11 14 16 16 18 18 17 19 20 20 16 16 15 15 17 18 18 18 18 18 17 16 17 19 19
1 1 1 2 2 3 3 6 9 9 9 9 8 8 8 8 10 11 12 11 13 13 10 13 15 18 18 19 18 20 21 20 17 16 15 16 17 17 17 17 18 16 17 18 19 17 16
2 1 1 1 1 2 3 2 3 6 8 9 8 7 8 8 10 11 11 11 12 12 10 17 17 19 20 19 20 20 21 20 16 16 16 16 17 17 17 17 19 17 19 18 19 18 16
1 1 1 0 1 1 2 2 3 3 6 7 7 7 7 8 10 12 11 11 12 12 10 17 19 17 18 19 19 21 21 21 21 16 17 17 17 16 17 19 19 19 18 16 14 15 15
0 1 1 1 0 1 1 2 2 2 4 5 6 6 7 8 9 11 11 11 10 10 16 17 17 17 17 17 18 18 19 18 17 15 15 17 16 17 18 18 18 18 16 13 12 11 13
1 0 1 1 1 1 1 1 1 2 2 4 5 6 7 8 8 9 10 10 10 13 14 18 18 17 17 17 17 18 18 16 17 16 14 14 15 18 17 17 17 17 16 12 15 12 14
-0 0 1 1 0 1 1 1 0 1 2 2 4 5 7 8 8 9 9 10 10 12 16 17 18 16 16 17 18 17 16 15 17 16 15 15 15 16 17 17 18 18 16 16 12 11 9
0 0 1 1 1 1 1 1 1 1 2 2 3 4 6 7 8 7 8 10 12 14 16 17 17 16 15 16 16 16 16 17 17 17 17 15 15 15 17 18 18 17 18 16 13 14 14
0 1 0 0 0 -1 0 0 1 1 2 2 3 5 6 7 7 6 8 10 12 15 15 15 16 17 17 16 16 15 17 18 17 17 16 14 15 15 16 16 17 16 16 17 14 12 12
-0 -0 -0 -0 -0 -0 0 0 1 1 1 2 3 6 7 7 6 6 8 10 12 14 15 14 15 16 16 16 16 16 17 18 18 16 16 14 12 13 16 17 16 16 16 15 10 15 11
-1 -1 -0 -1 -0 -1 -0 1 0 1 2 2 4 6 7 8 7 6 9 11 11 13 14 14 16 16 18 17 16 16 17 17 18 17 15 14 13 12 14 15 16 16 17 16 13 10 12
-1 -1 -1 -1 -1 -1 -0 1 0 1 2 2 5 6 6 6 9 8 8 9 10 12 12 13 13 15 15 18 16 17 15 17 16 16 17 17 14 13 12 14 15 16 17 16 14 9 12
-1 -1 -1 -1 -1 -1 0 0 0 0 1 2 5 7 8 7 7 9 9 9 9 11 13 14 14 14 14 16 17 15 15 16 16 16 17 15 15 15 15 16 17 18 17 16 16 15 13
-1 -1 -1 -1 -1 -1 -1 0 0 0 1 1 5 7 8 8 8 7 9 9 10 11 13 14 14 15 15 16 15 15 15 14 15 15 16 14 14 16 16 14 15 16 16 15 16 16 15
-1 -1 -1 -1 -1 -1 -1 0 -0 0 2 2 3 7 8 9 8 7 8 10 11 12 13 14 15 15 14 15 18 18 19 18 15 13 13 13 11 9 12 11 12 9 13 15 16 16 16
-2 -1 -1 -1 -1 -1 -0 -1 -0 -0 1 2 3 5 6 8 9 8 10 11 11 12 12 15 15 14 16 18 17 17 15 14 14 12 14 11 10 6 7 8 9 13 14 15 12 12 12
-2 -1 -1 -1 -1 0 -0 -1 -0 -0 0 1 3 3 5 5 10 10 10 11 12 13 13 14 16 17 18 16 10 11 8 11 14 12 14 12 7 7 7 7 11 14 15 14 13 13 13
-2 -2 -2 -1 -0 1 0 -1 -1 1 0 1 2 3 4 6 8 11 10 11 11 10 12 13 15 17 16 8 7 10 9 11 12 13 11 9 7 7 5 7 8 11 14 15 13 9 12
-2 -2 -2 -1 -0 1 0 -0 -1 1 0 0 1 2 3 5 9 11 11 10 12 12 10 11 14 14 14 4 6 7 8 12 10 9 8 6 5 6 2 5 7 10 14 15 11 10 12
-2 -1 -2 -1 -0 -0 0 -0 -1 0 0 0 1 2 2 4 6 8 12 12 13 13 9 11 11 10 7 8 7 6 5 8 8 10 9 9 6 4 5 4 9 13 14 12 10 12 12
-1 -1 -1 -1 -1 -1 -1 -1 -0 -0 -0 0 1 2 2 3 5 6 10 12 12 14 14 11 13 12 11 9 6 4 6 3 7 8 10 10 8 7 8 7 10 13 13 13 13 12 11

GFSGBSN_850_temp_045.txt.gz
Temp
11 11 11 11 11 10 9 9 9 10 10 10 10 10 11 12 12 12 12 12 13 13 13 14 14 14 14 15 18 18 18 18 19 18 18 18 18 17 17 17 18 17 18 18 18 17 16
10 11 11 11 11 11 10 10 9 10 10 10 10 10 10 11 12 12 12 12 12 13 13 13 13 14 13 12 18 18 18 18 18 18 18 18 19 18 17 18 18 19 16 16 16 17 17
11 10 10 11 11 11 11 11 11 11 10 10 10 10 10 10 11 12 12 12 12 13 13 13 13 13 13 17 18 18 18 18 18 18 19 19 19 18 19 18 19 19 17 16 16 17 18
10 10 11 10 10 11 11 11 10 11 11 9 9 10 10 10 10 11 12 12 12 12 12 13 13 13 15 18 18 19 19 19 19 19 19 19 19 19 18 19 18 18 16 16 17 17 19
5 10 9 11 11 10 11 11 11 11 11 10 9 9 10 10 10 11 11 12 12 13 12 13 12 12 15 17 18 19 19 19 19 19 19 19 19 19 18 16 14 15 17 16 17 17 17
3 4 8 10 10 10 11 10 11 11 10 10 9 9 9 10 10 10 11 12 13 13 13 12 11 12 17 18 18 19 19 19 19 19 18 19 18 14 13 14 14 16 16 16 16 17 17
2 3 3 4 9 10 10 10 10 11 11 10 8 8 9 9 9 10 11 12 12 12 11 14 15 15 17 17 18 20 20 19 19 19 16 16 14 15 15 15 15 16 17 17 17 18 17
2 2 2 2 3 6 7 9 10 10 11 11 9 8 8 8 9 10 10 11 10 9 10 14 15 14 16 16 15 19 19 19 18 16 15 14 15 15 16 16 17 17 18 17 18 17 16
3 2 2 2 2 3 3 4 7 7 9 10 10 8 8 8 8 9 11 10 10 11 10 13 14 15 17 17 16 19 19 20 16 14 14 14 16 17 17 17 18 17 17 17 17 17 17
2 2 2 1 1 2 2 3 3 4 6 8 9 8 7 7 8 9 11 10 12 12 9 12 13 16 16 17 17 19 19 20 16 15 14 15 16 17 17 17 17 17 17 16 16 17 16
0 2 2 2 1 1 2 2 3 3 3 5 7 7 6 7 9 10 10 10 11 11 10 15 15 18 18 18 19 19 20 19 16 15 15 15 15 16 17 17 17 17 18 17 17 16 16
1 1 2 2 2 1 1 1 2 3 3 4 5 5 6 7 8 11 10 10 11 9 9 15 17 15 16 18 18 19 19 20 18 15 16 16 16 16 16 18 17 18 18 15 13 13 14
1 1 1 2 2 2 1 1 1 2 2 2 4 5 6 7 7 9 10 10 10 9 14 16 16 15 15 15 17 18 18 16 15 15 15 16 16 17 17 17 17 17 15 13 12 11 13
1 1 1 1 2 2 2 1 1 1 2 2 2 4 5 6 7 8 9 10 9 11 12 15 17 15 15 16 16 16 16 15 16 15 12 14 14 16 17 17 17 17 15 12 15 11 13
1 1 1 0 2 2 1 1 2 1 1 2 2 3 4 6 7 8 8 9 10 11 15 15 16 15 15 16 16 16 15 14 15 15 15 13 14 16 16 17 17 16 15 15 11 10 9
1 1 1 1 1 1 1 1 1 1 1 2 2 3 4 6 7 7 7 10 11 13 15 14 15 15 14 15 15 15 14 16 16 15 16 15 16 15 16 17 17 17 16 15 11 15 14
1 1 1 1 0 1 1 1 1 1 1 2 2 3 5 6 6 5 6 9 11 13 14 13 14 15 15 14 14 14 15 16 15 15 15 14 15 15 16 15 16 16 15 15 13 11 12
2 2 1 1 0 -0 1 0 1 1 1 1 1 3 5 5 6 6 6 9 11 13 13 13 14 13 15 14 14 14 15 16 18 15 15 14 12 12 15 16 16 16 15 14 10 14 10
1 2 1 1 -0 -0 0 0 0 1 1 2 2 4 5 5 7 7 8 9 11 12 12 12 13 14 14 15 15 14 14 16 17 14 13 13 12 12 14 15 15 16 15 14 12 9 11
1 1 1 1 -0 0 -0 0 0 1 0 1 3 4 5 5 8 8 8 8 9 11 11 12 12 13 15 15 15 14 15 16 15 16 17 15 12 13 13 14 15 16 16 15 13 8 11
1 1 1 1 -0 0 0 -0 0 3 0 1 3 6 7 6 6 7 8 8 9 10 11 13 11 11 13 13 16 15 14 15 15 14 14 14 14 14 14 15 16 16 16 14 14 13 12
1 1 1 0 -0 -0 -0 -0 -1 1 0 1 3 6 7 7 8 7 8 8 9 10 11 11 11 14 13 12 14 14 13 13 14 15 15 13 12 15 14 13 14 16 15 14 14 15 13
1 1 1 0 -0 -0 -0 -0 1 1 -0 1 2 5 7 8 7 7 8 8 9 10 10 11 12 12 12 13 15 16 17 16 14 13 12 12 10 9 12 10 12 9 12 13 14 14 14
1 1 0 -0 -1 -1 -0 -0 1 1 0 1 2 4 5 6 7 7 8 9 9 10 10 11 12 11 13 16 15 14 14 13 12 11 12 10 9 6 7 7 8 13 13 13 12 12 11
1 0 -0 -1 -1 -0 -1 -0 0 1 -0 -0 2 3 4 3 7 8 8 8 10 10 10 11 13 14 14 14 11 11 7 12 12 10 11 10 6 6 8 7 10 13 12 12 12 13 12
0 -0 -1 -1 -1 -1 -1 -0 0 0 -1 -1 1 2 3 4 7 9 8 9 8 8 8 10 12 14 14 8 6 10 10 11 11 12 9 8 6 7 5 8 8 11 12 14 12 9 12
-0 -1 -1 -1 -1 -0 -1 -0 -0 -1 -0 -0 0 2 3 3 7 9 8 8 10 9 8 9 12 12 13 5 5 7 8 11 9 9 8 5 5 7 2 5 7 9 13 14 11 10 12
-1 -1 -1 -0 -0 -0 -0 -1 -1 -0 -0 -1 -0 2 2 3 4 6 9 10 10 10 8 9 11 10 5 7 7 6 5 8 8 10 9 9 6 4 3 4 9 11 12 11 10 11 13
-1 -1 -1 -1 -1 -1 0 -0 -0 -0 -0 -1 -0 1 1 2 3 3 6 8 8 9 11 11 12 10 11 8 5 5 5 2 7 7 10 11 9 7 8 7 9 11 12 14 14 13 12

GFSGBSN_850_temp_048.txt.gz
Temp
9 10 11 11 11 11 10 9 9 9 9 9 9 10 10 10 11 11 12 12 13 13 13 14 14 14 14 15 17 18 18 18 18 17 17 18 18 17 16 16 17 16 17 17 16 16 16
7 8 10 10 10 11 11 10 9 9 8 8 9 9 10 10 10 11 12 12 12 13 13 13 13 13 12 12 18 18 18 18 17 17 18 18 18 18 17 16 17 17 15 16 16 16 17
7 8 8 8 10 10 11 11 11 10 9 8 8 9 9 10 9 10 11 12 12 12 13 13 13 13 12 16 18 18 18 18 18 18 18 18 18 18 18 17 18 18 17 16 16 16 16
3 4 7 9 10 10 10 10 10 11 10 10 9 9 8 9 9 9 10 11 12 12 12 13 12 12 13 17 18 18 18 18 18 18 18 18 18 18 17 18 17 17 16 16 17 16 17
3 3 3 4 7 9 11 10 10 10 10 10 11 9 8 9 9 9 10 10 12 12 13 13 12 12 14 17 18 19 18 18 18 18 18 18 18 17 17 15 14 13 15 16 17 16 16
3 2 2 3 3 4 7 10 11 11 10 10 10 9 8 8 8 9 9 10 12 13 13 12 10 11 16 17 17 18 18 18 18 18 18 18 17 13 12 13 14 16 16 15 15 18 17
3 3 2 2 3 3 3 3 7 10 11 11 10 9 8 8 8 7 8 10 12 11 11 14 13 14 16 17 17 18 19 19 18 18 16 15 14 14 14 15 15 16 16 16 16 17 16
1 2 3 3 2 2 3 3 3 4 9 10 10 10 8 8 8 8 8 9 10 9 9 14 14 13 15 15 15 18 18 18 17 15 15 14 14 14 15 15 15 16 16 15 17 16 16
1 0 2 3 2 2 2 2 3 3 3 9 9 10 8 7 7 7 8 10 9 9 8 12 14 13 15 16 16 18 18 19 16 14 14 13 16 15 16 17 17 17 16 17 17 15 16
1 1 1 2 3 3 2 2 2 3 3 4 8 8 7 6 6 7 8 9 10 10 9 12 12 14 14 16 16 18 18 19 16 15 13 14 15 16 16 16 16 16 17 17 16 15 14
1 1 1 1 2 2 3 2 2 2 3 3 4 5 6 5 7 8 9 9 10 10 9 14 13 15 15 17 18 18 18 18 15 14 14 15 15 15 15 16 16 16 17 17 16 14 15
1 1 2 1 1 2 2 2 1 2 2 3 3 4 4 5 6 9 9 9 10 9 9 14 15 14 14 16 17 17 18 18 17 14 15 15 15 15 15 17 16 17 17 14 12 12 13
1 1 1 1 1 1 2 2 2 1 1 2 2 3 4 4 5 7 7 9 9 8 13 15 14 14 14 14 16 16 15 15 14 14 14 15 15 16 16 16 16 16 14 12 11 11 13
1 1 1 1 1 1 2 2 2 1 1 1 2 2 4 4 6 6 7 8 9 11 11 14 15 14 14 14 15 15 15 14 15 14 11 13 14 15 16 16 15 16 14 11 15 11 13
2 1 1 1 1 1 1 2 2 2 1 1 2 2 2 4 6 6 7 8 11 10 13 14 15 14 14 15 15 15 14 13 14 13 14 12 14 15 16 16 16 15 14 14 10 9 9
1 1 1 1 1 1 1 2 1 2 1 1 2 1 2 4 5 6 6 9 11 12 13 13 14 14 13 13 15 14 13 14 15 13 15 14 15 15 16 16 16 16 14 13 10 14 14
1 1 1 1 1 1 1 1 2 1 1 1 2 2 3 3 5 6 7 8 10 13 13 12 12 13 14 13 13 13 13 16 14 13 15 13 14 14 15 15 15 14 14 12 12 10 12
1 1 1 1 1 1 1 1 1 1 1 1 1 1 4 4 5 6 7 8 10 12 12 12 12 12 14 13 13 13 14 15 16 14 14 13 12 12 14 15 15 14 14 12 10 13 9
1 1 1 1 1 1 1 1 1 1 1 1 2 3 4 5 5 6 8 8 9 11 11 11 12 12 13 15 15 13 13 16 16 14 13 13 12 12 13 13 14 15 14 13 10 8 10
2 1 1 1 2 1 1 1 1 0 0 1 1 2 4 4 7 7 7 8 8 10 10 11 11 12 13 13 13 14 14 15 14 14 15 15 11 12 13 13 13 14 14 12 12 8 10
1 1 1 1 2 2 1 0 1 1 0 1 1 3 5 4 5 6 8 8 8 9 10 11 10 10 12 13 13 14 14 14 14 13 13 13 13 12 13 14 14 15 14 12 13 12 12
1 1 1 1 1 1 1 0 0 1 0 0 1 3 6 6 6 5 6 8 8 8 9 10 10 10 11 11 13 14 14 13 13 12 12 11 13 13 13 13 13 15 14 12 13 13 12
1 1 1 1 1 1 1 0 -0 0 0 0 1 4 6 7 5 5 6 7 8 9 10 11 11 11 10 11 13 14 14 15 13 12 11 11 9 9 12 10 12 9 12 12 13 12 13
1 1 0 1 1 1 0 0 -0 1 -0 1 0 3 4 4 6 6 7 7 8 9 9 10 11 10 12 13 14 13 11 11 12 11 11 9 9 6 6 7 9 13 12 13 12 12 11
1 1 0 1 1 0 0 -0 0 0 0 0 1 2 4 3 6 7 7 7 8 9 8 10 11 11 12 12 10 11 8 12 11 8 9 8 6 6 8 7 10 13 11 11 12 12 10
1 1 1 1 0 0 0 0 -0 -0 -0 -1 1 1 2 4 5 8 7 8 7 7 7 9 10 11 11 8 8 10 9 11 11 11 9 8 6 8 4 7 8 10 12 12 12 10 9
2 1 1 1 0 -0 -0 -0 -0 0 -1 -1 0 1 1 3 6 7 7 7 8 7 6 7 9 10 11 3 5 8 10 10 9 10 8 6 5 6 1 5 7 9 12 13 11 10 11
1 1 0 -0 -0 -0 -1 -0 -1 -0 0 -0 -0 1 1 2 3 5 7 8 8 8 5 7 7 8 5 7 7 7 4 7 8 9 9 9 7 4 3 4 9 11 11 11 10 12 13
0 0 -0 -0 -0 -1 -1 -1 -1 -1 -0 -0 -1 -0 1 2 3 4 6 6 7 8 9 9 9 8 9 7 4 3 5 2 7 8 9 10 9 8 8 8 10 11 11 13 14 13 12

GFSGBSN_850_temp_051.txt.gz
Temp
8 8 10 10 10 10 10 10 10 10 9 8 9 8 8 9 9 9 9 10 11 12 12 13 13 14 14 14 17 18 18 18 18 17 17 17 17 17 17 17 16 16 17 16 16 16 15
5 8 7 9 10 10 10 10 10 10 10 9 8 8 8 8 8 9 9 10 10 11 12 12 13 13 13 12 17 17 17 18 17 17 17 17 18 18 17 17 17 17 16 15 15 15 15
3 4 6 5 7 9 9 10 10 10 10 10 10 8 8 9 8 8 9 9 10 11 12 12 12 13 13 16 17 17 17 17 17 17 18 18 17 17 17 17 18 17 18 17 17 16 17
3 3 3 3 3 5 6 8 8 10 10 10 10 10 10 9 9 9 9 9 9 11 12 12 12 12 13 17 17 17 17 18 18 18 18 17 17 17 17 17 17 18 17 18 18 17 16
2 3 3 3 3 3 4 5 6 8 10 10 10 10 10 9 8 8 9 9 9 10 12 12 11 12 14 16 17 18 17 18 18 18 17 17 17 16 16 17 17 16 18 17 18 17 17
1 2 2 3 3 2 2 3 4 6 7 10 10 10 10 9 8 7 8 9 10 11 12 11 10 11 15 16 16 17 17 18 18 18 17 16 16 16 15 16 17 17 18 18 18 18 17
1 1 1 2 3 3 2 3 3 4 6 9 10 10 10 9 7 7 7 8 10 10 9 13 14 14 16 16 16 17 17 18 17 17 16 15 17 17 17 15 16 16 17 17 17 17 18
1 1 1 1 1 2 3 2 3 3 3 5 9 8 8 8 6 6 7 7 9 8 7 12 13 13 15 15 14 17 17 17 17 16 15 16 16 16 15 15 16 16 17 17 17 17 17
2 2 2 1 2 1 2 3 2 2 3 3 5 8 8 7 5 6 6 8 8 8 7 11 13 13 15 15 14 16 17 18 16 15 15 15 17 15 16 16 16 17 17 17 17 17 16
1 2 2 2 2 1 1 2 2 2 2 3 3 4 7 5 6 7 7 8 8 8 8 12 11 13 14 15 15 17 17 18 15 16 14 15 15 15 16 16 16 16 16 17 17 17 18
1 2 2 1 2 2 1 2 2 2 2 2 3 3 3 4 6 7 8 8 9 8 10 14 12 14 13 15 17 16 18 18 15 15 15 16 15 15 16 16 16 17 16 17 17 16 16
2 1 1 2 2 2 1 2 2 2 2 2 2 3 2 4 6 8 8 8 8 9 9 14 13 12 13 14 16 15 17 17 16 14 14 15 15 15 17 16 16 16 16 15 14 15 15
2 2 2 1 2 2 1 1 2 2 2 1 2 2 2 3 5 8 7 7 9 9 13 14 14 13 14 14 15 15 15 15 16 14 14 15 16 16 16 17 16 16 16 16 15 15 16
2 2 2 2 1 1 2 1 1 2 1 2 2 2 2 3 4 6 6 7 9 11 11 14 14 13 14 14 15 15 14 15 14 15 13 16 15 16 15 17 17 16 16 15 15 15 16
1 2 2 2 2 1 1 1 1 2 2 1 2 2 2 2 4 5 6 8 10 10 12 13 15 14 13 14 15 15 14 15 15 14 16 13 15 15 15 16 17 16 16 15 13 10 13
2 1 1 1 1 1 1 1 1 2 2 1 1 1 1 2 3 5 6 9 10 12 13 13 13 14 13 14 14 15 13 14 15 14 15 15 15 15 15 16 15 16 15 15 13 14 14
1 1 1 1 1 1 1 1 1 2 1 1 1 1 2 2 3 4 6 8 10 12 13 12 12 12 14 13 14 13 14 15 15 13 15 14 16 15 15 16 17 15 15 13 15 14 15
1 1 1 2 1 1 1 1 1 2 1 1 1 2 2 2 3 6 6 8 10 11 12 12 12 12 13 13 13 13 14 16 15 14 15 14 14 13 16 15 15 15 16 15 15 14 12
0 1 1 1 2 1 1 1 1 1 1 1 1 1 2 3 4 5 7 8 9 10 11 11 11 12 12 13 14 13 13 15 14 14 14 13 13 14 15 15 14 15 14 14 12 11 12
-0 0 1 1 1 1 1 1 1 1 1 0 1 1 2 2 6 7 6 7 8 9 10 11 11 11 12 13 12 14 13 14 14 14 15 15 12 14 15 16 15 14 14 13 14 13 14
-0 -0 0 1 1 1 1 1 1 1 1 0 1 2 3 3 4 6 7 8 8 8 10 10 10 11 11 12 13 13 13 13 13 13 13 14 14 13 13 14 14 15 15 13 14 15 15
-0 0 0 1 1 1 1 1 1 1 0 -0 0 2 4 5 5 5 6 7 7 8 10 10 10 10 11 11 12 13 13 13 13 11 12 12 14 12 13 13 13 14 14 14 14 14 13
-0 -0 0 1 1 0 1 1 0 1 0 1 1 4 5 5 4 4 5 7 8 9 9 10 10 11 10 11 12 13 13 13 13 13 11 11 11 11 13 11 13 12 13 14 14 13 15
1 0 0 1 1 1 1 1 0 1 0 0 1 3 4 4 4 5 6 6 8 9 8 9 10 10 11 12 13 12 12 11 10 11 12 10 10 9 10 9 12 15 12 14 14 13 13
1 -0 0 1 1 1 1 1 0 1 1 1 2 3 4 4 5 5 6 6 7 8 8 9 10 11 11 12 9 11 10 10 10 9 10 10 9 9 10 12 12 14 13 13 14 16 13
0 1 1 1 0 2 1 0 0 1 1 0 1 2 4 4 4 6 6 6 7 7 7 8 10 11 11 8 8 9 10 11 11 10 8 7 8 11 7 11 12 13 13 12 13 14 12
1 1 1 0 0 1 1 0 0 1 1 -0 0 2 2 2 5 5 7 6 7 7 6 6 9 9 10 5 6 8 9 11 11 10 9 8 8 10 7 10 11 11 12 13 14 15 12
1 1 1 1 2 1 1 0 0 0 -0 -0 0 1 1 1 3 3 6 7 7 7 6 6 8 8 5 6 6 7 7 9 10 10 9 11 10 9 8 9 13 10 11 13 14 13 14
1 1 1 1 1 1 0 0 -0 -0 -0 -0 -1 -0 1 1 2 2 3 5 7 8 8 8 8 7 8 7 6 6 6 5 9 11 9 10 11 11 12 12 12 11 14 14 15 15 13

GFSGBSN_850_temp_054.txt.gz
Temp
5 5 7 7 8 9 9 10 11 11 11 10 10 9 9 8 8 8 10 11 10 11 12 13 13 13 13 13 16 18 18 18 17 17 16 17 19 20 21 21 20 20 22 20 20 18 19
4 4 4 4 6 7 8 8 9 10 11 10 10 9 9 7 7 8 8 10 10 10 11 12 12 12 12 14 17 17 17 17 17 17 16 17 19 19 20 21 21 21 20 20 19 19 19
3 3 4 3 4 4 5 8 9 9 10 11 10 10 10 9 7 9 9 9 10 10 11 12 12 11 11 14 17 17 17 17 17 16 17 17 17 18 19 21 19 20 20 21 21 20 20
2 2 3 3 3 3 3 4 7 9 9 10 10 10 10 10 10 9 8 9 10 10 11 11 12 11 11 16 17 17 17 17 17 17 16 17 17 18 19 19 21 21 21 22 21 21 20
1 1 1 2 3 3 3 3 3 7 7 9 10 10 10 10 10 9 9 9 10 10 10 11 11 11 13 15 16 17 17 16 17 17 17 17 17 19 19 21 21 21 21 21 21 22 21
1 1 1 1 1 2 3 3 2 3 5 6 8 10 10 10 10 9 8 9 10 10 11 11 9 10 14 16 15 16 17 16 17 16 16 17 19 20 21 21 20 21 21 22 21 22 21
2 2 2 2 2 1 2 3 3 3 3 4 6 8 9 10 10 8 8 8 9 10 8 13 13 14 15 15 16 16 17 16 17 18 20 19 20 20 21 21 21 21 21 21 22 21 21
2 2 2 2 2 2 2 2 3 3 3 2 3 5 7 7 9 9 7 7 8 8 10 11 12 12 13 15 15 16 16 17 18 20 20 19 20 21 20 20 19 20 21 21 21 21 20
2 2 2 2 2 2 2 2 2 3 3 2 2 3 3 6 8 8 7 7 7 7 10 13 12 13 13 13 15 18 16 18 19 20 19 20 21 19 19 20 19 20 20 21 21 21 22
1 1 1 1 2 2 2 2 2 2 3 3 2 2 2 4 6 7 7 8 8 8 12 16 13 13 13 15 16 17 17 19 19 20 20 20 21 19 19 19 20 20 21 20 20 21 20
2 2 2 1 1 2 1 2 2 2 3 3 2 2 2 2 5 6 7 8 9 8 13 17 14 13 13 16 18 17 17 18 20 19 19 20 19 19 19 20 20 20 20 20 20 21 20
2 2 2 2 2 2 2 2 2 2 2 3 2 2 2 2 4 6 7 8 9 13 13 16 15 14 14 15 17 17 17 17 20 20 19 21 18 20 21 20 20 20 20 20 20 20 19
2 2 2 2 2 2 2 2 2 2 2 2 2 2 2 2 4 6 7 7 12 13 16 17 16 15 16 16 18 18 18 18 19 18 18 19 19 20 19 20 19 20 20 18 18 18 18
2 2 2 2 2 2 2 2 2 2 2 2 2 2 2 2 3 5 6 9 12 15 16 16 16 16 16 17 18 18 19 18 20 20 20 19 18 19 20 20 20 20 20 19 17 17 19
2 2 2 2 2 2 2 2 2 2 2 2 2 1 2 2 3 4 6 9 13 15 16 16 17 16 15 16 18 18 19 19 20 20 19 19 19 20 20 20 20 19 19 20 18 15 17
2 2 2 2 2 2 2 2 2 2 1 2 1 1 2 3 3 3 6 10 14 16 16 16 16 17 16 15 15 18 18 19 20 20 21 19 19 19 18 19 19 20 21 18 19 17 17
2 2 2 2 2 2 2 2 2 1 1 2 0 1 2 4 2 2 6 10 13 14 15 15 16 16 16 16 17 17 18 18 20 19 21 20 20 17 18 18 20 18 19 19 20 19 18
2 2 2 2 1 2 2 2 1 1 1 1 0 2 2 2 2 3 6 10 13 14 14 14 15 15 15 16 17 18 18 19 19 20 18 20 19 18 19 19 19 21 20 20 18 17 18
0 1 0 -0 0 1 1 2 1 1 1 0 1 1 2 2 3 3 6 9 12 13 14 14 14 15 15 15 15 17 18 19 17 19 19 19 18 18 18 18 18 19 20 20 20 18 18
0 -0 -0 0 0 -0 1 1 1 1 1 0 0 2 2 2 6 6 6 8 10 11 14 14 15 15 14 14 14 15 16 16 16 19 18 18 20 19 18 19 20 18 19 20 19 18 18
-0 -0 -0 0 0 0 1 1 0 1 1 0 0 2 3 2 5 8 8 9 10 11 12 13 13 14 14 14 14 15 15 15 14 14 17 19 18 19 20 20 21 20 20 20 19 19 19
0 0 0 -0 0 0 0 1 1 1 0 0 0 4 4 6 5 7 8 8 10 11 12 12 13 14 14 15 15 13 14 15 16 15 17 18 18 18 18 19 19 19 20 20 20 20 20
1 1 0 -0 -0 0 1 1 0 1 0 0 1 4 6 6 6 6 8 8 9 11 12 13 13 13 13 14 14 14 13 13 15 16 16 16 17 17 17 17 18 14 17 19 20 19 20
1 0 0 0 0 0 1 1 0 0 0 1 2 3 5 7 7 6 8 9 10 11 11 12 13 13 12 12 12 12 12 13 14 15 16 15 16 16 16 11 13 19 19 20 20 20 21
1 1 1 1 0 0 0 0 0 0 0 1 1 3 5 5 8 7 7 8 9 10 11 11 12 12 12 12 12 11 12 10 14 15 14 16 16 14 13 15 18 17 16 17 18 19 21
0 1 1 0 0 0 0 1 1 0 -0 0 2 3 4 7 7 8 7 8 9 10 10 11 11 10 11 10 11 12 13 13 13 13 12 13 13 15 12 15 14 19 20 18 19 18 21
0 1 1 0 0 0 1 1 1 0 -0 1 1 2 3 5 7 7 6 7 8 10 10 10 10 10 11 11 9 11 12 14 13 13 10 11 11 12 14 14 17 19 18 16 17 18 20
0 0 1 0 0 1 1 1 1 0 0 0 1 2 3 5 5 6 6 7 8 9 9 10 10 10 10 10 11 11 11 13 14 16 13 13 13 11 14 12 14 15 15 18 20 18 18
0 1 1 1 1 1 1 1 0 -0 0 1 0 2 2 3 2 2 2 3 4 9 10 9 11 12 11 11 11 12 9 9 14 13 14 13 15 15 15 17 18 15 19 17 17 19 15

GFSGBSN_850_temp_057.txt.gz
Temp
4 4 4 4 5 6 8 9 10 10 11 10 10 11 10 9 9 8 8 10 11 11 11 11 12 12 14 15 18 18 18 18 18 18 17 19 20 21 23 24 23 23 24 24 23 23 22
3 3 4 4 4 4 5 6 8 10 10 11 11 10 10 10 9 9 9 11 11 12 11 11 11 12 11 16 18 17 18 18 17 17 18 19 21 22 22 23 23 23 23 24 23 23 23
2 2 3 3 4 4 3 4 5 7 9 10 10 10 10 10 10 10 11 11 11 11 11 11 11 11 10 14 16 17 17 17 17 18 19 19 20 20 22 23 23 22 23 24 22 23 24
2 2 2 2 3 4 4 3 3 3 5 8 9 10 10 10 11 11 11 11 11 10 10 11 11 10 12 16 16 16 16 17 17 18 18 19 19 20 21 22 22 23 24 22 13 18 23
2 2 2 2 2 2 3 3 3 3 3 5 6 8 10 10 10 11 11 11 11 10 10 11 10 9 15 16 16 16 17 18 18 18 18 18 19 20 22 22 23 23 22 21 20 23 23
2 2 2 2 2 2 2 2 3 3 3 2 3 5 8 10 10 10 11 11 10 11 10 9 9 11 14 17 17 17 17 17 18 18 18 18 20 22 23 23 22 23 22 23 21 19 23
1 2 2 2 3 3 2 3 3 3 4 3 3 3 4 9 9 10 10 9 10 10 9 14 16 16 17 18 16 18 18 17 19 19 20 20 21 21 23 24 23 23 23 23 20 20 23
1 1 2 2 2 3 2 2 2 3 3 3 3 3 2 3 7 9 9 10 12 9 13 14 14 14 16 16 18 18 18 18 19 20 21 22 21 23 24 22 22 22 22 23 24 24 23
1 1 1 2 2 2 2 2 2 2 3 3 3 3 2 2 4 8 7 10 9 9 12 15 16 16 16 16 16 19 18 19 21 20 22 21 23 23 22 22 21 22 22 23 23 23 23
2 2 2 2 2 2 2 2 2 2 2 3 3 3 3 2 4 6 8 9 9 8 13 18 17 16 16 16 17 18 19 20 21 21 22 22 23 22 21 21 22 21 23 23 22 22 22
2 2 2 2 2 2 2 2 2 2 2 2 3 2 3 2 5 8 10 9 8 8 14 20 19 16 17 17 21 19 19 19 21 21 22 21 22 21 21 22 23 22 22 22 22 22 23
2 2 2 2 2 2 2 2 2 2 2 2 3 2 2 3 3 7 8 8 8 13 14 19 18 17 17 17 20 21 19 19 21 22 22 22 23 23 23 23 22 23 21 22 22 22 20
2 2 2 2 2 2 2 2 2 2 2 2 2 3 2 3 3 5 6 7 12 13 19 19 18 18 18 18 19 21 20 19 20 19 20 21 21 22 22 21 22 22 21 19 18 20 20
2 2 2 2 2 2 2 2 2 2 2 2 2 2 3 2 3 5 5 7 12 16 18 19 20 19 18 20 19 20 20 19 20 21 21 20 20 21 22 21 22 21 22 19 17 18 20
2 2 2 2 2 2 2 2 2 2 2 2 2 1 2 2 3 4 3 7 13 17 20 19 19 18 19 20 20 20 19 19 20 22 20 21 21 23 23 23 23 22 21 23 20 20 19
2 2 2 2 2 2 2 2 2 2 2 2 1 2 2 3 2 4 3 6 12 17 19 19 18 19 19 19 19 20 19 21 21 22 23 22 20 22 22 22 22 22 22 20 20 17 17
2 2 2 2 2 2 2 2 2 2 2 1 1 1 3 2 3 3 4 8 12 15 18 18 18 19 20 20 20 19 20 21 21 22 22 22 21 21 21 20 21 20 20 21 22 21 17
1 1 2 2 2 2 2 2 2 2 1 1 1 2 3 3 2 4 6 10 11 14 14 18 18 18 20 20 19 19 19 20 20 21 20 22 21 19 20 22 23 22 21 21 19 19 20
1 1 1 2 2 2 2 2 2 2 1 1 1 2 2 2 3 4 7 10 12 13 15 16 17 18 19 19 18 19 20 20 20 20 21 21 20 19 20 20 21 21 22 22 21 21 18
0 0 0 1 1 2 2 2 2 2 2 1 1 2 2 2 5 7 9 9 11 10 13 15 16 17 18 17 18 18 19 18 19 19 20 20 20 19 19 20 21 20 21 22 21 19 19
0 0 0 0 1 1 1 2 2 1 1 1 0 3 3 3 4 7 9 10 11 11 12 13 14 16 17 17 18 17 18 17 16 17 18 20 19 20 21 22 22 22 21 21 21 21 20
0 0 0 0 0 0 1 1 0 1 1 1 -0 5 5 7 4 7 8 10 12 12 13 13 13 14 17 17 18 17 17 17 16 17 18 20 19 20 20 21 21 21 22 22 22 22 22
0 1 0 0 0 -0 -0 0 0 0 1 1 0 5 6 7 6 7 9 10 11 12 13 14 15 14 15 17 16 15 14 14 15 15 18 19 18 19 18 20 20 18 20 21 22 22 22
1 1 1 1 0 0 -0 0 0 0 1 1 1 5 5 7 6 9 9 10 11 13 13 14 14 15 14 15 13 14 13 14 13 15 16 17 18 18 17 13 15 19 22 22 21 22 23
1 1 1 1 0 0 -0 0 -0 1 0 0 1 5 6 6 8 9 9 10 11 11 12 14 14 14 13 13 11 12 12 10 13 13 15 17 17 16 15 16 18 20 20 21 21 21 23
1 1 0 1 0 0 -0 -0 -0 0 0 -0 2 4 6 7 9 9 10 10 10 11 11 12 13 13 12 11 11 12 13 15 14 13 15 15 16 15 15 15 15 19 21 22 22 19 23
1 0 0 -0 0 0 0 -0 -0 -0 -0 -0 1 3 5 7 8 8 8 9 10 11 11 12 13 12 12 11 10 12 14 17 14 12 11 12 13 13 14 15 18 21 22 22 18 19 22
0 0 1 1 0 0 0 0 -0 -0 -0 0 1 3 5 6 7 7 8 7 9 11 11 11 12 11 11 9 11 13 13 15 15 16 14 12 13 12 14 14 14 19 20 19 21 21 21
1 1 1 1 1 0 1 0 0 1 0 1 1 3 4 4 4 4 3 4 5 9 11 11 11 12 13 12 13 14 12 12 14 14 18 15 16 15 17 17 19 18 19 20 20 21 21

GFSGBSN_850_temp_060.txt.gz
Temp
3 4 4 4 4 4 4 6 8 10 10 11 11 11 11 11 11 10 10 11 12 12 12 12 12 12 13 15 17 18 18 19 18 18 18 19 20 21 22 24 24 24 24 24 24 24 24
3 3 3 4 4 4 4 4 4 6 8 10 11 11 11 10 11 11 11 11 11 11 11 11 11 11 10 13 18 18 18 18 18 18 18 19 21 22 23 23 23 24 24 24 21 21 22
3 2 3 3 3 3 4 4 4 3 4 6 9 10 11 11 11 11 11 11 11 11 11 11 10 10 9 13 18 18 17 17 18 18 19 20 21 21 22 23 23 24 23 23 19 20 20
3 3 3 3 3 2 3 3 4 4 3 3 4 7 9 10 11 11 11 11 11 11 11 11 10 10 11 16 17 17 18 18 18 19 19 20 21 20 21 22 23 23 23 22 19 21 22
2 3 3 3 3 3 3 3 3 3 4 3 3 3 4 9 11 11 11 11 11 11 11 11 10 10 13 16 16 17 18 18 19 19 19 20 20 20 21 21 21 23 22 23 20 20 20
1 2 2 2 3 3 3 3 3 3 3 3 3 3 2 3 8 10 11 11 11 12 9 9 9 11 13 16 18 17 18 18 19 19 19 19 20 20 21 21 20 22 23 24 22 21 21
1 1 1 2 2 2 3 3 3 3 3 3 3 3 3 2 3 6 10 11 11 9 9 13 15 14 17 18 18 18 18 18 19 20 19 20 19 19 21 23 23 23 23 23 22 23 22
1 1 1 2 2 2 2 3 3 3 3 3 3 3 3 2 3 3 6 7 13 11 12 14 14 14 15 17 17 18 19 19 19 20 20 20 19 21 23 24 23 22 22 23 24 23 22
2 2 2 2 2 2 2 3 3 3 3 3 3 4 3 3 2 4 6 9 11 10 12 14 15 16 16 16 17 19 19 19 20 19 20 20 21 23 23 23 22 22 22 22 23 21 23
2 2 2 2 2 2 2 2 2 3 3 3 3 3 3 3 4 6 7 9 10 10 11 16 18 18 17 17 18 18 20 20 20 20 21 21 23 23 22 22 22 21 24 23 23 22 21
2 2 2 2 2 2 2 2 2 2 2 3 2 3 3 2 5 6 8 9 10 9 11 21 21 18 19 18 20 18 19 20 20 21 21 21 22 22 21 22 23 22 23 22 22 22 22
2 2 2 2 2 2 2 2 2 2 2 2 2 2 3 3 3 8 8 9 9 11 12 19 18 18 18 18 19 21 19 20 20 21 22 22 23 23 23 23 23 23 23 22 22 21 19
2 2 2 2 2 2 2 2 2 2 2 2 2 2 2 3 3 5 5 8 10 11 18 19 19 19 18 18 18 20 20 19 19 18 19 21 22 23 23 22 23 22 21 19 17 18 19
2 2 2 2 2 2 2 2 2 2 2 2 2 2 2 2 4 4 4 6 10 15 15 21 21 20 18 19 18 18 20 19 20 20 20 19 18 22 23 22 21 21 21 19 17 14 18
2 2 2 2 2 2 2 2 2 2 2 2 2 1 1 2 3 4 4 6 10 14 18 17 20 19 19 20 20 19 20 20 21 21 19 19 19 23 23 23 22 21 20 22 20 16 15
2 2 2 2 2 2 2 2 2 2 2 2 2 1 2 2 3 3 4 6 10 14 17 19 17 20 19 20 19 19 20 21 21 22 22 20 19 22 23 23 23 22 23 20 21 16 17
1 2 2 2 2 2 2 2 2 2 2 1 1 2 3 3 3 3 4 6 9 12 14 15 16 17 19 20 20 20 20 21 22 22 21 21 20 21 23 22 21 21 20 21 21 20 18
1 2 2 2 2 2 2 2 2 2 2 1 1 2 2 3 3 3 5 7 9 12 13 15 16 17 17 20 19 19 20 21 22 22 20 21 20 19 20 22 22 22 21 21 19 19 19
1 1 1 1 2 2 2 2 2 2 2 1 1 2 2 3 3 3 6 7 9 10 13 15 15 16 16 18 17 19 19 22 21 21 21 20 19 18 20 21 22 21 21 21 21 21 19
1 1 1 1 2 1 2 1 2 2 2 2 1 2 2 2 5 6 6 8 8 9 12 14 15 16 16 15 16 17 19 21 20 20 20 19 19 19 17 18 21 20 21 22 20 17 18
0 0 0 0 1 1 1 2 3 2 2 1 1 2 3 3 3 7 8 9 9 9 11 12 14 15 15 13 13 15 18 17 20 19 19 19 18 19 20 21 22 21 21 21 21 20 16
-0 -0 -0 0 0 0 1 1 1 2 2 2 -0 3 5 8 5 6 7 9 9 11 11 12 13 14 15 13 13 13 15 14 15 19 18 19 18 18 17 20 21 20 21 22 22 22 22
-0 0 0 0 0 0 0 1 1 1 2 2 1 3 6 6 6 5 6 8 9 11 12 13 13 14 15 14 14 8 9 11 18 18 17 17 17 17 16 19 20 17 20 22 22 23 22
0 0 1 1 1 1 0 0 1 1 1 2 1 3 3 5 6 6 7 8 9 11 11 13 14 13 15 15 11 10 8 11 14 16 16 16 17 17 14 13 14 19 22 22 21 22 23
1 1 1 1 1 1 1 0 0 1 1 1 0 3 4 4 8 8 8 9 9 10 11 13 13 14 15 12 10 8 7 9 13 15 15 15 15 10 13 14 17 19 20 21 20 20 23
1 1 1 1 1 1 1 1 1 1 1 0 0 2 4 5 7 8 9 9 9 10 10 12 12 13 14 13 9 7 9 13 10 13 14 13 13 12 12 13 13 17 20 22 21 18 22
1 1 1 1 1 1 1 1 0 0 0 -0 -0 1 3 5 6 9 8 9 9 10 11 12 12 12 11 10 9 10 11 14 13 12 11 10 9 10 12 11 15 19 20 21 17 17 22
1 0 0 1 1 1 1 1 0 0 -0 -0 -0 1 2 4 6 5 5 6 8 10 10 11 11 10 6 8 10 11 11 13 14 16 12 11 10 9 11 11 12 19 20 18 19 21 21
1 1 0 0 1 0 0 0 -0 -0 -0 -0 0 1 1 4 4 5 5 7 7 7 9 11 11 9 10 9 12 12 11 11 14 12 17 13 14 12 12 14 18 18 19 20 20 19 20

GFSGBSN_850_temp_063.txt.gz
Temp
6 3 4 6 5 5 4 4 4 6 6 8 8 11 11 11 11 11 11 12 12 12 12 12 12 11 13 12 15 18 18 18 18 19 19 18 18 19 18 19 21 20 21 23 23 23 23
4 3 3 5 6 5 4 4 4 4 4 5 5 8 10 11 11 11 11 12 12 12 12 11 11 10 10 9 18 17 18 18 18 18 19 18 18 20 20 20 19 22 22 22 22 22 22
3 3 3 3 3 4 4 3 4 4 4 4 3 3 5 8 10 11 11 11 12 12 11 11 10 9 8 14 18 17 16 17 17 18 18 18 19 20 20 19 21 21 19 20 20 21 21
2 2 3 3 3 3 3 3 3 3 4 4 3 3 3 4 8 10 10 11 12 12 12 11 10 8 8 17 17 18 18 17 17 17 18 19 19 20 20 20 20 18 19 17 19 20 20
1 2 2 2 3 3 3 3 3 3 3 3 3 3 3 3 5 8 10 11 12 12 12 10 10 9 9 15 16 18 17 17 18 18 18 19 19 20 20 17 15 17 17 18 19 19 19
1 2 2 2 2 2 2 3 3 3 3 3 3 3 3 3 3 5 10 11 12 12 11 8 7 8 12 17 17 18 18 18 18 19 19 19 19 16 16 14 14 17 18 19 17 18 18
1 1 1 1 1 1 2 2 3 3 3 3 3 3 3 3 3 2 8 11 12 10 9 11 12 13 16 17 17 18 17 17 18 18 16 18 15 15 16 16 18 19 20 19 19 20 19
1 1 1 2 1 2 2 2 2 2 3 3 3 3 3 3 3 2 4 8 11 9 8 11 12 12 13 16 14 17 18 17 17 16 17 16 15 18 19 19 19 20 20 18 20 20 20
1 2 2 2 2 2 2 2 2 2 3 3 3 2 3 3 3 4 6 9 10 9 8 11 12 13 15 14 14 16 17 18 17 16 17 16 18 19 19 19 19 20 19 18 19 20 21
1 2 2 2 2 2 2 2 2 2 2 2 3 2 2 3 3 4 6 6 9 8 6 11 14 14 14 15 15 16 18 18 17 17 17 17 19 19 20 19 20 18 20 21 21 19 17
1 2 2 2 2 2 2 2 2 2 2 2 2 2 2 2 4 5 6 7 9 9 6 16 17 18 18 16 18 17 19 18 17 17 17 17 18 18 19 20 21 19 20 21 20 18 17
2 2 2 2 2 2 2 2 2 2 2 2 2 2 2 2 3 7 6 7 9 8 8 15 18 17 17 16 17 18 17 17 19 18 18 18 20 19 19 22 21 21 20 20 20 17 15
2 2 2 2 2 2 2 2 2 2 2 2 2 2 2 2 4 4 4 5 6 7 16 16 16 17 16 16 16 17 16 16 15 16 16 18 18 20 21 20 20 20 19 14 13 13 13
1 2 2 2 2 2 3 2 2 2 2 2 2 2 2 2 4 4 3 5 6 12 13 17 17 17 16 17 16 17 16 15 16 17 16 16 15 19 20 20 19 18 18 13 15 12 13
1 1 1 1 2 2 3 2 2 2 2 2 2 2 1 2 3 3 3 5 7 11 14 14 15 15 16 17 17 16 16 16 17 17 16 16 17 20 20 21 20 19 17 18 16 16 13
1 1 1 1 2 2 3 2 2 2 2 2 1 1 1 3 2 2 3 5 7 11 12 13 13 15 15 17 16 15 15 18 17 18 18 17 16 19 20 21 20 20 19 17 16 14 13
0 1 1 2 2 2 2 2 2 2 2 2 1 1 1 3 2 2 3 5 7 9 11 12 12 12 13 14 15 14 16 18 18 18 18 18 16 17 20 18 19 17 18 17 17 16 13
-0 0 1 1 1 2 2 2 2 2 2 2 2 2 2 3 2 3 4 5 7 9 9 9 11 12 12 12 13 14 14 14 19 19 18 18 16 15 17 20 21 19 19 17 13 16 15
0 0 1 1 1 1 2 2 2 2 2 1 1 1 2 3 2 3 4 5 6 7 8 9 10 12 13 12 12 14 15 16 16 18 18 17 17 14 15 18 19 19 18 19 18 16 14
0 0 1 1 1 1 1 2 2 2 2 2 1 1 2 2 4 4 4 4 5 7 7 9 9 10 10 11 13 13 13 14 12 17 19 18 15 16 14 16 18 17 18 19 18 13 15
0 0 1 1 1 1 1 2 1 2 2 2 0 1 3 3 2 3 4 6 5 6 8 8 8 8 10 10 12 12 13 12 12 15 16 17 16 17 16 18 19 18 18 19 18 18 16
0 0 0 1 0 0 0 0 1 2 2 2 -0 2 3 5 4 3 4 5 6 7 8 8 8 9 10 10 12 12 11 11 10 11 10 16 14 16 15 17 18 18 19 17 18 19 17
-0 -0 -0 -0 0 0 0 1 -0 1 1 2 1 3 4 4 4 3 4 4 6 7 8 8 9 8 8 10 13 11 10 9 9 9 9 11 13 13 14 16 17 14 16 18 18 19 18
-0 -0 -0 -0 -0 -0 0 0 0 1 -0 1 1 2 2 3 4 4 5 5 6 7 7 9 10 9 11 12 11 10 9 9 10 10 8 9 13 11 9 12 13 16 18 19 18 19 19
-0 0 0 0 -0 0 0 0 1 1 1 0 0 2 3 3 5 5 5 6 6 7 7 8 10 10 11 12 9 7 7 7 9 9 8 8 11 9 11 12 15 16 18 18 18 17 19
-0 0 0 0 0 1 1 0 0 1 1 0 -0 0 3 3 4 6 6 6 6 6 6 8 9 10 11 8 8 8 7 8 8 10 8 8 9 8 8 10 12 14 16 18 18 15 18
1 1 1 1 0 0 1 0 1 0 1 0 -0 0 1 2 5 7 6 6 7 7 7 8 9 9 11 6 6 5 7 9 8 7 7 6 7 7 8 8 9 15 17 19 15 14 19
1 1 1 0 1 1 1 1 1 1 0 0 -0 0 1 1 4 6 6 7 7 8 6 8 8 8 5 5 7 5 5 8 8 10 9 9 7 7 7 8 9 15 16 16 15 18 18
1 0 0 1 0 0 1 1 1 1 1 -0 -0 0 2 1 4 6 6 6 6 7 7 8 9 9 6 6 5 6 5 5 8 9 12 8 9 8 9 9 12 15 15 17 14 15 17

GFSGBSN_850_temp_066.txt.gz
Temp
3 3 4 6 7 6 5 5 6 5 4 4 4 5 8 10 11 11 11 12 12 12 12 11 11 12 12 11 16 18 19 18 18 18 18 18 18 18 16 18 18 18 18 20 21 22 19
3 3 3 3 3 3 4 4 4 5 5 5 4 4 4 6 10 11 11 12 12 12 11 11 11 11 10 7 18 17 18 17 17 18 18 18 18 19 18 18 17 19 19 19 20 21 20
3 2 3 3 3 3 3 3 4 4 6 4 4 4 4 4 6 9 11 11 11 12 11 10 10 9 7 14 18 17 17 16 17 16 17 18 18 17 18 17 19 19 18 17 18 20 20
2 3 4 3 3 3 3 3 3 3 5 5 4 4 3 3 4 6 10 11 11 11 11 10 9 8 8 17 17 17 17 16 17 17 16 18 18 18 18 19 18 17 17 16 18 19 20
2 2 2 2 2 2 2 2 3 3 3 3 3 4 3 3 3 4 8 11 12 11 11 9 8 7 10 15 16 18 17 16 17 17 17 18 17 17 18 16 14 15 14 16 17 17 19
1 1 2 2 2 2 2 2 2 3 3 3 3 3 3 4 3 3 6 11 12 12 11 9 6 7 13 15 16 16 17 17 17 17 17 17 18 15 13 13 13 14 15 16 16 17 17
0 1 1 1 2 2 2 2 2 2 3 3 3 3 3 3 3 3 5 9 10 9 8 9 9 11 14 15 15 17 17 17 16 17 15 17 14 14 13 14 16 16 16 15 17 17 17
0 0 1 1 2 2 2 2 2 2 2 3 3 3 3 3 3 3 4 6 6 5 5 9 10 9 12 14 12 17 16 16 16 14 15 15 14 16 15 15 15 16 16 16 17 20 17
0 0 1 1 2 2 2 2 3 3 2 2 2 3 2 2 3 4 4 5 5 5 5 9 11 11 13 12 11 14 15 17 15 14 14 14 16 17 16 16 16 17 17 17 17 18 18
-0 -0 0 1 2 2 2 2 2 3 3 2 2 2 2 2 3 4 5 4 5 5 5 9 11 12 12 13 12 16 16 17 15 15 15 14 17 17 16 16 17 16 18 19 19 17 16
-1 0 1 1 2 2 2 2 2 2 2 2 2 2 2 2 3 4 5 5 6 6 7 13 13 16 14 14 15 15 17 16 15 16 15 15 16 16 16 17 18 17 18 19 19 18 16
-0 1 1 1 1 1 2 2 2 2 2 2 2 2 2 2 3 4 5 5 6 7 6 12 16 14 13 14 16 17 15 16 17 16 16 16 18 17 17 18 18 19 19 18 17 15 14
-0 1 1 1 2 2 2 2 2 2 2 2 2 2 1 2 2 3 3 5 6 6 13 14 15 15 14 13 15 16 15 14 13 14 14 16 16 17 18 17 18 17 16 14 13 13 13
-0 1 1 1 2 2 1 1 2 2 2 2 2 2 2 2 3 2 2 4 6 10 11 14 14 15 14 14 14 15 15 13 14 14 14 14 14 16 17 17 17 16 16 12 14 12 13
-1 0 1 1 1 1 2 2 2 2 2 2 2 1 1 3 2 2 2 4 7 9 12 12 13 13 14 15 15 14 14 14 14 15 13 14 15 18 18 18 18 17 15 17 14 14 12
-1 -0 1 1 1 1 1 2 2 2 2 2 2 1 1 4 2 1 2 5 7 9 10 11 10 13 12 13 12 11 13 15 15 15 16 15 14 17 18 18 18 18 17 15 13 14 13
-0 -0 -0 0 1 1 1 2 2 2 2 2 2 1 1 2 2 1 2 5 7 8 9 9 10 9 11 12 13 13 12 13 14 16 15 16 15 15 17 17 17 17 16 16 15 14 12
-0 -0 -0 -0 -0 0 1 1 2 2 2 2 2 2 2 2 1 2 2 5 6 7 8 8 9 9 9 10 11 12 13 14 15 15 15 15 14 14 16 17 18 18 17 15 13 14 12
-1 -0 -0 0 0 0 0 1 1 1 1 1 1 1 1 1 1 1 3 4 5 6 7 7 8 9 10 9 9 11 12 14 13 13 14 15 13 13 14 15 17 16 17 18 15 13 13
-1 -1 -0 -0 0 0 0 0 1 1 1 1 -0 1 1 1 2 3 3 4 5 6 5 6 6 8 8 8 9 9 10 13 13 13 13 13 14 14 14 16 16 16 17 18 17 11 13
-1 -1 -1 -1 -0 -0 0 0 1 1 1 1 0 1 2 2 1 2 4 5 5 5 6 6 6 6 6 7 8 9 11 10 12 11 11 11 12 15 16 17 17 17 17 17 16 15 13
-1 -1 -1 -1 -0 -0 0 1 1 1 1 1 -0 1 1 2 4 2 3 3 4 5 6 6 6 7 7 6 7 7 9 10 11 11 10 10 10 13 14 15 17 17 17 16 16 16 16
-1 -1 -1 -0 -0 -0 0 1 1 1 0 1 1 2 4 4 3 2 3 3 5 5 6 6 7 7 6 7 9 9 10 10 10 10 9 9 8 9 11 14 16 13 15 16 16 16 16
-1 -0 -0 -0 -0 -0 0 0 -0 0 -0 0 2 1 1 2 3 3 4 4 4 5 4 7 7 6 8 9 9 9 8 9 9 9 10 8 8 8 7 10 11 15 16 16 16 17 18
-1 -0 -0 -0 -0 -0 0 -0 -0 0 -1 -0 0 1 1 3 3 4 4 5 5 5 5 6 7 8 8 9 7 7 6 7 7 8 8 9 7 6 8 10 13 14 16 16 16 15 16
-1 -0 -0 -0 -0 -0 -0 -0 0 0 -0 -1 -0 0 1 2 3 4 5 5 4 4 4 5 6 7 7 6 5 6 5 7 8 8 8 7 7 7 6 8 11 13 15 18 18 13 17
-0 -0 -0 -0 0 0 -0 0 -0 -0 0 -1 -0 -0 0 -1 3 4 4 4 5 5 3 5 6 6 8 3 2 4 6 9 7 7 6 5 5 7 7 8 8 11 13 17 14 14 16
0 0 0 1 0 0 0 0 0 0 -0 -0 -0 -0 -0 -0 1 4 5 6 5 6 4 5 5 6 4 4 4 4 3 7 7 8 7 6 6 6 6 7 8 13 14 14 12 15 17
1 1 1 1 1 1 0 0 -0 0 1 -0 -0 -0 -0 0 1 3 5 6 7 7 6 7 6 7 7 4 3 3 3 2 6 7 10 8 9 7 8 8 11 13 13 13 13 13 13

GFSGBSN_850_temp_069.txt.gz
Temp
3 3 3 3 4 4 4 4 5 6 6 4 4 5 6 6 7 8 10 11 11 10 11 11 12 12 13 11 16 18 17 17 17 18 17 18 17 17 16 16 17 16 17 19 20 19 18
2 2 3 3 3 3 3 3 4 5 6 5 5 4 5 6 6 7 9 10 10 10 10 10 11 11 9 6 17 17 17 17 17 17 17 17 18 18 17 17 16 18 18 18 19 20 17
1 2 3 2 2 2 3 3 3 3 3 3 4 4 4 4 6 6 9 10 10 10 10 10 10 10 7 14 17 16 17 16 16 16 17 17 17 17 17 16 18 18 16 15 17 18 17
2 2 2 2 2 2 3 3 3 3 3 3 3 3 3 3 4 6 7 10 10 10 10 9 10 8 7 16 17 17 16 16 16 16 16 16 16 16 16 18 17 17 16 15 17 18 18
1 1 1 2 2 2 2 2 2 2 3 3 3 3 4 4 4 5 5 9 11 10 11 9 8 8 8 14 15 16 16 16 16 16 16 16 15 16 16 14 13 13 13 15 16 17 17
1 1 1 1 2 2 2 2 2 2 2 3 3 3 3 3 3 4 5 9 11 11 10 8 6 7 13 15 15 15 15 16 16 16 16 15 16 13 11 12 12 13 14 15 15 16 16
0 0 1 1 1 2 2 2 2 2 2 2 3 3 3 3 3 4 7 8 8 7 6 10 9 11 14 13 14 15 15 15 14 16 13 15 13 12 14 13 15 15 15 14 14 16 16
-0 -0 0 1 1 1 2 2 3 3 3 3 2 2 2 2 3 4 4 3 4 3 3 7 9 8 12 12 10 16 15 14 14 13 13 14 13 14 14 14 14 14 14 13 15 16 15
-0 -0 -0 0 1 1 2 2 2 2 3 3 3 2 2 3 3 4 3 3 4 3 4 6 10 11 12 12 10 13 14 15 14 12 13 13 15 16 15 14 14 14 13 14 14 16 15
-0 -0 -0 -0 0 1 2 2 2 2 3 3 2 2 2 2 3 4 4 4 4 4 3 7 9 11 10 12 10 14 14 15 14 13 13 13 16 15 14 15 14 14 15 16 16 15 14
-1 -1 -1 -0 0 1 1 1 2 2 2 3 3 2 2 2 3 3 4 5 5 4 6 12 12 13 12 12 14 13 14 14 13 14 13 13 14 14 15 15 15 15 16 15 15 15 15
-1 -1 -1 -0 0 1 1 1 1 2 2 2 2 2 2 2 2 3 4 5 5 6 6 10 13 12 11 12 14 14 13 15 16 14 14 14 16 15 15 16 15 17 16 16 14 14 13
-1 -1 -1 -1 0 1 1 1 2 2 2 2 2 2 2 2 1 3 3 4 6 5 10 12 13 12 12 12 13 15 13 13 13 13 13 14 15 16 17 16 16 15 15 12 12 12 14
-1 -1 -2 -1 -0 1 1 2 2 2 2 2 2 2 3 2 2 2 2 4 5 8 9 11 13 13 13 13 13 14 12 12 13 14 12 13 12 15 16 16 15 14 14 11 14 12 13
-2 -1 -2 -1 -0 1 1 1 1 2 2 2 2 2 2 2 2 1 1 4 7 8 10 9 11 12 12 14 14 14 13 12 13 13 14 12 13 16 17 17 16 15 14 16 14 12 11
-2 -2 -2 -1 -1 0 1 1 1 2 2 2 2 2 2 2 1 1 1 4 7 8 8 9 9 9 9 11 12 12 12 14 14 14 14 14 13 15 16 16 16 16 16 14 12 13 12
-2 -2 -2 -1 -0 -0 0 1 1 1 1 1 2 2 2 2 1 0 1 3 6 7 7 6 8 8 8 9 10 11 12 13 13 14 14 15 13 13 16 14 15 15 16 15 14 11 12
-2 -2 -1 -1 -0 -0 0 0 1 1 2 1 2 2 2 2 1 0 1 3 6 6 6 7 7 8 8 8 9 11 12 13 13 13 14 13 12 13 14 16 17 16 15 14 12 13 11
-2 -2 -2 -1 -0 -0 0 0 0 1 1 2 1 1 1 2 2 0 2 3 4 5 6 6 7 7 9 9 8 9 10 12 12 12 13 12 11 12 13 14 15 15 15 16 13 12 13
-2 -2 -2 -1 -0 -0 0 0 0 0 1 1 -0 1 1 1 2 2 2 3 3 5 5 5 5 5 6 7 8 7 8 10 11 11 12 11 12 11 11 13 15 14 16 16 15 12 13
-2 -2 -1 -1 -1 -1 -0 -0 0 0 0 1 -0 1 1 2 2 3 3 4 3 4 5 6 5 5 5 4 6 6 8 9 11 11 11 10 9 10 11 12 14 15 16 16 16 15 13
-2 -1 -1 -1 -1 -1 -1 -0 -0 -0 -0 0 -1 1 1 2 2 2 3 3 4 4 5 5 4 5 5 5 6 6 7 8 9 10 10 9 9 8 9 12 14 14 16 15 15 15 15
-2 -2 -2 -2 -1 -1 -1 -1 -0 -0 -0 0 0 1 2 2 2 2 3 4 3 5 5 6 5 5 5 6 7 7 8 8 7 9 9 9 8 7 7 9 10 11 13 15 16 15 15
-2 -2 -1 -1 -1 -1 -1 -0 -0 -0 -0 0 1 1 1 2 2 3 4 4 4 4 4 6 5 5 6 7 7 7 7 7 7 8 9 7 7 6 7 8 9 12 14 15 15 16 15
-1 -1 -1 -1 -1 -1 -0 -0 -0 -0 -0 -0 1 1 2 2 3 4 4 4 4 4 4 4 6 7 7 7 5 5 5 6 7 7 7 8 6 6 6 8 10 11 14 14 14 15 15
-0 -1 -1 -1 -1 -1 -0 -0 -0 -0 1 1 0 0 1 2 2 4 4 4 2 3 3 4 5 6 6 5 4 5 4 6 7 8 9 7 7 7 6 7 8 11 12 13 14 12 14
-0 -0 -0 -0 -0 -0 -0 -0 -0 -0 -0 -0 -0 -0 0 0 3 3 3 3 4 4 2 4 4 4 5 2 2 3 4 7 7 6 6 5 5 7 6 7 7 9 11 12 10 11 15
-0 -0 -0 -0 -0 -0 -0 -0 -0 -0 -0 -1 -0 -0 -1 -0 1 2 3 5 5 4 3 4 5 4 2 2 2 3 1 5 6 7 5 5 6 5 6 7 6 10 10 9 10 12 13
1 0 0 1 0 -0 0 -0 -0 -0 -0 -1 -0 -0 -1 -0 0 1 3 4 5 5 5 5 6 5 4 3 1 2 1 0 5 5 8 6 6 5 6 7 10 11 9 12 10 11 12

GFSGBSN_850_temp_072.txt.gz
Temp
2 2 3 3 3 3 3 3 4 4 4 4 5 5 6 6 6 6 8 9 10 10 10 10 10 11 11 10 15 17 17 17 16 16 17 17 17 17 15 15 16 15 16 17 18 18 18
2 2 2 2 2 3 3 3 3 3 3 3 4 4 5 5 6 6 7 8 9 10 10 9 10 10 9 7 15 16 17 17 16 16 16 16 17 17 17 16 15 17 17 16 18 18 17
2 2 2 2 2 2 2 2 3 3 3 3 3 3 4 4 4 5 6 8 9 10 10 9 9 9 7 13 15 15 15 16 15 15 16 16 17 17 16 16 17 17 15 14 15 17 16
1 1 1 2 2 2 2 2 2 2 3 3 3 3 3 3 3 4 5 8 10 9 9 10 8 8 6 15 15 16 15 15 15 15 15 15 16 15 16 17 16 16 15 14 16 17 16
1 1 1 1 2 2 2 2 2 2 3 3 4 4 3 3 4 4 5 7 9 9 10 10 9 7 8 13 14 15 15 15 16 15 15 15 15 15 15 14 13 12 13 13 14 16 15
1 1 0 1 1 1 2 2 2 2 2 2 3 3 3 3 4 4 5 7 8 8 8 8 6 6 12 14 14 13 14 15 14 15 14 14 14 11 10 11 11 12 13 12 13 16 15
0 0 1 0 0 1 2 2 2 2 3 3 3 3 3 4 4 4 4 6 7 6 5 7 7 9 12 12 12 14 14 13 13 14 11 13 11 11 11 12 13 13 13 14 13 14 16
-0 -0 0 0 0 0 0 1 2 2 2 3 3 3 3 3 3 4 3 3 2 2 2 5 8 7 11 11 8 15 14 13 13 12 12 12 12 14 13 12 13 14 14 13 13 14 14
0 -0 -1 -0 0 0 -0 1 1 2 2 2 3 3 3 3 3 3 3 3 3 3 3 5 8 9 10 11 9 12 13 14 12 11 12 13 14 14 13 12 13 12 13 13 13 13 14
-1 -1 -1 -1 -1 -0 0 1 1 1 2 2 3 3 3 2 2 2 3 4 3 3 3 6 6 9 10 10 8 13 13 14 13 12 12 12 15 14 13 13 13 13 13 14 14 13 12
-1 -1 -1 -1 -1 -1 0 1 1 1 2 2 2 2 2 2 2 2 3 3 3 3 5 11 10 11 11 11 12 12 13 13 12 13 13 12 13 14 13 14 14 14 14 13 14 13 13
-1 -1 -1 -1 -1 -1 -0 1 1 1 1 2 2 2 2 2 2 2 3 4 4 5 6 10 12 11 10 11 11 12 11 13 14 14 13 13 14 13 15 15 14 15 15 15 13 12 11
-1 -1 -1 -1 -1 -1 -1 0 1 1 2 2 2 2 2 2 1 2 2 3 4 4 9 10 11 11 11 11 11 12 11 11 12 12 12 13 14 15 16 14 14 14 13 11 11 11 12
-1 -1 -1 -2 -2 -2 -1 0 1 1 2 2 2 2 2 2 2 1 2 3 5 7 7 10 10 11 11 12 12 13 11 10 11 13 12 12 12 14 14 15 14 13 12 10 13 11 13
-1 -2 -2 -2 -2 -2 -1 -0 0 1 2 2 2 1 2 2 1 1 1 2 5 7 8 8 10 10 10 12 12 13 11 10 12 12 13 12 12 15 15 15 16 13 12 14 13 11 11
-2 -2 -2 -2 -2 -2 -1 -1 0 1 1 2 1 1 2 2 1 1 0 3 5 8 7 7 7 8 8 9 10 11 12 12 12 12 13 13 13 14 16 15 15 15 13 13 10 12 12
-2 -2 -2 -2 -2 -2 -1 -1 0 0 1 1 1 2 2 2 1 0 1 1 5 6 7 6 6 7 7 8 9 10 11 11 11 12 12 13 13 13 15 14 13 13 14 14 13 10 12
-3 -2 -2 -2 -2 -2 -1 -1 -0 -0 1 1 1 2 1 2 1 0 1 2 5 5 6 6 6 6 7 8 8 9 10 10 11 11 11 12 11 11 13 15 15 14 14 14 12 13 10
-3 -2 -2 -2 -2 -2 -1 -1 -0 -0 0 0 1 0 1 2 2 2 2 2 3 5 5 6 6 5 6 7 8 9 9 10 10 10 10 10 9 9 11 13 14 13 14 14 12 11 14
-2 -2 -2 -2 -2 -2 -2 -1 -0 -0 0 -0 -0 1 -0 1 1 3 2 2 2 4 4 4 4 5 6 6 7 7 7 9 9 10 11 12 10 11 9 10 11 11 13 14 14 12 12
-2 -2 -2 -2 -2 -2 -1 -1 -0 -0 0 -0 -1 -0 1 1 2 2 3 3 2 3 4 4 4 4 4 4 4 6 7 8 9 10 11 11 9 9 9 10 11 11 12 13 13 14 13
-1 -1 -2 -2 -2 -1 -1 -1 -1 -0 -0 -0 -1 -0 1 1 3 2 2 2 3 3 3 3 3 5 4 4 4 5 6 6 7 8 9 9 9 8 8 10 10 10 11 12 13 13 13
-1 -2 -1 -2 -1 -1 -1 -1 -1 -1 -1 -0 -0 -0 1 2 2 2 2 3 3 4 4 5 5 5 4 4 5 6 6 6 5 6 6 7 7 7 8 9 10 9 11 12 12 13 14
-1 -1 -1 -1 -2 -1 -1 -1 -1 -1 -1 -0 -0 0 1 2 2 2 4 4 4 4 4 5 5 5 5 6 6 6 5 5 5 5 6 7 7 6 6 7 8 10 11 13 11 12 13
-1 -1 -1 -1 -1 -1 -1 -1 -1 -1 -1 -0 -0 0 1 2 2 3 3 3 4 4 4 5 5 5 5 5 4 4 4 5 5 5 6 7 6 5 4 7 9 11 12 13 11 11 13
-1 -1 -1 -1 -1 -1 -1 -1 -1 -1 -1 -1 -0 0 1 1 2 3 3 2 2 3 3 4 4 4 5 4 2 4 3 5 6 6 6 6 6 5 5 6 6 10 12 12 13 10 12
0 -0 -0 -0 -1 -1 -1 -1 -1 -1 -0 -1 -0 -0 0 1 2 2 3 2 3 3 2 3 3 3 4 2 3 3 4 6 5 7 6 6 5 6 6 6 7 8 9 11 9 9 7
0 1 -0 -0 -1 -1 -1 -1 -0 -0 -0 -0 -0 0 0 -0 1 2 3 3 3 4 3 3 3 3 1 2 3 3 2 4 5 6 5 5 5 6 6 6 6 9 9 10 9 10 10
1 0 0 -0 -0 -1 -1 -1 -1 -0 -0 -1 -1 -0 -0 -0 0 1 2 3 4 5 5 4 5 3 3 1 0 1 1 -0 4 4 6 5 5 5 5 6 8 10 11 12 12 13 13

GFSGBSN_850_temp_078.txt.gz
Temp
2 2 2 2 2 2 2 2 2 3 3 3 3 4 4 4 4 5 5 7 8 8 9 9 9 10 11 11 14 15 16 15 15 15 15 16 17 19 20 21 21 20 22 22 21 21 20
1 1 1 2 2 2 2 2 2 2 2 3 3 3 4 4 4 4 5 5 6 7 9 8 8 9 6 10 14 15 15 15 14 14 15 16 18 18 19 20 20 21 21 21 21 21 21
1 1 1 2 2 1 1 1 1 2 2 2 3 3 4 4 4 4 5 6 6 7 8 8 8 6 5 10 14 14 15 15 15 14 15 15 16 17 19 20 19 20 20 22 22 21 22
2 2 2 1 1 1 1 1 1 1 2 2 2 2 3 3 4 4 5 5 7 7 8 9 8 5 6 12 13 14 15 15 15 14 15 14 15 16 17 18 19 20 20 20 22 22 21
2 2 2 1 1 1 1 0 1 1 1 2 2 2 3 3 3 4 4 5 7 8 8 8 6 5 10 11 12 14 14 13 13 13 13 13 14 16 17 18 19 20 21 21 22 22 22
1 1 1 1 1 1 1 -0 0 0 1 2 2 2 3 3 3 3 4 6 7 6 5 5 4 5 10 11 12 12 12 11 12 12 13 14 15 17 18 19 18 20 20 21 21 22 21
1 0 0 1 1 0 0 0 0 0 1 1 2 2 2 3 3 3 4 4 7 7 5 8 9 8 9 10 13 12 12 11 12 13 16 15 16 16 18 19 20 21 21 21 22 21 20
-0 0 1 1 1 1 -0 0 0 0 1 1 1 2 2 3 3 3 3 4 2 1 3 5 6 7 8 7 8 12 11 13 14 15 17 16 15 18 19 19 18 19 19 20 21 20 19
0 -0 0 0 0 0 0 -0 0 -0 1 1 1 2 2 3 3 3 2 2 2 3 5 6 7 7 7 7 8 11 11 13 15 15 16 16 18 18 17 16 17 19 19 20 20 20 20
-0 -0 -0 -0 -0 -0 -0 -0 -0 -0 0 1 1 1 2 2 2 3 3 2 3 3 5 10 9 9 7 8 10 9 11 13 15 15 16 16 18 17 16 16 18 18 20 19 18 19 19
-0 -0 -0 -0 -0 0 -0 -1 -1 -1 -0 0 1 1 2 2 2 3 2 3 4 3 10 12 11 9 10 10 12 11 11 12 13 15 14 16 16 17 16 16 18 18 20 18 19 19 19
-1 -1 -1 -0 -0 -0 -1 -1 -1 -1 -1 0 1 1 1 2 2 2 2 3 4 7 10 11 12 12 11 11 11 11 11 12 14 14 14 14 17 17 17 17 17 18 17 18 18 18 17
-1 -1 -1 -1 -1 -1 -1 -1 -1 -1 -1 0 1 1 1 1 2 2 3 4 7 9 12 11 11 12 11 12 12 12 11 10 12 10 12 14 15 17 16 16 17 18 17 17 16 16 17
-2 -1 -1 -1 -1 -1 -1 -1 -1 -1 -1 -0 0 1 1 1 2 2 2 6 7 10 10 11 11 11 11 12 13 12 10 12 11 14 14 13 13 14 16 17 16 16 18 18 17 18 19
-2 -2 -1 -2 -1 -1 -1 -1 -1 -1 -1 -1 0 0 2 2 2 2 3 4 9 9 10 9 11 11 12 13 12 13 12 12 14 14 13 15 15 17 17 17 17 15 15 18 17 17 17
-3 -2 -2 -2 -2 -1 -1 -1 -1 -1 -1 -1 -0 0 1 1 2 1 2 5 7 9 8 9 9 10 10 11 12 13 13 12 12 13 15 14 15 16 17 18 18 18 19 16 16 15 16
-2 -3 -3 -2 -2 -2 -1 -1 -1 -1 -2 -1 -1 1 2 2 2 1 3 5 7 8 7 8 8 8 9 9 11 12 12 12 12 13 14 14 14 14 15 15 17 17 17 18 19 18 17
-3 -2 -2 -2 -2 -2 -2 -2 -2 -1 -1 -1 -1 1 2 2 2 1 2 6 6 8 8 8 8 8 9 9 10 11 11 11 11 13 13 14 14 15 16 17 18 17 17 18 17 17 17
-2 -2 -3 -2 -2 -2 -2 -2 -2 -1 -1 -1 -0 1 1 1 2 2 2 5 6 7 8 8 8 8 9 9 9 10 11 11 10 12 11 13 14 14 15 16 17 17 17 17 17 17 17
-2 -2 -2 -3 -3 -3 -2 -2 -1 -1 -1 -2 -1 1 1 1 1 5 4 4 5 5 7 7 8 7 8 8 9 9 10 11 10 11 9 11 11 12 14 14 14 13 14 15 15 15 16
-2 -2 -2 -2 -2 -2 -2 -2 -2 -2 -1 -2 -1 0 2 1 2 2 5 6 6 6 6 6 7 7 7 8 8 8 9 10 10 10 11 11 11 11 12 13 13 13 14 14 14 15 14
-2 -2 -2 -2 -2 -2 -2 -2 -2 -2 -1 -2 -1 -0 0 2 2 2 2 4 6 7 6 6 6 8 7 7 8 8 9 9 9 10 10 10 12 12 12 13 14 14 15 15 15 16 16
-1 -1 -1 -1 -1 -1 -2 -2 -1 -2 -2 -2 -2 -1 -0 2 4 3 2 6 6 7 7 7 7 6 7 8 8 7 7 7 8 8 8 8 10 11 11 12 13 12 14 15 16 17 17
-1 -1 -1 -1 -1 -1 -1 -1 -2 -2 -1 -2 -1 -1 -1 1 2 5 6 4 4 5 6 6 5 6 6 6 5 6 6 7 8 8 8 9 9 9 10 9 10 15 16 16 16 16 17
-1 -1 -1 -1 -1 -1 -1 -1 -1 -1 -1 -2 -2 -1 -0 1 4 4 5 5 6 5 5 5 5 4 4 3 4 6 7 7 8 9 8 9 9 8 9 11 13 14 15 15 15 15 14
-1 -0 -0 -0 -0 -1 -0 -1 -1 -1 -1 -2 -2 -2 -1 0 3 4 5 4 4 5 5 4 2 2 3 3 3 6 7 9 9 9 9 9 9 9 8 9 10 13 14 14 15 14 15
-0 0 0 -0 0 0 -0 -0 -1 -1 -1 -2 -2 -1 -1 -1 1 4 5 5 4 5 4 4 2 2 1 3 4 6 7 9 9 8 5 6 7 6 8 9 11 13 14 13 12 12 13
0 0 0 0 0 0 0 -0 -1 -1 -1 -1 -2 -2 -1 -1 0 2 3 4 5 4 4 2 2 2 2 3 5 6 7 9 9 10 8 8 7 7 8 8 8 12 13 12 12 12 12
0 0 1 1 1 0 0 0 -0 -1 -1 -1 -2 -1 -1 -1 -0 1 2 3 4 3 3 2 4 4 5 5 6 7 7 7 9 9 10 9 10 10 11 11 12 10 11 10 8 9 9

GFSGBSN_850_temp_081.txt.gz
Temp
2 2 1 2 2 2 3 3 3 2 3 3 3 4 4 5 6 6 6 6 7 8 8 8 9 10 11 12 14 16 16 15 16 15 16 18 19 20 22 23 23 24 24 24 24 24 24
2 2 2 2 2 2 2 2 2 1 2 2 2 3 4 4 4 5 5 6 7 7 7 7 8 8 6 11 14 15 14 14 15 15 16 18 19 20 22 23 24 24 24 23 24 24 24
2 2 2 2 2 2 2 2 1 1 1 2 3 3 3 3 4 4 5 5 7 8 8 8 8 8 6 10 14 14 13 14 15 16 17 18 19 20 21 22 22 22 22 24 24 24 24
2 1 2 2 2 2 2 1 1 1 1 2 2 2 3 3 4 4 5 6 6 7 8 8 8 6 8 11 12 13 14 14 14 15 15 17 18 18 19 21 21 21 22 21 24 25 25
2 2 2 2 2 2 2 1 1 1 0 1 2 3 3 3 3 4 4 6 7 8 8 8 7 6 11 12 11 11 11 13 14 14 14 15 16 17 19 19 20 21 21 22 24 25 25
1 1 1 2 1 2 2 1 1 0 1 1 2 2 3 3 3 4 4 7 7 7 6 6 7 7 10 13 13 12 12 12 13 14 14 15 17 18 19 20 18 19 21 22 23 26 24
1 1 1 1 1 1 1 1 0 1 0 1 2 2 2 3 3 3 4 6 9 9 8 10 13 11 13 12 11 13 12 11 12 14 15 16 17 18 19 20 20 21 23 24 25 26 24
-0 0 0 1 1 1 1 1 0 1 1 0 1 2 2 2 3 3 4 6 5 4 6 8 9 9 10 11 11 12 13 14 12 12 16 17 16 19 21 21 20 20 21 22 24 25 22
-0 -0 -0 0 0 0 0 0 1 0 0 0 1 1 2 2 3 4 5 5 4 4 7 10 10 11 11 10 11 12 12 13 13 13 15 16 18 19 19 20 19 20 20 21 22 24 23
-1 -0 -0 -0 0 0 0 0 0 0 0 0 1 1 1 2 3 5 5 4 4 4 7 14 13 12 11 10 12 11 13 12 10 11 15 16 18 19 18 18 19 18 21 21 22 21 20
-1 -0 -0 -0 -0 -0 0 0 -0 0 -0 -0 0 1 1 2 2 4 5 5 4 4 12 14 13 11 12 12 14 13 12 12 12 12 15 14 16 17 18 18 19 18 21 22 22 20 20
-1 -1 -1 -1 -0 -0 -0 -0 -0 0 -0 -0 -0 0 1 2 2 3 4 4 5 7 12 14 14 14 14 14 14 13 12 12 11 11 12 14 15 17 17 19 19 19 20 20 20 20 19
-1 -1 -1 -1 -1 -1 -0 -0 -0 -0 -0 -1 -1 0 1 1 3 3 3 5 9 11 15 14 13 14 14 14 14 14 13 12 10 10 10 11 14 16 17 17 19 18 19 18 18 18 18
-2 -1 -1 -1 -1 -1 -1 -1 -1 -1 -1 -1 -1 0 1 2 2 3 3 8 8 13 13 14 13 14 14 15 15 14 14 13 12 13 12 10 10 15 17 16 17 18 19 18 17 18 20
-2 -2 -2 -2 -1 -1 -2 -1 -1 -1 -1 -0 -1 0 1 2 2 3 3 7 12 12 13 12 13 13 14 15 14 14 14 14 15 13 12 11 13 15 16 16 16 16 17 19 16 18 18
-2 -2 -2 -2 -2 -2 -1 -1 -1 -1 -1 -1 0 0 2 3 3 2 3 7 11 11 11 12 12 12 13 13 14 14 15 14 13 14 15 14 12 16 17 17 16 16 17 15 16 15 16
-2 -2 -2 -2 -2 -2 -2 -1 -1 -1 -1 -1 -0 0 4 3 2 2 2 7 10 11 10 11 11 11 12 12 13 13 12 13 13 13 15 14 13 13 17 17 16 16 16 15 17 18 17
-2 -2 -2 -2 -2 -2 -2 -2 -2 -1 -1 -1 0 2 3 2 2 1 4 8 9 10 10 10 10 11 11 11 12 12 9 12 12 13 13 15 14 14 16 18 19 19 18 17 15 16 18
-2 -2 -2 -2 -2 -2 -2 -2 -2 -2 -1 -0 0 2 2 2 3 4 5 7 8 9 10 10 10 11 12 11 10 12 12 12 12 12 11 12 14 13 12 16 17 18 19 19 19 19 15
-2 -2 -2 -2 -2 -2 -2 -2 -2 -2 -2 -1 0 2 3 1 1 4 6 6 7 8 10 10 11 11 10 10 11 11 12 12 11 12 10 11 13 14 14 15 16 17 18 19 18 16 17
-2 -2 -2 -2 -2 -2 -2 -2 -2 -2 -1 -2 -1 1 4 3 4 4 5 5 8 8 9 9 10 10 10 9 10 11 12 12 11 11 12 12 11 13 14 14 15 15 16 17 17 17 16
-1 -1 -1 -2 -2 -2 -2 -2 -2 -2 -1 -2 -1 1 3 5 5 6 5 4 6 9 9 8 9 10 10 9 9 9 11 11 11 11 11 12 11 12 13 14 15 15 16 16 17 17 17
-1 -1 -1 -1 -1 -1 -1 -2 -2 -2 -2 -2 -0 0 1 4 6 5 5 7 6 9 10 10 9 9 8 10 10 9 9 9 10 10 10 10 12 13 12 14 14 13 15 16 17 18 18
-1 -1 -1 -1 -1 -1 -1 -1 -2 -1 -2 -2 -0 0 0 2 5 6 7 6 6 6 6 9 9 8 8 7 8 8 8 8 9 10 10 10 11 12 11 12 11 15 18 18 17 18 19
-1 -1 -1 -1 -1 -1 -1 -1 -1 -1 -2 -2 -1 -0 1 3 6 7 7 6 3 4 6 7 7 7 5 6 7 7 8 7 8 10 10 11 10 10 10 12 14 16 17 17 16 18 18
-1 -1 -0 -0 -0 -0 -1 -1 -1 -1 -1 -2 -2 -1 -0 2 4 6 7 7 6 6 7 6 6 4 4 5 5 7 8 10 10 10 12 11 10 10 10 10 10 15 17 17 17 15 16
-1 -1 -0 -0 -0 -0 0 -0 -0 -1 -1 -2 -2 -1 -1 -0 3 5 6 7 7 7 5 6 5 3 2 4 4 7 9 11 10 9 9 9 8 8 9 10 13 14 15 15 13 13 13
0 0 0 0 0 0 0 0 -0 -0 -1 -1 -2 -1 -1 0 2 3 4 4 7 4 3 4 3 2 2 4 6 8 8 10 11 12 10 8 7 7 9 8 9 15 15 13 12 12 12
0 0 0 0 0 0 0 0 0 -0 -0 -1 -2 -1 -1 -1 1 2 2 3 4 4 2 2 6 3 6 6 8 9 8 9 10 9 12 8 11 11 11 12 14 12 10 11 10 11 11

GFSGBSN_850_temp_084.txt.gz
Temp
3 3 2 2 2 3 3 3 2 2 2 2 3 3 4 4 5 5 6 6 7 7 8 8 8 9 10 10 12 17 16 16 16 16 15 17 19 20 21 22 23 23 24 25 25 25 25
3 3 3 3 3 3 2 2 2 2 1 2 2 3 3 3 4 5 5 6 7 8 8 8 8 8 6 8 14 14 16 15 16 16 16 17 19 20 21 22 23 24 24 25 25 25 25
2 2 2 2 3 2 2 2 2 1 1 1 2 2 2 3 3 4 5 6 7 8 8 9 8 7 5 11 14 14 15 15 15 17 17 18 19 20 21 22 22 23 23 24 25 24 24
2 2 2 2 2 2 2 2 2 2 1 1 1 2 2 3 3 4 5 6 7 8 9 9 8 6 7 13 12 13 14 13 15 15 16 17 17 18 20 21 22 22 22 21 23 24 25
1 1 2 2 2 2 2 2 2 2 1 1 1 1 2 2 3 4 5 7 9 8 8 8 7 5 10 13 12 13 13 14 15 15 15 16 16 17 19 19 19 20 20 21 22 25 25
1 1 1 2 2 2 2 2 2 1 1 1 1 1 2 2 3 4 5 8 9 7 8 5 6 9 10 14 15 14 14 14 14 14 15 15 15 16 18 18 17 19 20 21 22 24 26
1 1 1 1 1 1 2 2 1 1 1 1 1 1 2 2 3 4 6 7 10 8 7 10 13 12 14 14 14 14 14 13 14 14 15 16 13 14 16 18 19 20 20 20 23 25 25
0 0 0 1 1 1 1 1 1 1 1 1 1 1 2 2 3 4 5 6 7 5 6 8 10 10 11 12 12 13 14 14 14 14 16 15 14 16 17 19 19 19 18 19 22 24 24
0 0 0 0 0 1 1 1 1 1 1 1 1 1 1 2 4 5 5 6 6 5 7 10 12 13 13 13 12 13 13 14 15 14 14 12 14 15 15 17 18 19 18 19 20 23 24
-0 -0 0 -0 0 0 0 1 1 0 1 0 0 0 1 2 3 4 6 6 6 5 7 14 13 14 12 12 13 13 13 14 15 13 12 9 12 12 11 13 16 16 20 20 20 20 20
-1 -0 -0 -0 -0 0 0 -0 0 0 0 0 0 0 1 1 3 4 4 5 6 5 11 15 14 13 14 13 15 14 14 14 14 12 11 11 11 13 12 14 15 15 19 18 18 19 20
-1 -1 -1 -1 -0 -0 0 -0 -0 -0 -0 -0 0 -0 1 2 2 3 4 5 5 6 10 15 15 15 15 15 15 15 13 13 14 13 12 11 12 10 12 14 17 15 15 16 17 18 18
-1 -1 -1 -1 -1 -1 -1 -0 -0 -0 -0 -0 -0 -0 0 0 2 3 4 5 6 9 16 16 15 15 15 15 16 16 14 12 12 10 10 11 12 13 14 12 16 17 15 11 12 15 16
-2 -2 -1 -2 -1 -1 -1 -1 -1 -1 -1 -0 -0 -0 0 1 2 2 3 6 8 14 15 16 15 15 15 16 16 16 15 14 13 12 12 9 11 12 13 14 14 15 16 13 14 15 17
-3 -2 -2 -2 -2 -2 -2 -1 -1 -1 -1 -1 -1 -0 0 2 2 2 3 5 11 12 15 14 14 14 16 16 15 16 14 15 15 13 11 10 11 15 14 14 14 13 14 17 14 14 13
-2 -2 -2 -2 -2 -2 -2 -1 -1 -1 -1 -1 -1 1 2 3 3 2 3 6 10 13 13 13 12 14 14 15 14 16 15 14 14 15 14 13 10 14 15 15 15 14 16 12 12 13 13
-2 -2 -2 -2 -2 -2 -2 -1 -1 -1 -1 -1 -1 1 3 3 2 2 4 7 9 11 12 11 12 13 13 13 14 15 10 11 13 14 15 13 12 12 12 13 12 14 12 11 12 14 12
-2 -2 -2 -2 -2 -2 -2 -2 -2 -2 -1 -1 -0 1 3 3 3 2 3 7 8 10 12 12 11 11 12 13 13 13 11 12 12 13 12 14 13 12 12 14 17 16 15 13 11 12 14
-2 -2 -2 -2 -2 -2 -2 -2 -2 -2 -2 -1 0 2 3 2 3 3 5 7 8 9 11 11 11 12 12 12 11 13 13 12 12 12 11 11 13 11 13 14 16 15 15 14 13 13 11
-2 -2 -2 -2 -2 -2 -2 -2 -2 -1 -2 -2 -1 2 3 2 3 5 5 6 7 9 10 11 11 12 12 12 12 12 12 13 12 12 11 11 11 12 10 10 10 14 15 16 15 13 12
-2 -2 -2 -2 -2 -1 -1 -2 -2 -2 -2 -2 -1 1 4 3 4 4 5 5 7 8 9 10 10 11 11 10 11 11 12 13 13 11 12 12 10 12 13 11 11 12 11 11 15 15 14
-2 -1 -1 -1 -1 -1 -1 -1 -1 -2 -2 -3 -1 1 3 3 5 6 6 5 6 8 9 9 10 11 11 10 11 11 11 11 10 11 11 11 10 12 12 14 15 14 13 15 13 13 16
-1 -1 -1 -1 -1 -1 -1 -1 -1 -2 -2 -2 -2 1 2 2 5 6 5 7 7 8 9 9 10 10 10 11 8 8 9 9 9 10 10 10 10 11 11 13 13 12 14 16 17 17 17
-2 -1 -1 -1 -1 -1 -1 -1 -1 -1 -2 -2 -1 0 1 2 4 5 7 7 7 8 8 9 5 6 8 7 8 9 9 10 10 10 10 10 10 10 10 11 10 14 17 17 16 17 18
-2 -1 -1 -1 -1 -1 -1 -1 -1 -1 -2 -2 -1 -1 1 2 4 6 7 7 8 6 6 6 5 6 7 7 7 7 8 8 9 10 10 10 10 9 9 11 13 14 16 16 16 16 17
-1 -1 -1 -0 -1 -1 -1 -1 -1 -1 -1 -2 -2 -1 -1 1 3 5 7 7 7 6 4 6 7 6 6 6 5 6 7 9 9 10 10 10 11 9 10 9 10 14 16 17 18 14 15
-1 -1 -0 -0 -0 -0 -0 -0 -0 -1 -1 -2 -2 -1 -1 -0 2 4 5 6 6 7 5 5 5 5 4 4 4 6 7 11 9 9 9 9 9 8 8 9 12 15 15 15 13 12 13
-0 -0 -0 -0 -0 0 -0 0 -0 -0 -0 -1 -2 -2 -1 -0 1 2 4 4 5 6 4 5 2 3 2 3 4 7 7 9 10 11 10 9 7 7 8 8 8 15 14 13 12 12 12
-0 -0 0 0 0 0 0 0 0 0 -0 -1 -1 -1 -1 -1 1 2 2 3 3 3 1 1 2 4 6 5 7 8 6 8 9 9 12 9 10 10 10 10 13 12 11 11 11 11 10

GFSGBSN_850_temp_087.txt.gz
Temp
2 3 3 3 3 3 3 3 2 2 2 2 2 2 2 3 3 4 5 5 6 6 7 8 8 8 9 8 12 16 15 15 15 16 16 15 15 16 15 18 19 18 20 21 22 23 23
2 3 3 3 3 3 2 2 2 2 2 2 2 2 2 2 3 4 5 6 7 7 7 7 7 7 6 6 16 14 13 14 15 15 16 16 16 17 18 18 18 20 21 21 22 23 24
2 2 2 2 2 2 2 2 2 2 2 2 1 2 2 3 3 4 5 6 7 7 7 6 6 5 5 11 15 15 14 14 15 15 15 17 17 17 18 17 20 20 19 20 21 21 20
2 2 2 2 2 2 2 2 2 2 2 2 1 1 1 2 3 3 5 6 7 7 6 6 6 5 5 14 13 15 14 14 14 15 15 16 16 16 17 18 18 18 18 17 20 20 21
2 2 1 2 2 2 2 2 2 2 2 2 1 1 1 2 2 4 5 7 8 7 7 6 6 5 6 12 13 14 14 14 14 14 15 15 15 16 16 15 14 16 15 16 18 21 21
1 1 1 1 1 1 2 2 2 2 2 2 1 1 1 1 2 4 5 7 9 8 7 6 5 5 9 13 14 14 14 14 14 14 14 15 15 13 12 13 13 14 15 15 16 19 21
1 1 1 1 1 1 1 1 2 2 1 1 1 1 1 1 2 4 5 6 7 7 7 8 8 8 12 13 13 13 14 14 14 14 12 14 11 10 12 13 15 16 16 17 17 20 21
0 0 1 0 0 1 1 1 1 1 1 2 1 0 1 1 2 4 4 5 6 5 5 7 9 9 9 10 10 12 13 13 14 11 13 12 11 13 14 15 15 15 14 13 17 19 19
-0 0 0 -0 -0 0 1 1 1 1 1 1 1 1 0 1 2 4 4 5 6 6 4 6 9 9 10 11 11 12 12 13 12 12 12 11 13 14 14 14 13 12 13 13 16 18 19
-1 -1 -1 -0 0 0 0 0 1 0 1 0 1 1 0 1 3 3 5 6 5 6 4 9 12 13 13 12 13 13 13 13 13 12 12 9 11 11 12 12 13 11 14 16 15 12 12
-1 -1 -1 -1 -0 -0 0 1 1 1 0 0 0 0 0 0 2 3 4 5 6 6 5 14 13 13 13 13 14 14 14 13 12 12 10 10 11 9 9 11 11 12 14 14 12 12 14
-1 -1 -1 -1 -1 -1 -0 -1 -0 -0 0 0 0 -0 0 1 1 3 4 5 5 5 6 13 13 13 13 13 14 14 13 14 13 12 10 10 12 11 10 11 11 11 10 11 12 12 11
-2 -2 -1 -1 -1 -1 -1 -1 -1 -1 -0 -0 0 -0 -0 0 2 2 3 4 4 5 15 14 13 15 14 14 14 14 12 11 9 9 9 10 11 11 12 10 11 10 10 10 10 10 11
-2 -2 -2 -2 -1 -1 -1 -1 -1 -1 -0 -0 -0 -0 0 1 2 1 2 3 5 10 13 15 15 14 13 15 15 14 11 10 10 10 9 9 8 12 13 10 10 11 10 10 11 11 12
-2 -2 -2 -2 -2 -2 -1 -1 -1 -1 -1 -1 -1 0 0 2 2 1 2 3 6 10 13 13 13 12 13 15 15 14 12 12 12 10 9 10 10 13 12 11 12 10 9 12 10 11 10
-3 -2 -2 -2 -2 -2 -2 -2 -1 -1 -1 -1 -1 -1 1 2 2 1 2 4 7 11 11 12 11 12 12 14 14 11 12 11 12 12 11 11 10 13 13 12 12 10 10 11 9 10 11
-2 -2 -2 -2 -2 -2 -2 -2 -2 -1 -1 -2 -1 -1 3 2 2 1 2 3 7 9 10 11 11 10 11 12 12 12 9 11 11 11 11 11 10 11 12 10 11 10 8 9 10 11 11
-2 -2 -2 -2 -2 -2 -2 -2 -2 -2 -2 -2 -2 -2 3 3 1 2 2 5 8 8 9 10 11 10 10 10 11 12 11 11 12 11 10 10 11 10 11 13 12 10 9 10 10 11 12
-2 -2 -2 -2 -2 -2 -1 -1 -2 -2 -2 -2 -1 0 2 2 1 2 3 4 6 7 8 9 10 11 11 10 9 12 11 11 11 11 9 9 9 9 11 12 13 12 11 11 11 9 10
-2 -2 -2 -2 -2 -2 -1 -1 -2 -2 -2 -2 -2 -2 2 0 -0 2 3 5 5 7 8 9 9 10 10 9 10 10 11 11 11 11 11 10 9 9 9 8 6 9 11 11 9 9 11
-2 -2 -2 -1 -1 -2 -1 -1 -2 -2 -2 -2 -2 -1 1 -3 1 1 3 3 4 6 8 9 9 9 9 8 9 9 10 11 11 11 10 10 8 9 11 12 8 8 8 9 9 10 10
-2 -2 -1 -1 -1 -1 -1 -1 -1 -2 -2 -3 -2 -1 2 3 3 3 4 3 5 6 7 7 7 9 8 8 9 8 8 8 8 10 10 10 9 9 9 12 13 10 11 10 9 9 11
-2 -2 -1 -1 -1 -1 -1 -1 -1 -1 -2 -3 -2 -1 -1 1 2 2 1 5 5 6 7 7 8 5 5 7 7 7 8 8 8 8 8 8 9 8 8 11 11 10 12 11 11 12 12
-2 -2 -1 -1 -1 -1 -1 -1 -1 -2 -2 -2 -2 -1 -0 -2 1 2 4 5 6 6 6 7 7 5 6 7 7 8 8 8 8 7 8 8 7 9 6 8 8 13 15 15 15 14 15
-2 -2 -2 -1 -1 -1 -1 -1 -1 -1 -2 -2 -2 -1 -0 -3 2 3 4 5 6 6 6 6 6 6 6 6 4 6 5 6 7 8 8 8 7 5 6 8 10 12 14 14 14 12 12
-2 -2 -2 -1 -1 -1 -1 -1 -1 -1 -1 -2 -2 -2 -1 -0 -0 2 3 4 2 3 4 5 5 5 4 2 3 4 4 6 7 8 8 8 7 6 5 7 7 11 14 15 15 10 12
-2 -1 -1 -1 -0 -0 -0 -0 -1 -1 -1 -1 -2 -2 -2 -1 0 2 2 2 2 4 1 3 4 2 2 2 1 2 4 8 6 7 6 6 5 5 5 5 8 12 14 15 12 9 10
-1 -1 -0 -0 -0 -0 -0 -0 -1 -1 -1 -1 -2 -2 -2 -1 -0 1 2 2 2 1 0 3 2 2 2 1 2 3 3 6 7 8 6 6 5 5 5 5 6 11 13 11 9 10 9
-1 0 0 -0 0 0 0 -0 -0 -0 -0 -0 -1 -1 -2 -2 0 0 1 2 2 1 1 1 2 1 2 2 3 3 2 4 4 5 7 5 7 6 7 6 6 7 8 8 9 8 7

GFSGBSN_850_temp_093.txt.gz
Temp
3 2 2 2 2 3 3 3 3 3 3 2 2 2 2 2 2 2 3 5 6 6 5 5 6 5 6 7 11 14 14 14 14 14 14 14 13 14 12 13 14 13 15 16 17 18 17
2 2 2 2 2 2 2 2 2 2 2 2 2 2 2 2 2 2 2 3 4 5 6 5 5 4 2 2 13 13 13 14 13 13 14 13 14 14 14 14 13 15 15 16 17 17 17
1 2 2 2 1 1 2 2 2 2 2 2 2 2 2 2 1 1 2 2 4 6 6 5 4 3 2 8 13 13 13 13 13 13 13 13 14 14 14 14 16 16 15 15 15 16 16
1 1 1 1 1 1 1 1 1 1 2 2 2 2 2 2 1 1 1 2 5 6 6 5 4 3 3 11 11 13 13 14 14 13 13 14 14 14 15 15 15 15 14 13 16 15 17
0 1 1 1 1 1 1 1 1 1 1 2 2 2 2 2 1 1 1 3 6 6 7 7 4 3 3 9 11 13 13 13 13 13 13 14 14 14 15 13 12 12 11 13 15 16 17
-0 0 0 0 0 0 1 0 1 1 1 1 1 1 1 2 2 2 2 4 6 6 6 5 3 3 7 10 10 12 13 13 13 13 13 14 14 11 9 10 11 11 11 12 13 15 15
0 -0 -1 -0 0 0 0 0 1 1 1 1 1 1 1 2 2 2 2 4 5 5 4 4 5 5 8 8 10 11 12 12 13 13 10 12 10 9 9 11 12 13 12 11 13 14 14
-0 0 0 -1 -1 -0 -0 -0 0 0 1 1 1 1 1 1 1 1 2 2 2 2 3 5 5 5 6 7 6 12 11 12 12 10 10 10 8 10 11 11 11 11 11 11 12 14 14
-1 -1 -1 -1 -1 -1 -1 -0 -0 -0 0 0 0 0 1 1 1 1 1 2 2 2 3 5 6 6 6 7 6 9 10 11 11 10 9 8 11 11 11 11 11 11 10 11 12 13 12
-2 -2 -1 -1 -1 -1 -1 -1 -1 -0 -0 0 0 -0 0 0 1 1 2 2 3 3 2 5 6 7 7 8 7 11 10 11 10 10 9 9 10 11 10 10 10 9 11 12 11 11 10
-2 -2 -2 -2 -1 -1 -1 -1 -1 -1 -1 -0 -0 -0 0 -0 0 1 1 2 3 3 2 10 9 10 8 10 12 9 11 11 9 10 10 10 9 9 9 10 10 9 11 11 11 9 9
-1 -1 -1 -1 -1 -1 -1 -1 -1 -1 -1 -1 -0 -0 -0 0 1 1 1 2 2 3 4 9 11 10 10 11 12 11 11 12 12 10 10 10 10 10 10 10 10 10 10 10 9 9 9
-2 -2 -2 -1 -1 -1 -1 -1 -1 -1 -1 -1 -1 -0 -0 -1 0 0 1 2 2 3 8 10 10 11 10 11 11 11 10 9 8 8 8 9 9 9 9 9 9 9 9 6 8 8 9
-2 -2 -2 -2 -2 -2 -2 -2 -1 -1 -1 -1 -1 -1 -0 -0 1 -0 -1 1 2 6 8 9 9 11 10 11 11 11 10 9 9 8 7 7 8 8 9 9 8 7 9 8 9 9 10
-2 -2 -2 -2 -2 -2 -2 -2 -1 -1 -1 -1 -1 -1 0 2 0 -0 -1 1 4 6 5 5 8 10 11 12 11 10 9 8 9 9 9 7 9 10 9 10 10 8 8 9 8 8 9
-2 -2 -2 -2 -2 -2 -1 -1 -1 -1 -2 -2 -2 -1 1 0 -0 -1 -1 2 4 6 5 5 7 9 8 10 10 10 9 10 10 9 10 9 9 10 10 10 9 9 8 8 8 10 10
-2 -2 -2 -2 -2 -1 -1 -1 -1 -1 -2 -2 -2 -2 1 1 -1 -0 -2 1 4 6 5 3 6 8 9 8 10 9 9 9 10 9 10 10 9 9 9 8 8 8 8 7 8 8 10
-3 -2 -2 -2 -2 -2 -1 -1 -1 -1 -2 -2 -2 -2 -0 -1 -1 -1 -3 1 3 5 5 2 6 8 7 8 9 9 7 9 11 10 9 9 8 7 8 10 10 8 9 8 8 9 9
-3 -3 -2 -2 -2 -2 -1 -1 -1 -1 -2 -2 -3 -1 -0 -0 -1 -5 -0 2 4 4 5 2 3 7 7 7 8 9 9 10 10 10 9 9 8 7 8 9 8 8 8 7 7 7 8
-3 -3 -2 -2 -2 -2 -1 -1 -1 -1 -2 -2 -3 -4 -1 -0 -1 -0 0 2 2 5 5 5 5 7 7 7 7 8 9 9 10 10 10 9 7 7 6 7 8 7 8 8 7 8 9
-3 -3 -3 -2 -2 -2 -1 -1 -1 -2 -2 -2 -3 -4 -2 -2 -0 -2 0 2 2 3 5 6 6 5 5 4 5 6 7 8 8 9 9 7 7 8 8 8 9 8 8 9 8 8 8
-4 -4 -3 -2 -2 -2 -1 -1 -1 -2 -2 -3 -3 -3 -2 -1 0 0 0 2 2 2 4 5 5 5 5 4 4 4 5 7 7 7 8 7 6 7 7 8 8 7 9 9 10 9 8
-4 -4 -3 -3 -2 -2 -1 -1 -1 -2 -2 -3 -3 -2 -2 -2 -1 -0 0 -0 0 1 4 5 5 5 5 5 5 5 6 6 6 7 6 7 6 6 6 7 7 7 9 10 10 10 9
-4 -4 -3 -3 -2 -2 -1 -1 -1 -1 -2 -2 -2 -2 -2 -5 -1 0 1 2 2 2 3 5 5 5 5 5 6 6 6 6 5 5 6 6 5 5 4 7 5 9 11 9 10 8 9
-4 -4 -3 -3 -2 -1 -1 -1 -1 -1 -1 -2 -2 -2 -2 -5 -1 -0 0 2 2 2 3 4 4 3 4 5 4 4 4 5 5 5 5 5 4 3 4 5 7 8 10 9 9 10 10
-5 -4 -4 -3 -2 -2 -2 -1 -1 -1 -1 -1 -2 -3 -2 -3 -3 -0 0 1 0 -0 0 3 3 3 4 1 1 3 4 5 6 6 5 4 4 4 3 4 4 8 9 9 9 8 9
-5 -4 -4 -4 -2 -2 -1 -1 -1 -1 -1 -1 -2 -2 -3 -3 -1 -1 -1 -0 1 -0 -1 -0 1 2 2 0 2 2 4 5 5 6 6 3 2 4 4 5 5 8 6 8 8 7 8
-5 -4 -4 -3 -3 -2 -1 -1 -1 -1 -1 -1 -1 -2 -3 -2 -1 -1 -0 -0 0 -0 0 0 -0 1 1 0 1 2 1 4 4 5 5 4 3 2 3 4 4 5 7 7 6 5 5
-5 -4 -3 -3 -2 -1 -1 -1 -1 -0 -1 -1 -1 -1 -2 -2 -1 -1 -1 0 0 0 1 1 -0 0 1 2 1 1 0 -1 3 3 5 3 4 4 4 4 5 4 4 3 3 2 1

GFSGBSN_850_temp_096.txt.gz
Temp
3 3 3 2 3 2 2 2 2 2 2 2 2 2 2 2 2 2 2 2 2 3 4 5 4 4 4 4 8 13 13 13 13 13 13 13 13 13 12 12 13 11 13 15 16 16 16
3 3 3 2 2 2 2 2 2 2 2 2 2 2 2 2 2 2 2 2 3 4 5 5 4 3 1 2 11 11 12 13 11 13 13 12 14 14 13 12 12 14 14 14 15 16 16
3 2 2 2 1 1 1 1 2 2 2 2 2 2 2 2 2 2 2 2 3 6 6 5 5 3 1 4 11 12 11 11 12 12 12 13 13 13 13 13 15 14 13 13 13 15 14
3 2 1 1 1 1 1 1 1 1 1 1 1 2 2 2 2 2 2 2 4 6 6 7 6 3 2 10 9 12 12 13 13 12 12 13 13 13 13 15 14 14 13 12 14 13 15
2 2 1 1 2 2 1 1 0 1 1 1 1 1 1 1 1 1 1 2 5 5 6 6 5 3 3 8 9 11 11 13 12 13 13 13 13 13 13 11 11 11 10 12 13 14 15
1 1 1 1 1 0 -0 0 0 1 1 1 1 1 1 1 1 1 1 2 5 4 4 4 2 3 7 9 9 10 11 11 12 12 11 11 12 9 8 9 10 10 10 10 12 14 14
-0 2 2 1 -1 -1 0 -0 0 0 0 0 0 1 1 1 1 1 1 3 3 4 3 2 3 4 5 7 9 10 10 11 11 12 10 11 9 8 10 10 12 12 11 11 12 13 13
0 0 -1 -1 -1 -1 -1 -0 -0 -0 -0 -0 0 0 1 1 1 1 1 1 -0 -0 0 2 4 5 6 7 5 10 10 11 11 10 10 9 9 10 10 10 10 10 10 10 11 12 12
-2 -1 -0 -0 -1 -0 -0 -0 -0 -1 -1 -0 -0 0 0 0 1 1 1 1 0 0 1 4 5 5 5 7 5 8 9 11 10 9 9 9 10 10 10 10 10 10 10 10 10 12 11
-2 -1 -0 -1 -1 -0 -0 -0 -0 -0 -1 -1 -1 -0 -0 -0 1 1 1 1 2 1 2 4 4 6 6 6 5 7 9 11 10 9 8 9 10 10 9 10 9 9 10 11 11 10 8
-2 -1 -2 -1 -1 -1 -0 -0 -0 -1 -1 -1 -1 -1 -1 -0 -1 0 1 1 1 2 2 8 8 8 7 7 10 7 9 10 9 9 9 9 8 9 9 9 9 9 10 10 10 9 8
-2 -2 -2 -2 -1 -1 -1 -1 -1 -1 -1 -1 -1 -1 -1 -0 -0 0 0 1 2 2 3 7 9 7 6 8 10 8 9 11 11 9 9 9 9 9 10 9 9 10 10 9 9 8 7
-2 -2 -2 -1 -1 -1 -1 -1 -1 -1 -1 -1 -1 -1 -1 -1 -0 -0 0 1 2 2 7 7 7 8 8 10 10 10 9 8 8 8 8 9 9 9 9 8 8 9 8 5 7 8 8
-3 -2 -2 -2 -1 -1 -1 -1 -1 -1 -1 -1 -1 -1 -0 0 -0 -1 -1 0 1 5 6 7 6 6 7 10 11 10 9 8 8 8 7 7 8 8 9 9 8 8 8 6 9 9 9
-3 -2 -2 -2 -2 -1 -1 -1 -1 -1 -1 -2 -1 -1 -0 -0 -0 -0 -1 -1 2 4 3 4 5 8 9 10 10 10 9 8 8 8 8 7 9 9 9 9 9 7 7 9 8 8 8
-3 -2 -2 -2 -2 -1 -1 -1 -1 -1 -1 -2 -1 -1 -1 -0 -1 -1 -3 -0 2 5 3 3 4 5 6 8 9 9 9 9 9 9 9 9 8 9 9 9 8 8 8 7 8 9 8
-3 -3 -3 -2 -2 -1 -1 -1 -1 -1 -1 -2 -2 -2 -1 -0 -1 -1 -2 -1 2 4 3 2 3 4 4 7 8 8 8 9 10 8 9 9 8 8 9 8 7 7 8 7 8 8 10
-3 -3 -2 -2 -2 -2 -1 -1 -1 -1 -2 -2 -3 -3 -1 -1 -1 -2 -5 0 3 2 2 2 2 3 3 5 7 6 7 8 10 10 8 8 7 7 8 8 8 8 8 9 8 8 8
-3 -3 -3 -2 -2 -2 -1 -1 -1 -1 -2 -2 -3 -2 -1 -1 -2 -1 -1 1 2 3 4 3 2 2 2 4 5 5 5 7 9 9 9 9 7 7 8 8 8 8 8 8 6 7 7
-3 -3 -3 -3 -2 -2 -2 -1 -1 -2 -2 -2 -3 -4 -1 -1 -1 -1 -1 0 1 3 4 5 2 1 3 4 7 5 5 7 8 9 9 8 7 7 6 7 7 7 7 8 7 7 8
-3 -3 -3 -3 -2 -2 -2 -1 -1 -1 -2 -2 -3 -4 -3 -3 -1 -2 -1 0 1 2 3 3 2 2 4 4 4 5 6 7 8 7 7 7 7 7 8 7 7 7 7 8 8 8 8
-4 -4 -4 -3 -3 -2 -2 -1 -1 -1 -2 -2 -3 -4 -2 -2 -1 -2 -1 -0 1 1 2 2 3 4 4 4 4 4 4 5 5 6 7 6 6 7 7 7 8 7 7 7 8 8 9
-4 -4 -4 -4 -3 -2 -2 -1 -1 -1 -2 -3 -3 -3 -2 -2 -1 -1 -1 -1 -0 0 1 3 4 4 4 4 5 5 5 5 5 5 6 6 6 5 6 7 6 6 7 8 8 9 8
-4 -4 -4 -4 -3 -2 -2 -2 -2 -1 -2 -2 -2 -2 -3 -5 -2 -0 -0 1 1 2 1 3 3 3 3 4 5 5 5 5 5 5 5 5 5 5 4 6 4 7 8 9 9 9 8
-4 -4 -4 -4 -3 -3 -2 -2 -2 -2 -1 -2 -2 -3 -2 -4 -2 -1 -1 0 1 2 1 2 2 2 3 3 3 5 4 6 6 5 4 5 4 4 4 5 6 7 8 7 7 8 9
-4 -4 -4 -4 -3 -3 -2 -2 -2 -1 -1 -1 -1 -3 -3 -3 -4 -1 -1 -0 -1 -1 -0 2 2 2 3 0 1 4 4 5 5 6 4 3 4 4 3 4 3 6 7 6 7 7 6
-4 -4 -5 -4 -3 -3 -2 -2 -1 -1 -1 -1 -1 -2 -3 -3 -1 -1 -1 0 0 -1 -1 -0 1 1 2 -1 1 2 4 5 5 5 5 3 2 3 3 4 4 5 5 7 7 5 5
-5 -4 -5 -4 -4 -3 -2 -2 -1 -1 -1 -1 -1 -2 -2 -3 -1 -1 -0 -0 0 -1 -0 1 -1 1 0 1 1 2 1 3 4 5 5 4 3 2 4 3 3 4 5 5 4 2 2
-5 -4 -5 -4 -3 -3 -3 -2 -1 -1 -1 -1 -1 -1 -1 -2 -1 -1 -1 -1 -0 0 0 0 0 0 -1 1 1 1 1 0 2 3 4 3 3 4 4 4 3 2 2 1 1 -0 -1

GFSGBSN_850_temp_102.txt.gz
Temp
6 6 7 7 6 6 6 6 6 5 5 6 6 6 6 6 5 5 5 5 6 6 5 5 5 4 3 5 7 11 11 12 11 11 11 12 14 15 17 18 18 18 20 19 18 18 19
6 6 6 6 6 5 5 5 5 5 5 5 5 5 5 4 4 3 4 4 5 5 5 6 5 3 2 4 9 11 11 11 9 10 12 12 14 15 16 17 18 18 18 19 18 18 18
5 5 5 5 5 5 5 4 3 3 5 5 4 5 4 4 4 4 4 5 6 6 6 6 5 3 1 4 9 9 9 10 10 9 11 12 13 14 15 16 16 17 17 18 18 18 18
4 5 5 4 5 5 5 3 3 4 4 3 3 3 3 4 4 4 4 4 6 5 5 5 5 3 3 5 8 8 8 7 9 10 8 10 10 13 15 16 16 17 17 17 19 19 19
4 5 4 5 5 5 4 2 3 4 3 3 3 2 2 3 3 3 3 3 5 5 3 4 3 2 6 5 6 7 7 7 8 9 8 9 11 12 14 15 16 17 18 17 18 19 19
3 4 5 4 5 4 2 2 2 2 2 2 2 2 1 2 2 2 2 3 5 3 3 3 3 3 5 8 7 7 7 7 7 8 8 9 12 14 15 16 15 17 16 18 18 20 19
3 4 3 4 3 1 1 0 -0 0 1 1 1 1 1 1 1 1 1 3 3 5 2 3 5 6 6 7 7 8 8 8 8 9 12 11 12 14 15 16 16 17 17 18 19 19 17
3 3 4 3 1 2 1 -1 0 0 1 1 1 1 0 1 1 1 1 2 -0 -1 -0 2 2 3 3 4 5 8 8 9 10 12 13 12 13 15 16 15 15 15 16 17 18 17 17
1 4 2 3 3 1 -0 -0 0 0 1 0 1 1 0 1 1 1 0 1 -0 -1 1 5 5 5 6 5 5 6 9 10 12 12 12 12 15 16 15 14 14 15 15 16 16 17 17
1 2 3 3 1 -1 -0 0 0 1 0 1 1 0 0 0 0 0 1 -0 -0 -1 2 8 8 7 7 6 7 7 8 11 12 13 12 12 14 13 13 13 14 14 16 15 15 15 16
-0 1 1 -0 -1 -1 -0 -0 0 0 1 1 1 0 0 0 -1 0 0 1 0 -0 5 10 9 6 6 7 8 10 8 10 12 13 11 12 12 12 13 14 15 15 14 15 15 15 15
0 -1 -2 -1 -1 -1 -0 -0 -0 0 1 1 0 0 0 -1 -1 -1 1 1 0 4 5 9 9 9 9 8 8 10 8 10 12 13 13 12 12 13 13 13 14 14 14 13 14 14 14
-2 -2 -2 -2 -1 -1 -1 -0 -0 -0 1 0 0 1 0 -0 -0 0 1 1 4 4 9 8 7 8 8 8 10 10 9 10 12 11 11 12 11 12 12 11 13 13 13 12 11 11 15
-2 -3 -2 -2 -2 -1 -1 -0 -0 -0 0 0 1 1 0 -0 0 1 -0 4 3 7 7 7 7 8 7 5 9 10 10 10 13 13 12 11 9 11 12 13 12 13 14 15 14 15 16
-2 -3 -2 -2 -2 -1 -1 -1 -0 -0 0 0 1 0 -1 0 1 1 2 3 5 5 5 5 6 7 5 5 6 11 10 11 12 13 12 11 11 12 12 12 14 12 11 13 12 12 13
-2 -3 -3 -2 -2 -1 -1 -1 -1 -0 -0 0 1 -0 -1 1 0 -1 3 2 4 5 5 5 2 4 2 5 5 11 11 12 12 13 13 13 10 12 11 12 12 13 13 11 12 12 13
-3 -3 -3 -3 -2 -2 -1 -1 -1 -0 0 0 -0 1 -0 -0 -1 2 2 3 3 4 4 2 3 2 3 3 3 5 11 12 12 12 13 13 13 9 11 12 12 11 11 11 12 11 12
-3 -3 -3 -3 -2 -2 -2 -1 -1 -1 -0 0 -1 2 -1 -0 2 2 3 2 2 4 4 5 4 3 2 3 2 4 8 11 10 13 12 12 12 10 11 12 13 13 12 12 12 10 11
-3 -3 -3 -3 -3 -2 -2 -1 -1 -1 -0 -1 -0 1 -1 -1 2 3 3 4 4 4 4 3 3 3 2 2 3 6 7 9 10 11 11 11 11 10 9 11 12 12 12 11 8 9 10
-3 -3 -3 -3 -3 -2 -2 -2 -1 -1 -1 -1 -1 1 1 -0 -1 2 2 3 3 4 4 3 2 2 2 4 4 5 5 8 8 9 8 11 11 12 12 12 12 10 11 12 11 10 12
-3 -3 -3 -3 -3 -2 -2 -2 -1 -1 -1 -2 -2 -0 -1 1 2 2 3 4 3 1 2 1 2 3 3 4 4 4 4 5 6 7 8 10 10 10 11 11 11 11 11 11 11 11 11
-4 -3 -3 -3 -4 -3 -2 -2 -1 -1 -1 -2 -2 1 -0 1 1 2 2 3 3 1 0 2 3 5 5 5 3 3 3 5 5 7 7 7 8 10 10 11 11 10 11 11 11 12 12
-3 -3 -3 -4 -4 -3 -2 -2 -2 -1 -2 -2 -1 -1 -0 0 3 3 2 2 2 3 4 4 4 5 6 4 3 4 4 5 6 7 9 9 9 10 9 10 10 10 11 11 11 12 12
-3 -3 -4 -4 -3 -3 -3 -2 -2 -1 -1 -1 -1 -1 0 2 3 3 2 2 3 3 3 4 4 4 4 2 5 6 6 7 8 9 8 9 9 9 8 9 8 9 11 11 11 11 9
-3 -3 -3 -3 -4 -4 -3 -2 -2 -2 -1 -2 -1 -1 0 1 2 3 2 2 3 4 4 3 3 3 2 4 7 8 8 8 8 8 8 9 9 8 8 9 9 9 8 9 9 9 6
-4 -4 -3 -4 -4 -4 -3 -3 -2 -2 -2 -1 -2 -2 -2 1 3 1 2 2 3 3 5 4 3 2 3 6 6 7 7 7 8 8 8 8 9 9 8 8 8 7 9 9 9 9 5
-4 -4 -4 -4 -4 -4 -4 -3 -2 -2 -2 -2 -2 -2 -2 -1 1 0 3 2 2 3 4 4 2 3 3 5 7 6 7 7 7 7 7 8 8 8 7 7 8 6 8 8 9 5 2
-4 -4 -4 -4 -4 -4 -4 -3 -2 -2 -2 -2 -2 -1 -2 -2 0 -1 -0 1 2 2 3 3 4 3 3 5 5 5 5 6 7 7 6 7 7 7 7 7 6 1 8 6 2 -1 -0
-4 -4 -4 -4 -4 -4 -5 -4 -3 -2 -2 -1 -1 -1 -2 -2 -0 -1 -1 0 -0 0 0 2 2 2 2 3 2 3 4 5 4 6 7 5 4 5 3 3 -0 -1 -2 -2 -2 -2 -2

GFSGBSN_850_temp_105.txt.gz
Temp
7 7 7 7 7 7 7 7 7 7 7 7 7 7 7 7 7 7 8 8 8 8 7 7 7 6 4 7 9 11 11 10 11 12 13 14 15 16 19 20 21 22 22 22 22 23 23
7 7 7 6 6 7 7 6 7 7 6 7 6 7 7 6 6 6 7 7 7 7 6 7 6 6 3 7 10 11 10 10 11 12 13 14 16 17 18 19 21 21 22 22 22 22 21
7 6 7 6 7 7 6 6 6 6 6 6 6 6 6 6 6 6 6 7 7 7 7 7 6 5 4 7 9 10 10 10 11 11 13 14 15 16 17 19 19 20 20 22 22 21 22
5 5 6 6 6 6 6 6 6 5 5 6 5 5 5 5 5 5 5 5 6 6 6 6 5 3 6 8 8 8 9 10 10 10 11 12 14 15 16 18 19 19 19 19 21 22 22
5 5 6 6 5 5 5 5 5 5 5 5 5 5 5 5 5 4 3 4 5 5 4 4 4 4 7 8 7 9 8 9 10 11 11 11 12 13 16 17 17 19 18 19 20 23 23
4 5 5 5 5 5 5 5 6 5 4 4 4 4 4 4 3 3 3 5 5 4 4 5 6 4 7 10 10 10 9 10 10 11 11 11 12 15 16 17 16 18 19 20 21 23 23
2 5 4 4 5 5 5 5 4 4 3 3 3 3 3 2 2 2 3 6 6 8 6 6 9 8 9 10 9 9 10 10 10 11 12 13 13 14 16 17 19 19 20 21 22 23 22
2 2 3 3 4 5 5 4 3 3 3 3 2 2 2 2 2 2 3 4 3 1 2 4 5 6 7 7 7 8 9 11 12 12 14 14 13 16 18 18 17 18 18 19 20 22 20
1 2 3 3 4 4 4 3 4 3 3 2 2 1 1 2 2 3 3 3 3 2 3 6 8 9 9 8 9 9 9 10 12 13 14 14 15 17 17 17 16 16 16 17 19 20 21
-0 0 2 2 3 3 2 2 2 2 2 2 1 1 1 2 2 2 4 3 2 2 3 10 10 10 9 9 10 10 10 10 12 12 15 15 17 16 16 16 16 15 16 17 18 18 17
-1 -1 0 1 2 1 1 2 2 1 1 1 1 1 1 1 0 3 2 2 2 1 5 12 11 9 10 10 10 10 11 10 12 14 14 14 15 16 15 15 16 15 17 17 17 17 17
-1 -1 -0 1 0 0 1 1 1 1 1 1 1 1 2 2 2 2 1 1 2 4 7 11 11 10 10 11 12 11 11 10 12 13 15 15 16 16 16 16 15 16 16 16 16 16 15
-2 -1 -1 -1 -0 1 1 1 1 1 1 1 1 2 2 1 2 1 1 3 6 5 11 9 8 10 10 10 9 10 11 11 11 11 9 13 13 16 16 14 15 15 15 13 13 14 15
-2 -2 -2 -2 -1 -0 0 0 1 1 1 1 2 2 1 1 1 0 2 7 5 8 8 9 8 8 8 6 7 6 11 11 13 14 13 12 8 13 14 14 14 14 14 14 13 15 17
-2 -2 -2 -2 -1 -0 -0 0 1 1 1 2 2 2 2 1 0 1 4 6 6 7 7 6 7 7 7 7 5 3 9 13 13 14 8 12 9 11 14 15 14 12 13 16 13 15 16
-2 -2 -2 -2 -1 -1 -0 -0 0 1 1 2 1 2 2 1 0 2 6 5 7 7 7 7 4 6 3 4 3 7 11 14 14 15 11 13 10 12 13 14 15 14 16 13 14 14 15
-2 -2 -2 -2 -1 -1 -1 -0 0 1 1 1 2 5 2 1 1 4 4 6 6 6 6 4 4 3 3 3 4 7 12 14 15 14 14 12 12 11 13 13 13 13 13 13 14 14 15
-2 -3 -3 -2 -2 -1 -1 -1 0 0 1 1 2 5 1 1 4 6 6 6 6 6 6 6 5 3 2 3 4 4 9 14 15 15 13 14 13 10 11 15 16 16 15 14 13 13 14
-3 -3 -2 -3 -2 -2 -1 -1 -0 0 1 1 4 5 2 2 5 6 6 7 7 6 6 6 3 3 3 3 3 3 8 11 12 14 13 14 12 10 9 13 14 13 14 14 12 13 13
-3 -3 -3 -2 -3 -2 -1 -1 -1 0 0 0 2 3 4 4 3 5 5 6 6 6 6 5 3 2 4 4 2 4 6 8 10 11 9 11 12 11 11 13 14 12 13 13 13 12 13
-3 -3 -3 -3 -3 -2 -2 -1 -1 -0 -0 0 1 3 3 4 5 5 5 7 6 4 5 5 4 6 4 4 3 4 4 7 9 8 10 11 10 9 12 13 14 13 13 13 12 13 12
-3 -3 -3 -3 -3 -3 -2 -1 -1 -0 -0 1 1 4 3 5 4 5 4 6 5 5 4 4 6 7 7 6 5 4 5 6 5 7 8 10 11 12 11 13 13 12 13 13 13 13 14
-3 -3 -3 -3 -3 -3 -2 -2 -1 -1 -0 1 1 1 3 4 6 6 5 5 5 6 7 6 7 6 7 6 5 5 7 7 8 8 6 7 10 11 9 12 12 11 12 13 13 11 11
-3 -3 -3 -3 -3 -3 -2 -2 -1 -1 -1 -0 1 2 4 5 6 6 5 6 6 6 6 7 6 6 6 5 7 9 8 9 10 10 10 10 10 11 10 10 10 11 13 13 12 9 8
-3 -3 -3 -3 -3 -3 -3 -2 -2 -1 -1 -1 0 1 3 3 6 5 5 6 6 7 7 7 6 5 5 7 8 9 9 9 10 10 10 11 11 10 10 11 11 10 11 10 11 6 8
-3 -3 -3 -3 -3 -4 -3 -2 -2 -2 -1 -1 -1 -1 0 2 6 4 5 5 6 7 7 7 6 5 5 9 9 9 8 9 9 10 11 11 11 11 11 10 8 7 10 10 11 6 5
-3 -3 -3 -3 -3 -4 -3 -3 -2 -2 -2 -1 -1 -1 -1 1 3 3 5 4 4 6 6 7 5 5 5 7 7 8 9 10 9 9 9 10 10 10 9 10 8 2 5 7 8 3 1
-3 -3 -3 -3 -3 -3 -3 -3 -3 -2 -2 -1 -1 -1 -1 -0 2 2 2 3 4 5 5 5 6 5 5 6 6 6 7 8 8 9 8 8 7 9 9 9 7 -0 7 5 1 -1 -1
-3 -3 -3 -3 -3 -3 -4 -3 -3 -2 -2 -2 -1 -2 -1 -1 1 -0 0 1 1 2 2 4 4 4 4 4 4 4 6 7 7 6 9 6 5 5 3 2 -1 -1 -1 -2 -1 -1 -1

GFSGBSN_850_temp_108.txt.gz
Temp
6 6 8 7 8 8 7 7 7 7 7 7 7 7 7 7 7 8 8 8 8 8 8 8 7 7 7 7 9 13 12 12 12 12 12 14 15 15 17 18 19 20 21 22 23 23 23
3 6 7 7 7 7 7 7 7 7 6 6 7 7 7 7 7 8 8 8 9 8 7 7 7 6 3 6 11 11 12 12 12 12 13 14 15 16 17 18 19 20 21 22 23 23 23
3 4 5 7 7 7 7 7 7 7 6 6 7 6 7 7 7 7 7 8 8 8 8 8 6 5 4 7 11 11 11 12 12 13 13 14 15 16 17 18 18 20 20 22 23 23 23
6 4 4 6 7 7 7 7 6 6 6 6 6 6 6 6 7 7 8 8 8 7 7 7 5 4 5 8 10 10 11 10 11 11 12 12 13 15 16 17 18 19 20 19 21 22 23
5 4 3 5 5 6 6 6 6 6 6 6 6 6 6 6 7 7 7 8 7 6 6 6 4 4 7 10 9 10 10 10 11 11 12 12 12 13 15 15 16 18 18 18 19 22 22
3 2 2 3 4 6 6 6 6 5 5 5 5 5 5 5 6 6 6 8 7 7 6 5 5 6 8 10 12 11 11 11 11 12 12 12 12 13 14 15 14 16 17 18 19 21 22
1 1 1 3 5 6 6 6 5 5 4 4 4 5 5 5 5 4 5 6 6 8 7 8 9 9 10 11 11 11 11 11 11 12 12 13 12 12 13 15 16 17 18 19 20 22 22
0 0 1 2 4 5 4 4 4 4 3 4 4 4 5 4 4 4 4 5 5 3 4 5 6 7 7 8 9 9 10 10 11 11 13 13 12 14 15 16 16 16 17 18 20 21 22
-0 -1 -0 1 3 3 4 4 4 3 3 4 4 4 4 4 4 4 5 5 4 4 5 6 8 10 10 10 10 10 11 11 11 12 12 12 14 15 15 15 16 17 17 17 17 19 21
-0 -1 -1 0 3 3 2 2 3 3 3 3 4 4 4 4 3 4 6 4 3 3 4 10 11 9 10 9 11 11 11 11 12 11 13 13 15 15 15 15 16 16 18 18 17 17 16
-1 -1 -1 1 1 1 1 2 3 3 3 3 4 4 3 2 3 4 4 3 3 3 6 13 11 8 10 10 8 9 11 11 11 11 12 12 13 15 15 16 17 17 18 17 16 16 16
-1 -1 1 -1 -0 0 1 2 2 3 3 3 3 3 3 3 3 3 3 2 3 4 7 11 11 10 10 11 11 9 11 9 8 12 12 13 15 14 16 17 17 18 15 15 14 14 13
-1 -2 -1 -1 -1 0 1 1 2 3 3 3 3 3 3 2 3 3 2 4 4 6 10 9 9 9 9 9 7 8 9 8 7 10 10 12 11 9 17 16 17 16 14 10 10 10 11
-1 -2 -2 -2 -1 -0 1 1 2 2 2 2 3 3 2 3 2 3 3 4 5 9 8 9 9 9 8 4 5 7 6 7 10 10 12 11 9 11 16 16 15 14 13 10 12 12 14
-2 -2 -1 -2 -1 -0 0 1 2 2 2 2 3 2 3 3 4 2 4 6 7 8 8 7 8 6 6 7 6 5 7 10 12 13 11 7 9 11 14 16 16 13 12 14 11 14 13
-2 -2 -2 -2 -2 -1 -0 1 2 2 2 3 3 4 5 4 4 3 5 7 8 8 9 8 4 4 3 5 4 4 8 13 13 14 12 9 8 8 13 12 14 13 14 10 10 11 11
-2 -2 -2 -2 -2 -1 -0 1 1 2 2 2 3 5 3 4 3 5 5 7 8 9 8 7 6 4 4 4 4 5 8 13 15 11 9 6 6 10 12 10 10 8 10 11 12 13 11
-2 -2 -2 -2 -2 -1 -1 0 1 1 2 3 4 6 3 4 4 6 7 8 8 9 8 8 6 4 3 3 4 4 5 7 16 10 8 11 9 10 11 14 14 10 10 11 11 14 14
-2 -2 -2 -2 -2 -2 -1 -0 1 1 2 2 5 6 4 3 5 7 8 8 9 8 7 7 5 5 3 3 3 3 4 9 10 12 10 11 9 9 8 10 12 11 14 15 12 11 13
-2 -2 -3 -2 -2 -2 -1 -0 0 1 1 2 3 4 5 5 5 6 7 7 8 8 8 7 7 5 6 4 4 3 5 9 10 10 8 11 11 11 8 10 13 12 13 14 14 12 13
-2 -3 -2 -2 -2 -2 -1 -1 0 1 1 2 2 4 5 5 6 6 7 7 7 7 7 7 7 8 6 4 4 4 4 7 10 9 9 7 7 6 7 12 14 12 13 14 13 13 12
-2 -3 -3 -2 -3 -2 -2 -1 -0 0 1 1 3 5 5 7 6 6 6 7 7 7 7 7 7 7 7 6 5 5 5 6 7 9 8 8 7 10 6 10 11 8 13 14 12 11 10
-2 -3 -3 -3 -3 -3 -2 -1 -0 -0 1 1 4 4 4 6 8 7 7 7 7 8 8 8 8 7 7 6 7 8 8 9 9 8 7 7 10 9 9 12 12 10 12 10 10 9 8
-2 -3 -3 -3 -3 -3 -2 -1 -1 -0 1 -0 1 3 5 5 7 8 7 7 8 8 7 8 8 7 7 6 8 9 10 11 11 10 9 7 9 11 9 10 8 9 11 10 8 7 8
-3 -3 -3 -3 -3 -3 -2 -2 -1 -1 -0 0 1 1 3 5 7 7 7 7 7 8 8 8 7 6 6 7 9 8 9 9 11 11 11 11 10 10 10 10 9 9 8 7 7 4 5
-3 -3 -3 -3 -3 -3 -3 -2 -1 -1 -1 0 -0 1 1 3 4 5 6 7 7 7 8 8 6 6 6 9 8 8 8 9 9 8 12 12 12 11 11 10 8 4 4 7 9 4 3
-2 -3 -3 -3 -3 -3 -3 -2 -2 -1 -1 -1 -1 -0 0 1 4 4 5 5 5 6 7 7 6 6 6 7 7 7 8 10 8 8 9 9 9 9 9 9 5 2 5 6 7 2 0
-2 -2 -3 -3 -3 -3 -3 -3 -2 -2 -1 -1 -1 -0 -0 0 2 3 3 3 4 5 4 5 6 5 5 5 6 6 7 8 6 9 8 6 6 6 7 6 5 1 4 3 0 -1 -0
-3 -3 -3 -3 -3 -3 -3 -3 -3 -2 -2 -1 -1 -1 -1 -1 1 1 1 2 2 3 3 4 5 5 5 5 5 4 5 7 8 5 8 5 5 5 3 2 0 -0 -1 -1 -1 -1 -1

GFSGBSN_850_temp_114.txt.gz
Temp
9 9 9 9 9 9 9 9 9 8 9 9 9 9 9 8 8 8 9 9 9 9 9 9 9 9 8 7 12 12 12 11 11 11 11 12 11 11 10 11 12 12 14 15 16 16 17
9 9 9 9 9 9 9 9 9 9 8 8 8 9 9 8 8 9 9 10 10 10 9 9 8 7 6 3 13 11 10 10 10 11 11 11 11 12 11 11 11 13 13 14 15 15 16
9 8 8 8 8 9 9 9 8 9 8 8 8 9 9 9 9 9 10 10 10 9 8 7 6 4 3 10 10 11 11 11 11 10 10 10 11 11 12 10 12 13 12 13 14 15 15
9 8 8 8 7 8 8 8 8 8 9 8 8 8 8 9 9 9 9 9 9 8 8 7 6 3 4 10 10 10 9 10 10 11 11 10 11 10 10 11 11 10 11 10 14 14 16
9 7 8 5 6 7 8 7 8 8 8 8 8 8 8 8 8 9 9 9 9 8 8 7 5 4 6 9 9 10 10 9 9 10 10 11 11 11 10 8 7 8 9 10 12 14 14
8 6 5 5 5 5 7 7 7 7 8 8 7 7 8 8 7 7 7 9 8 7 7 6 5 4 7 8 8 9 10 9 8 9 10 10 10 8 8 6 6 8 9 9 10 13 14
7 5 4 4 4 5 6 6 7 8 8 7 6 7 7 7 6 5 7 8 8 7 7 6 6 5 7 9 9 10 10 9 9 9 7 9 7 7 8 8 9 9 8 9 10 13 13
6 4 3 3 3 4 4 5 6 7 7 7 6 6 7 6 5 5 4 5 3 4 3 7 7 5 9 9 7 10 9 8 8 6 6 6 6 8 9 10 9 9 8 9 10 12 13
6 4 3 2 2 2 3 4 5 5 6 7 5 6 6 6 5 4 4 4 3 4 2 7 9 9 9 9 9 9 9 8 6 5 6 5 7 9 9 9 9 9 8 9 9 11 13
5 3 1 1 1 2 2 4 4 5 5 5 5 5 5 6 5 4 4 4 3 3 1 9 9 9 9 9 8 9 9 8 5 6 6 4 6 7 8 8 10 7 10 10 11 10 9
3 2 1 1 1 2 3 5 4 4 4 4 5 4 5 5 4 4 4 4 4 3 5 9 10 9 9 8 8 8 8 8 7 7 6 7 8 7 6 9 11 8 8 10 11 10 11
2 1 1 0 -1 2 3 3 3 3 3 4 3 4 4 4 4 4 4 4 4 3 5 8 9 8 7 8 8 8 7 7 7 6 6 6 8 8 8 10 10 10 9 11 8 8 8
1 1 0 -0 -1 0 1 1 1 2 3 2 3 4 4 4 4 4 4 4 4 3 8 7 7 8 7 7 7 7 6 5 4 4 4 7 7 8 10 8 10 8 7 4 7 7 8
0 0 -0 -0 -0 -1 -1 0 1 2 2 3 3 4 4 4 4 4 4 3 4 7 7 8 7 7 5 6 6 6 4 4 6 5 5 4 5 8 10 9 9 10 9 7 8 7 9
-0 -0 -0 -1 -1 -1 -1 -0 1 2 2 3 3 4 4 4 4 4 3 0 5 6 7 7 6 4 3 5 5 4 4 5 7 6 4 4 7 8 10 10 9 8 8 10 8 8 8
-1 -0 -1 -1 -1 -2 -2 0 0 2 2 3 3 4 4 4 4 4 1 5 6 8 7 6 3 4 3 4 4 3 6 7 6 6 7 7 6 8 8 9 10 8 10 8 6 7 7
-1 -1 -1 -1 -1 -2 -1 -0 1 1 2 3 3 3 4 4 4 4 -1 4 7 7 7 5 5 4 2 3 3 3 5 6 5 5 7 7 6 8 6 9 8 9 9 8 8 7 7
-0 -1 -1 -1 -2 -1 -0 -0 1 1 2 2 3 1 4 4 3 1 -1 6 7 7 7 6 6 4 2 2 3 2 3 4 5 6 6 7 4 5 7 7 9 7 9 9 6 8 8
-1 -1 -1 -1 -1 -2 -1 0 1 2 2 3 3 4 3 3 -0 -2 3 6 7 7 6 6 5 4 3 2 -0 0 3 6 6 7 7 7 6 7 7 6 8 8 9 11 7 6 8
-1 -1 -1 -1 -2 -2 -1 0 1 1 2 3 3 -1 3 3 4 3 4 5 5 7 7 7 5 4 2 -1 0 1 2 6 6 7 8 7 7 6 6 7 6 7 9 9 8 7 6
-1 -2 -1 -2 -2 -1 -0 0 0 1 2 3 2 0 3 -1 1 3 4 5 5 5 7 6 4 4 3 -1 1 1 3 5 6 7 6 6 5 5 6 6 6 5 7 6 7 6 6
-2 -1 -2 -2 -2 -1 -0 -0 0 1 2 2 3 3 4 3 5 4 3 5 5 5 5 4 5 4 4 4 3 2 4 4 4 6 5 7 5 4 5 5 5 5 4 5 5 5 4
-1 -2 -2 -2 -2 -2 -1 -1 0 1 1 1 2 3 4 3 3 1 0 4 5 5 6 6 5 4 3 4 5 5 5 5 5 5 6 6 6 5 5 5 6 5 4 3 3 3 4
-2 -2 -2 -2 -2 -2 -1 -1 0 1 1 1 1 2 3 -1 2 3 5 6 5 5 4 5 5 4 5 6 6 8 7 6 6 7 7 7 6 6 5 6 5 3 2 4 2 2 2
-2 -2 -2 -2 -2 -2 -2 -1 0 0 0 1 1 2 2 -2 2 3 4 4 4 4 4 4 5 5 5 5 4 5 5 6 7 8 7 8 6 6 6 6 4 4 2 1 3 1 1
-2 -1 -2 -2 -2 -2 -2 -1 -1 -0 0 1 1 2 2 1 0 2 3 3 1 1 1 4 5 5 5 2 1 5 5 6 6 7 7 7 6 5 5 5 4 1 1 2 3 1 0
-2 -2 -2 -2 -2 -2 -2 -1 -1 -1 -0 0 1 1 2 2 2 2 1 2 3 2 0 1 3 3 4 -1 2 2 4 6 5 4 5 4 4 3 5 4 3 -0 1 3 3 1 -1
-2 -2 -2 -2 -2 -2 -2 -2 -1 -1 -0 0 0 1 1 1 2 2 3 3 3 2 -2 2 0 2 -0 -0 1 1 2 4 4 5 4 3 3 2 3 3 2 -1 1 2 -1 -2 -2
-2 -2 -2 -2 -2 -2 -3 -2 -2 -1 -1 -0 0 0 1 1 1 2 3 3 2 2 2 2 2 2 1 -1 1 1 1 2 3 2 4 2 2 1 1 0 -1 -2 -2 -2 -2 -2 -2

GFSGBSN_850_temp_117.txt.gz
Temp
11 10 10 10 10 10 10 11 11 10 10 10 10 10 10 10 10 10 10 10 9 9 9 8 9 11 10 9 11 11 11 11 10 11 11 10 10 11 9 9 11 10 12 13 14 14 14
10 10 10 10 10 10 10 10 11 10 10 10 10 10 10 10 10 10 10 9 9 9 8 8 7 8 8 7 10 10 10 10 10 10 10 10 10 10 10 10 10 11 11 11 12 12 13
10 10 10 9 10 10 9 10 10 10 10 9 9 10 10 10 10 9 9 9 9 9 8 7 7 7 7 10 9 9 9 9 9 9 9 10 10 10 10 8 10 11 9 10 11 12 12
10 9 10 10 9 9 9 9 9 9 9 9 9 9 10 10 9 9 9 9 10 9 9 8 6 6 8 9 10 10 10 10 10 10 9 10 10 10 9 10 9 8 8 7 11 11 12
9 9 9 9 9 9 8 9 9 8 8 8 8 9 8 9 9 9 9 9 9 9 8 7 6 5 7 9 10 10 10 9 10 10 10 10 10 10 9 7 6 7 6 7 9 11 11
9 8 9 9 8 8 7 7 7 6 7 8 8 8 8 8 8 8 8 9 8 7 6 5 5 4 9 9 10 10 9 9 9 9 10 10 10 6 5 6 5 6 6 6 6 9 10
8 8 8 8 7 6 5 5 6 4 7 8 7 7 7 8 7 6 8 8 8 7 6 7 6 7 9 9 9 9 9 9 8 8 6 8 6 4 5 6 7 8 7 7 8 9 9
8 8 8 8 6 5 3 3 4 5 6 6 8 7 7 7 6 5 6 6 4 4 4 8 7 7 8 8 7 9 9 9 8 6 6 5 4 7 7 7 7 7 7 7 8 9 9
8 8 8 6 5 4 3 3 2 4 5 6 7 7 6 6 5 5 5 4 3 3 2 7 8 7 9 8 8 8 8 8 6 5 5 4 6 7 7 7 7 7 7 7 7 9 9
8 8 7 6 5 4 1 2 3 3 4 5 6 6 6 5 5 4 4 4 4 4 1 8 9 9 9 8 8 9 8 8 5 5 6 5 6 6 6 6 7 6 8 9 8 7 6
8 8 7 5 4 3 1 1 2 2 3 4 4 5 5 5 5 4 4 4 4 4 7 9 9 9 8 8 8 8 8 7 6 6 6 5 6 6 6 7 8 6 9 9 7 6 6
8 7 5 4 3 2 1 1 0 2 3 3 4 4 4 5 4 4 4 4 4 4 6 7 8 7 7 7 7 7 7 7 7 5 5 5 7 6 6 8 8 8 8 8 7 6 4
7 4 3 3 2 1 1 1 1 1 3 4 4 4 4 4 4 4 4 4 3 4 7 7 6 6 6 5 5 5 5 4 3 3 4 5 5 6 7 6 7 8 7 5 4 4 7
4 4 3 2 1 0 0 0 1 1 3 3 3 4 3 4 4 4 4 3 6 6 6 8 7 6 4 4 5 4 4 4 6 3 3 3 5 7 7 6 7 7 7 6 7 8 8
2 1 1 0 -0 -1 -0 0 1 2 2 2 3 3 3 4 4 4 4 1 5 6 7 6 5 4 3 5 4 3 4 6 4 5 4 4 5 8 9 8 9 8 7 9 7 9 7
-1 -0 -0 -1 -1 0 1 1 1 1 2 3 2 3 3 4 4 4 1 5 6 7 7 6 3 4 1 3 1 2 4 6 5 6 6 6 5 8 8 8 8 9 8 6 5 8 7
0 0 -0 -1 -0 0 1 1 1 1 2 2 3 4 3 3 4 4 -1 3 6 7 7 5 4 2 1 1 2 3 5 6 6 7 7 6 6 6 7 8 8 7 6 7 9 9 7
-1 -1 -1 -0 -0 -1 -1 0 1 2 2 2 3 1 3 4 2 -1 -0 4 7 6 6 6 5 4 1 1 3 3 3 4 6 6 6 7 5 5 6 7 8 7 8 8 6 8 8
-1 -1 -1 -1 -1 -2 -2 0 1 2 2 3 3 3 3 3 0 -1 3 6 7 6 6 5 5 3 2 -1 0 -0 2 5 5 5 6 7 6 6 8 8 9 8 8 7 7 6 6
-1 -1 -1 -1 -2 -2 -2 0 1 2 3 3 4 -1 3 3 3 3 4 5 5 6 6 6 5 3 0 -2 0 0 1 5 6 5 7 6 5 5 6 6 5 6 9 8 7 6 4
-1 -1 -1 -1 -2 -2 -1 0 1 2 2 4 3 0 2 -1 1 2 3 5 5 5 6 5 3 4 1 -2 -1 -1 1 4 5 6 5 5 5 4 4 4 5 5 8 6 6 5 4
-1 -1 -1 -1 -2 -1 -0 -0 1 2 3 3 3 2 3 2 4 3 3 4 5 5 4 3 4 4 3 3 2 2 2 4 3 4 4 6 5 4 4 5 4 3 3 4 3 3 2
-1 -1 -1 -2 -2 -1 -1 -0 1 2 2 2 2 3 4 1 2 1 0 4 4 5 5 5 4 3 3 3 4 4 4 4 4 4 4 5 5 5 5 5 5 3 2 2 2 2 4
-1 -2 -2 -1 -2 -2 -1 0 1 2 2 4 3 3 3 -0 1 2 4 5 4 5 4 4 4 4 5 5 6 6 4 3 3 5 4 5 5 6 5 6 4 2 1 2 2 1 1
-2 -2 -1 -2 -2 -2 -1 -0 1 1 2 3 3 3 3 -1 1 3 3 3 3 3 3 4 4 4 4 4 3 5 4 6 7 6 6 5 5 5 5 4 3 2 1 1 2 1 0
-2 -2 -1 -2 -2 -2 -1 -1 0 0 2 3 3 3 3 1 0 2 2 2 1 0 1 3 4 4 4 0 1 4 4 5 4 5 6 5 5 5 5 5 4 1 -0 -0 2 1 -1
-2 -2 -2 -2 -2 -2 -2 -1 -1 1 1 2 2 2 3 2 2 3 1 1 2 1 -0 0 2 2 3 -2 1 2 3 5 3 3 4 3 3 3 4 3 2 -1 -1 0 3 0 -1
-2 -2 -2 -2 -2 -2 -2 -1 -1 0 1 1 1 2 2 2 2 2 2 2 2 2 -2 1 -1 1 -1 -1 0 1 1 3 3 3 3 2 2 2 3 2 2 -2 0 1 -1 -2 -2
-2 -2 -2 -2 -2 -2 -2 -1 -1 -0 0 1 1 1 2 2 2 2 3 3 2 2 2 2 2 1 1 -2 1 -0 0 1 2 1 3 2 1 1 1 -0 -2 -2 -2 -2 -2 -2 -2

GFSGBSN_850_temp_123.txt.gz
Temp
10 10 10 10 10 10 10 10 11 11 10 10 11 10 10 9 10 10 11 11 11 11 11 11 11 12 12 12 11 10 10 11 11 10 11 11 10 9 10 9 10 10 10 10 10 10 10
9 9 10 10 9 9 10 10 10 10 11 10 10 10 10 10 9 10 10 10 10 11 11 11 11 11 11 10 10 10 10 10 10 10 10 10 10 9 9 9 9 9 9 10 10 10 10
7 8 8 9 9 9 9 9 9 10 10 10 10 10 10 10 9 10 10 9 10 10 10 11 11 10 10 9 9 10 10 10 10 10 10 9 9 9 9 9 9 9 9 11 12 10 11
8 8 7 8 9 8 10 9 9 9 9 9 9 10 9 9 9 9 10 9 10 10 10 10 10 9 10 10 9 10 10 10 10 10 9 9 9 9 9 9 9 9 9 9 10 11 11
7 7 7 7 8 8 9 8 8 8 8 8 8 9 9 8 8 9 9 9 9 9 9 9 9 9 9 9 9 10 9 9 9 9 9 9 9 9 8 9 8 7 9 9 10 11 11
6 6 7 7 8 8 9 8 9 8 8 8 7 7 8 7 8 7 8 9 8 7 7 8 8 8 9 9 9 9 9 9 9 9 9 9 8 8 7 8 8 9 8 9 8 10 10
5 7 7 7 7 7 7 8 8 8 8 7 5 6 6 7 7 7 7 8 7 7 7 8 8 8 9 9 9 9 8 8 8 8 8 6 8 8 8 8 9 9 8 7 9 10 9
4 5 7 8 8 7 7 7 7 7 7 7 5 6 5 6 7 6 6 8 8 9 7 7 8 8 8 8 8 8 8 8 7 7 6 6 7 8 7 7 6 7 6 7 8 9 9
3 5 5 7 9 8 7 7 7 7 8 7 5 5 3 4 5 6 7 7 8 8 7 6 7 8 8 8 7 8 8 7 7 5 6 6 8 7 7 7 6 7 6 7 7 8 9
4 6 7 9 10 10 7 7 7 6 8 7 5 4 3 3 4 5 6 7 7 7 6 7 7 8 8 8 7 7 7 7 6 6 6 6 6 6 6 6 6 6 7 7 7 7 7
6 7 9 10 11 10 8 6 7 6 6 6 4 5 3 1 4 4 6 7 6 5 10 7 7 7 7 7 7 7 7 6 6 6 5 7 6 6 6 7 7 7 8 7 7 7 7
6 9 11 12 10 8 5 5 6 5 6 7 4 4 3 3 3 4 5 5 5 7 9 7 7 7 6 6 6 6 6 6 5 5 5 6 6 6 7 7 7 8 7 7 7 6 6
6 10 11 7 7 6 5 5 5 5 6 5 5 3 2 2 2 3 4 4 6 8 7 6 6 6 5 5 5 5 5 5 6 6 6 5 6 6 6 6 6 6 6 7 7 6 8
7 10 8 7 6 5 5 5 5 4 6 4 2 1 1 2 4 4 3 4 7 6 6 6 6 5 5 4 4 4 4 5 5 5 4 5 7 7 7 8 8 6 7 7 6 8 8
5 8 7 6 6 5 5 5 5 5 4 2 0 -0 2 3 3 3 3 4 7 6 6 5 5 5 4 4 4 3 4 5 5 5 5 6 6 7 7 8 8 7 7 9 7 8 7
2 7 6 5 6 6 5 4 1 4 1 0 -1 -0 1 2 2 2 2 6 6 6 6 5 4 4 3 3 3 3 4 5 6 6 5 5 6 8 8 8 8 8 9 7 7 6 7
1 1 4 4 5 4 2 0 1 1 -0 -1 -1 0 1 2 2 3 2 4 6 6 6 5 4 4 3 2 2 4 4 6 6 6 6 5 5 7 7 7 8 7 7 8 8 7 7
4 1 -1 -1 0 -0 -0 -1 -1 -1 -0 -1 0 0 1 2 2 0 2 5 6 5 6 5 4 4 3 2 3 2 3 5 6 5 5 6 4 5 7 9 8 8 8 8 7 8 7
1 3 1 2 1 -1 -1 -2 -1 -1 -1 1 0 -0 0 1 1 1 3 5 6 5 5 5 4 3 1 0 2 -0 2 4 4 5 5 4 5 5 7 8 8 7 7 7 8 7 5
-1 -1 -1 -1 -1 -1 -1 -0 -0 -1 1 2 2 0 1 1 2 3 4 4 5 5 5 4 3 2 1 -1 -1 -0 2 4 4 4 5 4 4 4 4 3 3 4 6 8 7 6 4
-1 -1 -1 -2 -2 -2 -1 -1 -1 0 1 3 3 0 3 1 2 3 4 5 5 4 4 4 3 4 2 -0 0 -0 1 3 5 5 5 5 5 4 4 3 2 2 3 4 4 3 4
-1 -1 -1 -2 -1 -1 -2 -1 -1 0 1 2 3 2 2 2 3 3 3 4 4 4 4 4 4 4 3 4 4 3 3 3 4 5 4 5 5 4 4 4 3 2 1 2 3 2 1
-1 -2 -2 -2 -2 -1 -1 -0 0 1 2 3 3 4 5 1 2 4 3 3 4 3 4 4 4 4 3 3 3 4 4 4 4 4 3 4 4 5 5 4 4 3 1 1 2 1 2
-1 -2 -1 -1 -2 -1 0 1 1 2 3 4 4 5 4 1 3 3 4 4 3 4 3 3 4 4 3 4 4 2 0 1 2 3 3 4 4 5 6 5 4 2 1 1 0 0 0
-1 -1 -1 -2 -1 0 0 1 2 2 3 4 5 5 4 0 2 3 3 2 2 3 3 3 3 3 3 3 5 5 5 5 4 4 4 3 3 5 5 5 3 2 1 1 2 0 -1
-1 -1 -1 -1 -0 1 0 0 1 2 4 3 5 5 5 3 2 3 2 3 2 2 2 2 2 3 3 2 4 5 5 5 5 5 5 4 3 4 5 5 5 1 0 0 1 1 -1
-1 -2 -2 -1 1 1 0 0 1 2 3 3 4 5 5 1 1 3 2 2 2 1 1 0 1 2 2 2 3 4 4 4 4 4 4 4 4 3 4 4 2 -0 -1 0 3 1 -2
-1 -1 -1 -2 -1 -0 -1 0 1 2 2 3 4 5 5 2 1 2 3 2 1 2 1 0 1 1 -0 2 3 2 3 3 3 3 3 3 3 2 3 3 3 -2 -0 2 -1 -2 -3
-2 -1 -2 -2 -2 -1 -0 0 1 1 2 3 4 4 4 4 1 2 2 2 3 3 2 0 1 -0 0 1 1 2 2 1 3 2 3 2 2 2 1 1 -2 -3 -3 -2 -2 -3 -4

GFSGBSN_850_temp_129.txt.gz
Temp
10 9 9 9 10 10 10 10 10 10 10 10 10 10 9 10 11 10 10 11 11 11 12 13 12 12 13 13 15 12 12 12 12 12 14 15 16 17 19 19 19 19 20 19 18 17 17
10 9 9 9 9 9 10 9 10 10 10 9 9 10 9 9 10 10 10 10 11 11 11 11 12 12 11 14 12 12 11 11 12 13 14 14 15 15 16 17 18 18 17 18 18 18 18
9 9 9 9 9 8 9 9 9 9 9 9 9 9 9 9 9 10 9 10 10 11 11 11 11 12 10 14 11 11 11 11 11 12 13 13 13 14 16 18 17 16 17 19 20 18 18
4 5 8 9 9 8 8 8 8 9 9 8 9 8 8 8 9 9 9 9 10 10 11 10 10 9 13 12 11 11 11 12 11 11 11 12 12 13 14 16 16 17 18 18 19 18 18
4 4 4 4 7 8 8 7 8 8 8 8 8 8 8 8 8 8 8 9 9 10 10 10 9 8 14 10 11 11 11 12 12 11 11 11 12 14 15 16 18 20 19 19 20 20 19
5 4 3 3 4 6 7 7 7 7 7 7 7 7 8 7 7 7 7 8 8 9 9 8 8 9 11 12 12 11 11 11 12 12 12 12 14 16 18 18 18 18 18 18 18 19 18
4 5 4 3 3 4 6 6 6 6 7 7 7 7 7 7 7 7 6 7 7 8 8 13 13 13 13 12 10 11 11 11 12 13 15 15 16 17 18 17 16 16 16 16 18 18 16
3 4 5 4 4 3 3 6 6 6 6 6 6 6 7 8 7 6 5 6 6 7 10 11 11 10 11 11 12 12 11 13 13 15 15 15 15 17 15 14 14 15 15 16 17 18 16
2 2 5 6 5 5 6 6 6 6 6 7 6 5 5 6 7 4 6 5 6 7 8 12 11 11 10 10 13 13 11 13 14 15 15 15 17 14 14 15 15 16 15 15 15 16 16
1 2 2 2 4 5 5 5 5 6 7 7 6 5 6 6 4 4 3 4 5 5 4 11 11 11 10 11 12 12 11 12 13 14 15 15 16 14 14 14 14 14 15 14 14 14 15
1 3 3 3 3 5 5 6 6 6 7 7 6 5 5 6 6 3 5 4 4 5 6 11 12 11 11 12 12 11 10 11 14 14 13 15 14 14 14 14 13 14 13 13 13 14 15
0 1 3 4 4 6 7 8 7 7 8 7 5 5 5 6 3 5 4 4 4 3 6 10 12 11 12 12 12 12 11 10 12 13 14 15 14 13 15 14 13 14 13 14 15 15 14
1 3 3 3 4 6 7 7 8 9 9 8 4 4 5 5 4 4 4 3 3 5 11 11 10 11 12 12 12 12 12 12 13 12 13 15 14 14 13 13 14 13 14 13 14 14 15
1 2 2 1 3 6 7 8 9 9 9 4 3 4 5 3 4 3 3 4 5 11 12 12 12 11 11 12 12 12 12 13 13 13 15 15 13 14 14 14 14 14 13 13 12 14 15
1 1 2 2 5 7 8 8 9 8 6 3 4 2 4 2 3 2 3 4 8 12 11 11 11 10 11 10 11 11 12 14 14 12 12 12 14 15 14 14 14 12 12 14 12 13 12
1 1 2 3 5 8 8 8 7 7 5 3 1 1 0 1 1 1 3 7 11 13 13 12 10 11 9 10 8 10 12 14 11 12 12 12 10 13 14 13 14 13 13 11 12 10 11
0 0 1 3 5 7 7 6 7 6 3 2 1 1 -0 0 0 1 4 6 10 10 11 10 11 10 10 10 9 10 12 12 12 11 12 11 10 12 13 13 13 12 11 11 13 12 11
0 0 1 2 4 7 7 6 6 4 2 2 2 0 0 0 1 1 4 9 11 10 8 8 11 10 9 9 9 11 11 11 11 12 10 10 8 9 13 14 14 13 12 11 11 12 12
0 0 0 1 3 5 4 4 5 3 2 2 -1 -0 -1 -0 3 3 8 8 10 10 9 9 7 7 8 5 6 5 11 11 10 11 11 10 8 11 11 12 13 12 11 10 9 8 9
0 -1 -0 0 1 1 0 0 1 1 3 4 0 0 -1 -1 0 6 8 9 9 9 10 10 9 6 6 4 5 4 8 9 9 10 7 8 11 10 11 8 9 7 8 9 10 8 8
-0 -0 -0 -0 -0 -0 -0 -0 0 1 1 3 1 3 3 2 2 7 8 8 9 9 9 9 7 8 7 4 7 5 9 9 9 7 8 8 8 7 9 8 7 4 5 5 6 6 7
-1 -1 -1 -1 -0 -0 -1 -0 -1 -0 -0 1 0 4 4 5 5 5 6 7 7 8 8 8 9 10 10 8 8 7 7 10 10 10 8 9 6 5 5 7 7 4 4 4 5 5 4
-1 -1 -1 -1 -1 -1 -0 0 -0 -0 0 -0 1 3 4 3 4 4 4 6 7 8 8 8 10 9 10 10 10 10 10 10 11 10 10 8 8 8 8 6 7 7 3 4 5 6 6
-1 -1 -1 -1 -1 -1 -1 -1 -0 -0 0 1 1 2 4 3 3 4 7 8 8 8 8 10 9 10 7 7 7 7 8 9 9 10 10 10 10 9 8 8 7 3 5 5 4 4 4
-1 -1 -1 -1 -1 -1 -1 -0 -0 -0 1 1 2 3 5 4 5 7 8 9 9 8 9 9 8 7 6 7 10 9 8 8 9 10 9 10 10 9 9 9 5 4 5 5 5 3 4
-1 -1 -1 -1 -1 -1 -1 -0 -0 1 1 1 3 4 6 7 6 7 9 8 8 8 7 5 4 5 6 10 10 9 9 11 9 8 10 10 9 8 10 9 8 7 7 6 6 5 4
-1 -1 -1 -1 -2 -1 -1 -0 -0 1 3 3 4 6 6 8 9 9 9 8 9 8 8 6 5 6 6 9 9 10 10 12 10 10 8 8 10 8 9 9 6 7 5 4 5 4 3
-1 -1 -1 -1 -2 -1 -1 -1 0 2 3 2 4 5 6 6 5 6 6 6 7 8 8 7 6 6 7 8 10 10 10 10 10 11 9 10 9 8 9 8 7 4 4 4 3 3 2
-1 -1 -1 -1 -2 -1 -0 0 0 2 3 4 4 4 5 6 3 2 3 4 4 5 7 5 8 7 8 10 10 10 8 9 10 8 9 8 9 8 6 4 1 2 3 3 3 2 2

GFSGBSN_850_temp_132.txt.gz
Temp
10 10 10 9 9 9 10 10 10 10 10 10 10 10 10 10 10 10 10 10 11 11 12 12 12 12 13 13 16 15 14 14 14 13 15 16 16 18 19 20 21 20 21 21 21 20 19
10 10 10 10 10 10 9 9 10 9 10 10 9 9 9 9 9 10 10 10 11 11 11 12 12 11 10 14 14 13 13 13 13 14 15 15 16 16 16 18 19 20 19 19 19 19 19
8 9 9 10 9 9 9 9 10 9 9 9 9 9 8 9 9 9 9 9 10 11 11 11 11 11 10 13 13 13 12 13 13 13 14 15 14 15 17 18 18 18 17 19 20 20 19
6 6 7 8 9 9 9 9 8 8 8 9 8 8 8 8 8 9 9 8 9 10 11 11 11 10 11 13 13 12 13 13 13 13 13 13 13 14 15 16 17 17 18 18 20 20 20
6 6 5 6 6 8 8 8 8 7 8 8 8 8 7 8 8 8 8 8 9 10 10 10 10 10 12 13 13 13 13 14 14 13 13 13 13 14 16 16 17 19 18 20 21 22 21
5 6 6 5 5 4 5 8 7 7 6 7 7 7 7 7 7 7 7 8 8 9 9 9 8 10 12 13 13 13 13 12 13 14 14 13 14 15 17 17 16 18 19 19 19 20 20
2 3 6 6 5 4 3 4 5 6 6 6 6 7 7 7 7 6 7 7 8 8 8 12 14 13 15 14 13 12 13 13 13 14 15 16 16 16 18 18 17 17 17 17 18 20 19
1 2 3 4 6 5 4 4 4 5 6 6 6 6 6 6 6 7 6 6 7 7 9 11 11 12 14 14 14 13 13 13 14 15 17 16 15 18 17 17 16 16 16 17 18 19 18
1 1 1 2 4 6 6 6 6 6 6 6 6 5 5 5 6 5 6 6 5 7 6 9 11 13 13 12 13 15 13 14 15 15 16 16 18 17 16 16 16 16 16 17 16 17 17
1 1 1 1 3 4 4 3 5 5 5 5 5 5 4 4 5 5 4 4 5 6 4 9 12 13 13 13 13 14 14 14 15 15 16 17 18 17 16 16 17 15 17 15 15 15 14
1 0 1 3 4 5 5 5 5 6 5 5 5 5 3 3 4 4 5 4 5 6 8 13 13 13 14 12 14 14 14 13 14 15 15 15 16 15 15 16 16 15 15 14 14 14 14
1 1 1 2 4 6 6 6 6 6 7 6 5 5 3 3 4 4 4 4 4 5 6 11 13 13 13 13 14 14 13 12 13 15 16 15 17 16 16 17 15 15 14 15 15 15 13
1 1 1 2 3 5 6 7 7 6 6 5 5 5 3 3 4 3 4 4 4 6 12 12 12 12 13 13 13 14 12 12 13 11 12 15 15 16 15 15 15 14 13 13 14 13 14
1 1 2 2 4 5 6 7 7 6 5 5 5 4 3 3 4 3 4 4 5 11 12 14 13 12 12 13 13 14 13 12 14 14 14 14 14 16 15 14 16 15 15 13 12 14 14
1 1 2 3 4 6 7 7 7 6 6 5 3 3 3 3 3 3 4 4 7 11 14 13 13 12 12 13 13 13 12 13 14 14 12 13 15 17 16 15 15 14 13 15 13 13 12
1 1 2 2 4 6 6 6 7 7 7 5 3 3 2 3 2 3 4 6 8 12 13 14 12 13 11 12 10 11 12 14 14 14 14 13 11 15 15 15 15 14 15 12 13 10 12
1 1 1 2 2 5 6 7 7 7 6 6 3 2 2 2 1 2 4 6 8 10 12 11 13 12 12 11 10 10 12 13 14 12 12 12 11 13 15 13 13 13 12 13 12 12 11
1 1 1 1 1 3 6 7 8 7 5 3 2 1 1 1 2 2 4 7 8 11 12 14 13 13 12 11 10 10 11 12 13 12 11 12 8 8 13 15 16 14 13 12 9 11 13
1 1 1 1 1 2 5 7 7 5 5 2 0 1 1 1 4 2 6 7 9 11 12 12 11 12 11 7 6 6 10 13 13 13 11 11 8 9 12 13 14 13 12 12 10 8 9
1 1 0 0 1 2 3 4 4 3 2 2 1 0 0 1 2 5 5 6 7 10 11 9 10 8 7 6 6 5 7 11 11 11 9 9 10 10 8 8 11 10 9 9 9 8 9
0 1 0 -0 1 1 1 0 0 -0 -0 1 2 2 1 1 1 5 7 7 9 9 10 10 8 7 6 4 6 6 9 9 10 8 9 9 8 8 10 9 8 5 6 6 7 7 7
0 0 -0 -0 -0 -0 0 0 -0 -0 0 2 2 3 3 4 3 5 6 6 9 9 10 10 8 9 8 6 7 5 8 9 9 9 9 9 8 5 4 8 8 4 4 3 7 6 5
0 -0 -0 -0 -0 -1 -0 -0 -0 0 0 0 3 6 6 5 6 5 5 7 8 9 10 10 9 10 9 11 10 10 11 11 11 9 8 9 8 8 7 6 8 6 4 5 7 7 7
-0 -0 -1 -1 -1 -1 -1 -1 -0 -0 0 1 2 5 5 5 6 6 7 8 8 8 7 9 9 10 8 8 8 9 9 10 10 10 9 9 9 9 9 7 7 3 6 7 6 5 5
-0 -1 -1 -1 -1 -1 -1 -0 -0 -0 -0 0 1 2 2 3 6 4 6 6 5 6 7 7 10 9 7 8 8 8 8 9 9 11 11 11 9 8 9 8 5 4 6 6 6 5 5
-1 -1 -1 -1 -1 -1 -1 -1 -1 -0 1 1 1 2 3 3 3 4 4 4 4 6 8 6 6 7 7 9 9 9 8 10 9 10 11 10 11 9 9 8 8 7 8 8 8 6 5
-1 -1 -1 -1 -1 -1 -1 -1 -1 -0 0 1 1 2 3 5 5 6 7 6 7 7 6 6 5 6 7 8 8 9 10 12 9 9 8 9 9 8 9 9 6 8 7 7 5 5 5
-1 -1 -1 -1 -1 -1 -1 -1 -0 -0 0 1 2 3 3 5 6 7 7 7 8 8 6 6 7 7 7 8 9 10 10 11 10 12 9 9 9 9 9 9 6 6 5 5 4 4 4
-1 -1 -1 -1 -2 -1 -1 -1 0 1 2 2 2 3 4 4 2 5 5 6 7 7 8 7 8 8 8 9 10 11 9 9 10 8 10 9 9 7 5 4 3 3 3 4 4 3 3

GFSGBSN_850_temp_135.txt.gz
Temp
10 10 10 10 10 9 10 10 10 10 10 10 10 10 10 10 10 10 10 10 10 11 11 12 12 13 14 13 14 15 15 15 15 14 14 15 16 16 16 15 17 18 19 19 20 19 19
10 10 10 10 10 10 10 10 9 10 9 10 10 10 10 9 10 10 10 9 10 10 11 11 12 12 12 11 14 15 15 15 14 14 14 15 15 15 16 16 16 18 18 18 18 18 18
9 9 9 10 10 10 9 9 9 9 9 9 9 9 9 9 9 9 9 10 10 10 10 10 11 11 11 14 14 13 13 14 13 13 13 14 14 14 14 14 17 17 15 15 17 18 16
8 7 7 8 9 10 9 8 8 8 8 8 8 8 8 8 8 9 9 9 9 10 10 10 10 10 11 14 14 13 13 13 13 13 13 13 13 13 14 15 15 15 15 14 16 17 18
6 7 6 6 7 8 8 7 8 7 7 7 7 7 8 8 7 8 7 8 8 9 9 10 10 9 10 13 13 14 13 13 14 13 13 13 13 13 14 12 12 14 12 14 16 17 16
5 6 6 6 7 6 6 6 7 6 6 6 6 6 7 7 7 7 7 7 7 8 9 9 9 9 12 13 14 13 13 13 13 13 14 13 13 11 11 11 11 14 14 14 15 16 17
4 4 5 7 7 6 6 5 4 4 5 6 6 6 6 7 7 6 6 7 8 8 8 10 11 12 14 14 14 13 13 13 13 13 11 14 10 10 11 12 15 15 14 14 14 16 17
2 2 3 5 6 6 6 5 4 3 3 4 5 5 6 7 5 5 6 6 7 7 7 9 11 10 12 13 14 13 13 13 13 11 12 12 11 14 15 16 15 14 13 13 14 16 15
1 1 1 1 2 5 6 6 5 4 3 3 4 4 5 6 4 5 5 5 5 6 6 8 10 11 12 13 13 13 14 13 13 12 13 12 14 16 16 15 15 14 13 13 14 13 14
2 1 1 0 1 3 5 4 3 3 3 3 3 4 3 4 3 3 5 5 5 6 4 8 10 11 12 13 13 13 14 13 13 13 13 13 15 16 15 15 15 13 15 14 14 12 10
1 1 1 0 1 2 3 5 4 3 3 4 3 3 3 4 3 4 4 5 5 5 7 13 13 13 13 13 14 13 13 14 12 13 14 13 15 14 14 15 16 14 14 13 13 11 10
1 1 1 1 1 2 3 4 5 5 3 3 4 3 2 2 2 3 4 4 5 5 6 11 12 13 13 13 13 14 13 13 12 12 12 12 15 15 14 16 15 14 13 12 12 10 7
1 1 1 1 1 2 3 4 5 5 4 2 3 3 3 3 3 3 4 4 4 5 12 11 11 12 12 12 12 12 12 10 9 10 10 13 14 14 15 13 14 13 11 7 8 7 9
1 1 1 1 1 2 2 4 5 5 3 2 2 3 3 2 2 3 3 4 4 8 9 14 12 11 10 11 11 11 10 9 10 11 10 10 9 13 14 13 13 12 11 8 10 9 9
1 1 1 1 1 2 2 4 5 5 3 2 2 1 2 2 2 3 4 4 4 8 11 11 12 10 9 11 10 10 10 11 12 12 9 10 12 14 15 15 14 12 12 13 11 11 8
1 1 1 1 1 2 3 4 5 5 3 2 1 2 2 3 3 2 3 5 6 9 11 11 10 10 8 10 9 9 10 12 12 13 13 11 8 13 14 15 14 13 13 9 9 9 8
1 1 1 1 1 2 3 3 5 6 4 2 2 2 3 3 2 2 3 4 7 9 10 10 9 9 9 9 8 9 11 12 13 12 12 11 9 9 13 12 12 11 11 11 10 8 6
1 1 1 1 1 1 1 1 6 7 6 2 2 3 3 3 1 2 3 5 7 9 8 9 9 10 9 10 8 8 9 11 13 12 10 10 6 6 10 13 14 13 12 11 6 9 8
0 1 1 1 1 1 1 1 4 9 7 3 3 1 2 3 3 2 4 5 7 8 8 9 9 8 7 6 5 5 9 12 12 11 10 10 6 7 9 11 12 12 11 11 8 6 6
0 1 1 1 0 0 1 2 3 5 4 3 2 0 1 2 5 5 4 5 6 8 9 9 9 7 5 3 4 3 6 10 11 9 10 10 9 8 7 6 7 9 9 8 7 3 3
0 1 0 0 0 0 1 2 3 1 1 2 0 1 2 1 2 2 5 6 6 7 8 9 8 6 5 4 5 4 7 9 10 8 9 7 6 5 8 8 7 5 6 5 6 5 5
0 0 0 0 -0 0 0 0 0 0 0 0 0 0 1 3 1 2 3 6 6 7 8 7 6 7 6 4 6 5 6 8 7 7 8 8 6 3 2 6 7 1 1 1 3 6 4
0 0 0 0 -0 -0 -0 -0 0 0 0 0 1 1 3 2 1 2 3 5 7 8 9 9 7 7 7 7 8 8 9 9 9 8 7 7 6 5 5 5 7 6 1 3 5 6 6
0 -0 0 -0 -0 -0 -0 -1 -0 0 0 1 1 2 4 1 3 4 5 6 7 8 7 9 9 8 8 9 9 8 8 9 10 9 9 7 7 7 5 5 6 3 5 5 6 4 2
-0 -0 -0 -1 -1 -1 -0 -0 -1 -0 0 0 1 2 3 1 4 4 5 7 8 7 6 7 7 8 9 9 7 7 7 7 8 7 8 7 7 5 5 6 4 4 6 5 4 3 2
-1 -1 -1 -1 -1 -1 -1 -1 -1 -1 0 1 1 2 2 3 4 7 6 5 4 3 5 4 6 7 8 7 6 6 6 7 7 9 8 8 7 5 5 6 6 6 6 7 6 3 3
-1 -1 -1 -1 -1 -1 -1 -1 -1 -0 0 1 1 1 2 2 3 4 3 2 3 3 2 3 5 6 6 4 5 7 7 9 7 7 7 7 6 5 4 5 5 7 7 7 4 2 3
-1 -1 -1 -1 -1 -1 -1 -1 -1 -0 0 1 1 1 2 3 3 3 3 3 4 4 2 5 4 5 3 4 6 6 6 8 7 9 8 6 5 4 4 5 5 6 6 4 3 5 4
-1 -1 -1 -1 -1 -1 -1 -1 -1 -0 -1 -0 1 2 2 2 2 4 4 3 5 6 6 6 6 7 6 5 6 6 5 5 7 4 9 6 7 4 3 3 2 3 4 4 4 4 2

GFSGBSN_850_temp_141.txt.gz
Temp
10 10 9 9 10 9 10 9 10 10 10 10 10 10 9 9 9 10 10 10 11 11 11 11 12 12 13 14 15 15 15 15 15 15 14 15 14 14 13 13 14 14 15 16 16 17 18
10 9 9 9 9 9 9 9 9 9 9 9 9 10 9 9 9 9 10 10 10 10 10 11 11 11 12 11 14 14 14 14 14 14 14 14 13 14 14 13 13 14 14 14 16 16 16
9 9 8 9 9 9 9 9 9 9 9 9 9 8 9 9 9 8 9 10 9 10 10 10 10 11 11 13 14 14 14 14 13 13 13 13 13 13 13 12 13 14 13 13 14 15 15
8 8 9 8 9 8 9 8 9 9 9 9 9 9 8 9 8 8 7 8 9 9 9 9 10 10 10 13 13 14 14 13 13 13 13 13 13 13 13 13 13 12 12 12 14 14 16
6 7 7 8 7 7 7 8 8 8 9 8 8 8 8 8 8 7 7 7 8 8 8 8 9 9 10 12 13 14 13 13 13 13 13 13 13 12 12 10 9 10 11 11 12 15 14
4 4 4 5 6 6 6 6 6 8 8 8 7 7 7 7 7 6 6 6 7 8 8 8 7 7 11 13 13 14 13 13 13 13 13 13 12 8 7 8 10 11 11 11 12 15 14
2 2 3 4 5 5 5 5 4 4 5 5 5 6 6 6 6 6 6 6 7 8 7 10 9 10 12 12 13 13 13 12 12 13 10 11 8 9 9 9 11 12 12 12 11 13 14
2 2 2 2 3 4 3 4 4 4 3 3 3 4 5 6 6 6 6 6 6 6 6 8 9 8 11 11 9 12 13 13 12 10 10 10 8 10 11 10 10 10 10 10 11 12 13
2 1 1 1 1 1 1 2 2 3 2 2 2 3 4 5 5 6 6 6 6 6 5 7 9 9 10 10 9 10 12 13 11 10 10 9 11 12 11 11 10 10 10 11 12 13 12
1 1 1 1 1 1 1 1 1 2 2 2 2 2 3 4 4 5 5 5 6 6 1 5 7 9 9 9 11 11 12 12 11 10 10 9 11 11 11 11 11 10 11 12 12 10 9
2 1 1 1 1 1 0 1 1 1 2 2 2 2 3 3 4 4 5 5 5 5 3 9 10 11 11 11 12 12 11 12 10 10 10 10 12 12 11 11 12 12 12 11 11 9 9
2 2 1 1 1 0 0 1 1 2 2 2 2 2 2 2 3 4 5 5 5 2 2 9 11 10 9 11 12 12 12 12 12 11 10 9 12 11 10 12 13 12 11 11 8 8 7
2 2 1 1 1 1 1 1 1 2 2 1 1 1 1 2 4 4 4 5 1 1 8 9 10 10 10 10 10 12 10 9 9 8 8 10 10 11 12 10 12 11 10 7 7 5 9
2 1 1 1 1 1 1 1 1 2 1 1 1 2 2 1 3 4 4 2 1 5 6 10 10 10 9 10 10 10 9 8 9 9 8 7 8 10 11 10 11 10 11 9 8 8 8
1 1 1 1 1 1 1 1 1 1 1 0 1 1 1 2 3 3 3 1 3 4 8 8 9 9 8 9 9 9 8 8 8 8 8 6 8 11 11 12 12 9 9 11 10 9 6
1 1 1 1 1 1 1 1 1 1 1 0 1 1 1 2 2 2 1 3 3 6 8 8 7 7 6 7 7 7 8 9 9 9 10 9 7 10 11 13 12 12 10 9 6 8 8
1 1 1 1 1 1 1 1 1 1 1 0 -0 0 1 1 2 2 2 2 4 6 7 7 6 7 7 7 6 6 8 9 9 9 9 8 7 8 10 10 10 10 10 9 9 7 6
1 1 1 1 1 1 1 1 1 0 0 0 1 0 2 1 1 2 2 3 5 6 6 5 6 6 6 8 7 6 7 9 11 10 8 7 5 4 8 11 12 10 9 8 6 8 7
1 1 1 0 0 1 1 1 1 -0 0 1 1 1 2 1 2 2 3 4 4 5 5 5 5 6 6 4 4 3 6 10 11 9 8 7 4 6 7 8 10 8 8 8 8 7 6
1 0 1 0 0 0 0 0 0 -0 0 0 1 1 1 1 2 2 3 3 3 4 4 6 5 5 5 2 3 5 6 9 10 10 10 9 7 7 4 6 7 7 8 6 6 6 4
0 0 0 0 0 -0 -0 0 -0 0 0 0 1 1 3 1 1 2 3 3 3 4 5 5 4 4 4 3 3 2 5 8 8 8 8 7 7 5 7 6 6 5 5 6 5 5 5
0 0 -0 -0 -0 -0 -0 -1 -0 -0 0 1 2 1 1 2 3 2 2 3 4 4 4 4 4 5 5 4 5 4 4 6 6 6 6 6 5 4 4 5 5 5 4 4 5 5 5
-0 -0 -0 -0 -1 -0 -0 -0 -1 -0 -0 0 1 1 2 2 3 2 3 3 4 4 5 5 5 5 5 5 7 8 7 8 7 5 4 5 4 4 6 5 5 5 4 4 4 4 4
-0 -0 -0 -1 -0 -0 -0 -1 -0 -0 0 -0 0 0 -0 1 1 2 3 3 3 5 4 5 5 5 5 6 7 7 7 7 7 7 7 5 4 5 5 5 5 5 4 4 4 4 3
-1 -0 -1 -0 -0 -0 -0 -0 -1 -0 -0 -0 0 1 -0 1 1 2 3 3 3 3 3 4 4 4 5 6 4 3 4 6 6 7 7 7 5 5 5 5 6 5 5 3 4 4 2
-1 -1 -0 -0 -0 -0 -0 -1 -1 -0 -0 -0 0 0 0 2 1 3 2 2 2 2 3 3 4 5 6 4 3 4 4 5 6 7 8 7 7 5 5 6 5 5 5 5 6 3 1
-1 -1 -0 0 -0 -1 -1 -1 -1 -1 -1 -1 -0 -0 0 1 2 2 2 3 2 2 2 3 5 5 7 2 4 4 4 8 5 6 5 5 5 5 5 5 5 6 5 6 5 4 1
-1 -1 -1 -0 -1 -1 -1 -1 -1 -1 -1 -1 -1 -0 0 1 2 3 3 4 3 3 2 3 3 2 2 3 4 4 4 5 6 7 6 5 5 5 3 5 5 5 5 4 3 2 2
-1 -1 -1 -0 -1 -1 -1 -1 -1 -1 -1 -1 -1 -0 0 1 1 2 3 3 3 4 5 4 4 3 4 3 3 5 3 3 5 4 6 5 5 4 4 3 2 3 3 4 4 3 1

GFSGBSN_850_temp_144.txt.gz
Temp
10 10 10 10 10 9 10 9 10 10 10 10 9 10 10 10 9 9 10 10 10 10 11 12 12 12 12 13 15 15 15 15 15 15 15 15 14 14 12 12 13 14 14 15 15 16 16
9 9 9 9 9 9 10 9 9 9 9 9 9 9 9 9 9 9 9 9 9 10 10 11 11 11 11 11 14 14 14 14 14 14 14 14 14 14 13 12 12 13 13 13 15 16 16
9 9 9 9 9 9 9 9 9 9 9 9 9 9 9 8 8 9 8 8 9 9 9 10 10 10 10 13 14 14 14 14 14 13 13 13 13 13 13 12 13 13 12 11 13 14 12
8 8 9 9 9 9 9 8 9 9 9 9 9 10 9 9 7 8 8 8 8 7 8 9 9 10 9 13 13 13 13 14 13 13 13 13 13 13 13 12 12 12 11 11 14 13 14
7 7 8 8 9 9 8 8 8 8 9 9 9 9 9 9 7 7 7 7 6 6 7 8 8 9 10 12 12 13 13 13 13 13 13 13 12 12 12 9 9 8 11 11 12 14 14
3 4 6 7 6 7 7 7 7 7 8 8 8 9 8 8 7 7 6 6 6 7 7 8 7 7 11 12 12 13 13 13 12 13 13 12 12 7 6 8 10 11 10 10 11 13 13
2 3 3 3 4 5 5 4 5 4 7 7 7 7 7 7 6 6 6 5 7 8 6 9 9 9 12 12 12 13 13 12 12 12 10 10 8 8 10 8 11 11 11 11 10 11 13
2 2 2 2 2 4 3 4 4 3 3 3 4 5 5 6 6 6 6 5 6 6 5 8 9 8 11 10 9 12 12 12 11 9 10 9 7 9 10 9 10 9 9 9 9 11 11
2 2 1 1 1 1 1 1 2 3 2 2 2 3 4 5 5 6 6 5 5 5 5 7 7 7 9 9 9 11 11 12 11 9 8 8 11 11 10 10 9 9 9 9 11 12 10
3 2 2 1 1 1 1 1 1 1 1 2 2 2 3 4 5 6 5 5 5 6 1 5 7 8 9 9 9 11 11 11 10 9 9 8 10 10 10 10 9 8 10 10 10 10 9
2 2 2 1 1 0 1 0 1 1 2 2 1 2 4 4 4 4 5 5 5 5 3 9 9 10 10 9 11 11 10 10 9 10 10 9 11 11 9 10 10 10 11 10 10 9 9
2 2 2 1 1 1 1 0 1 1 1 2 1 1 3 4 4 4 4 5 5 1 3 9 10 9 8 10 11 11 10 10 11 10 9 9 11 11 10 11 12 11 11 8 7 7 6
2 2 2 1 1 1 1 0 1 1 1 2 1 1 2 3 3 4 4 5 1 0 7 9 9 9 9 10 10 10 9 9 8 8 7 9 9 10 11 10 10 10 9 8 7 5 8
2 2 2 1 1 1 1 1 1 1 1 1 1 2 2 2 3 3 4 2 0 5 5 8 9 9 9 10 9 9 8 8 9 9 7 7 7 9 10 9 10 9 10 8 9 9 8
2 2 2 1 1 1 1 1 1 1 0 1 0 1 2 2 2 3 4 -1 3 4 7 8 9 8 8 9 8 9 7 7 7 7 7 5 7 10 11 11 10 9 8 11 10 9 7
2 2 2 1 1 1 1 1 1 1 0 0 1 1 2 2 2 2 1 3 3 5 6 7 7 7 6 6 8 8 8 8 8 7 9 8 7 9 10 11 11 11 10 8 6 7 7
2 2 2 2 1 1 1 1 1 1 0 0 0 1 2 2 2 2 2 1 3 6 6 6 6 6 6 7 6 6 8 8 9 9 8 8 6 8 9 9 8 8 8 8 8 7 6
2 2 2 2 2 1 1 1 1 1 0 0 0 -1 1 2 1 2 2 2 4 5 6 4 5 5 5 6 6 5 5 8 10 9 7 7 4 3 7 9 10 9 8 8 6 7 7
1 1 1 1 1 1 1 1 1 1 0 0 1 2 1 1 1 1 2 3 4 3 4 4 4 4 4 3 3 3 6 9 10 8 7 7 4 5 6 7 8 8 7 7 6 5 6
0 1 1 1 1 1 1 1 1 1 0 0 1 -1 0 0 1 1 1 2 2 4 4 4 4 5 4 1 3 1 5 7 8 8 9 9 6 6 5 5 5 7 6 7 6 6 6
1 1 1 1 0 1 0 1 1 0 0 0 1 0 1 1 1 1 1 2 2 2 4 4 2 3 3 -0 2 4 4 6 7 8 7 5 5 4 6 7 6 4 4 5 5 5 5
0 1 1 0 0 0 1 1 1 0 0 -0 0 1 1 1 2 1 2 2 2 3 3 2 3 4 3 2 3 4 4 4 5 6 6 4 3 3 2 5 5 4 5 4 4 4 4
0 -0 -0 -0 0 -0 0 1 0 0 -0 -0 0 0 2 2 2 1 2 2 3 4 4 4 4 4 2 3 5 5 5 6 6 6 3 4 4 4 5 5 5 5 4 4 5 5 5
-1 -1 -0 0 -0 0 0 0 0 0 -0 -0 -0 -0 0 2 1 2 3 3 3 3 3 4 4 3 3 4 5 5 4 5 6 5 5 4 4 4 5 4 5 5 4 4 4 5 4
-1 -1 -1 -0 -0 -0 -0 -0 0 -0 -0 -0 -0 -0 -0 1 1 2 2 2 2 2 2 3 3 2 3 2 2 2 3 3 3 5 5 5 4 5 5 5 5 7 4 4 4 5 3
-1 -1 -1 -0 -0 -0 -0 -0 -0 -0 -0 -1 -1 -0 0 0 0 2 2 2 2 2 2 3 3 3 2 2 3 3 5 4 4 6 6 6 5 4 4 5 5 7 5 5 5 4 1
-1 -1 -1 -0 -0 -0 -0 -0 -0 -0 -0 -1 -1 -0 -0 -0 1 1 1 2 2 2 2 2 3 2 2 2 3 2 4 6 4 5 5 4 4 5 4 5 5 6 5 6 5 4 1
-1 -1 -0 -0 -0 0 -0 -0 -0 -0 -0 -1 -1 -1 -1 -0 0 1 2 1 2 2 2 2 2 2 2 3 3 3 3 4 4 6 5 5 4 3 4 5 5 5 4 4 3 2 2
-1 -1 -1 -1 -0 -0 -0 -1 -0 -0 -1 -1 -1 -0 -1 -1 -0 1 1 2 2 2 2 2 3 2 2 2 2 3 3 3 4 5 6 5 5 4 5 4 2 3 3 3 4 4 2